<?xml version="1.0" encoding="UTF-8" standalone="no" ?>
<gpx xmlns="http://www.topografix.com/GPX/1/1" xmlns:xsi="http://www.w3.org/2001/XMLSchema-instance" xsi:schemaLocation="http://www.topografix.com/GPX/1/1 http://www.topografix.com/GPX/1/1/gpx.xsd" version="1.1" creator="VisuGPX - https://www.visugpx.com">
  <metadata>
    <name>les sources de l'Huveaune</name>
    <desc><![CDATA[depuis Nans les pins
]]></desc>
  </metadata>
  <trk>
    <name><![CDATA[Tracé_02-MARS-15 030136 PM]]></name>
    <trkseg>
      <trkpt lat="43.36954" lon="5.78325">
        <ele>345.2</ele>
        <time>2015-03-02T08:53:52Z</time>
      </trkpt>
      <trkpt lat="43.36954" lon="5.78321">
        <ele>344.8</ele>
        <time>2015-03-02T08:53:53Z</time>
      </trkpt>
      <trkpt lat="43.36958" lon="5.78318">
        <ele>348.1</ele>
        <time>2015-03-02T08:54:00Z</time>
      </trkpt>
      <trkpt lat="43.36958" lon="5.78318">
        <ele>351.5</ele>
        <time>2015-03-02T08:54:02Z</time>
      </trkpt>
      <trkpt lat="43.36958" lon="5.78318">
        <ele>355.3</ele>
        <time>2015-03-02T08:54:04Z</time>
      </trkpt>
      <trkpt lat="43.36958" lon="5.78317">
        <ele>355.3</ele>
        <time>2015-03-02T08:54:05Z</time>
      </trkpt>
      <trkpt lat="43.36959" lon="5.78318">
        <ele>358.7</ele>
        <time>2015-03-02T08:54:07Z</time>
      </trkpt>
      <trkpt lat="43.3696" lon="5.78321">
        <ele>362.5</ele>
        <time>2015-03-02T08:54:10Z</time>
      </trkpt>
      <trkpt lat="43.36963" lon="5.78324">
        <ele>366.4</ele>
        <time>2015-03-02T08:54:13Z</time>
      </trkpt>
      <trkpt lat="43.36965" lon="5.78327">
        <ele>369.3</ele>
        <time>2015-03-02T08:54:16Z</time>
      </trkpt>
      <trkpt lat="43.36966" lon="5.78327">
        <ele>370.7</ele>
        <time>2015-03-02T08:54:19Z</time>
      </trkpt>
      <trkpt lat="43.36967" lon="5.78326">
        <ele>376</ele>
        <time>2015-03-02T08:54:24Z</time>
      </trkpt>
      <trkpt lat="43.36967" lon="5.78325">
        <ele>375</ele>
        <time>2015-03-02T08:54:25Z</time>
      </trkpt>
      <trkpt lat="43.36967" lon="5.78325">
        <ele>378.9</ele>
        <time>2015-03-02T08:54:30Z</time>
      </trkpt>
      <trkpt lat="43.3697" lon="5.78328">
        <ele>382.3</ele>
        <time>2015-03-02T08:54:36Z</time>
      </trkpt>
      <trkpt lat="43.3697" lon="5.78329">
        <ele>377.9</ele>
        <time>2015-03-02T08:54:37Z</time>
      </trkpt>
      <trkpt lat="43.36971" lon="5.7833">
        <ele>387.5</ele>
        <time>2015-03-02T08:54:38Z</time>
      </trkpt>
      <trkpt lat="43.36971" lon="5.78331">
        <ele>384.2</ele>
        <time>2015-03-02T08:54:39Z</time>
      </trkpt>
      <trkpt lat="43.36974" lon="5.78337">
        <ele>387.1</ele>
        <time>2015-03-02T08:54:47Z</time>
      </trkpt>
      <trkpt lat="43.36982" lon="5.78349">
        <ele>388.5</ele>
        <time>2015-03-02T08:54:55Z</time>
      </trkpt>
      <trkpt lat="43.36987" lon="5.78356">
        <ele>389.5</ele>
        <time>2015-03-02T08:55:02Z</time>
      </trkpt>
      <trkpt lat="43.36994" lon="5.78366">
        <ele>389</ele>
        <time>2015-03-02T08:55:10Z</time>
      </trkpt>
      <trkpt lat="43.37" lon="5.78372">
        <ele>389</ele>
        <time>2015-03-02T08:55:19Z</time>
      </trkpt>
      <trkpt lat="43.37005" lon="5.78373">
        <ele>389</ele>
        <time>2015-03-02T08:55:26Z</time>
      </trkpt>
      <trkpt lat="43.37006" lon="5.78373">
        <ele>389</ele>
        <time>2015-03-02T08:55:29Z</time>
      </trkpt>
      <trkpt lat="43.37011" lon="5.78368">
        <ele>389</ele>
        <time>2015-03-02T08:55:37Z</time>
      </trkpt>
      <trkpt lat="43.37013" lon="5.78363">
        <ele>389</ele>
        <time>2015-03-02T08:55:44Z</time>
      </trkpt>
      <trkpt lat="43.37015" lon="5.78361">
        <ele>389</ele>
        <time>2015-03-02T08:55:46Z</time>
      </trkpt>
      <trkpt lat="43.3702" lon="5.78357">
        <ele>389</ele>
        <time>2015-03-02T08:55:50Z</time>
      </trkpt>
      <trkpt lat="43.37025" lon="5.78348">
        <ele>388.5</ele>
        <time>2015-03-02T08:55:58Z</time>
      </trkpt>
      <trkpt lat="43.37026" lon="5.78347">
        <ele>388.5</ele>
        <time>2015-03-02T08:55:59Z</time>
      </trkpt>
      <trkpt lat="43.3703" lon="5.78332">
        <ele>388.5</ele>
        <time>2015-03-02T08:56:07Z</time>
      </trkpt>
      <trkpt lat="43.3703" lon="5.7833">
        <ele>388.5</ele>
        <time>2015-03-02T08:56:08Z</time>
      </trkpt>
      <trkpt lat="43.37035" lon="5.78317">
        <ele>388</ele>
        <time>2015-03-02T08:56:15Z</time>
      </trkpt>
      <trkpt lat="43.37045" lon="5.78309">
        <ele>388.5</ele>
        <time>2015-03-02T08:56:22Z</time>
      </trkpt>
      <trkpt lat="43.37047" lon="5.78301">
        <ele>388</ele>
        <time>2015-03-02T08:56:30Z</time>
      </trkpt>
      <trkpt lat="43.37048" lon="5.78296">
        <ele>388.5</ele>
        <time>2015-03-02T08:56:32Z</time>
      </trkpt>
      <trkpt lat="43.37051" lon="5.78295">
        <ele>388.5</ele>
        <time>2015-03-02T08:56:35Z</time>
      </trkpt>
      <trkpt lat="43.37051" lon="5.78286">
        <ele>388.5</ele>
        <time>2015-03-02T08:56:40Z</time>
      </trkpt>
      <trkpt lat="43.37051" lon="5.78281">
        <ele>388.5</ele>
        <time>2015-03-02T08:56:42Z</time>
      </trkpt>
      <trkpt lat="43.37054" lon="5.78268">
        <ele>388.5</ele>
        <time>2015-03-02T08:56:50Z</time>
      </trkpt>
      <trkpt lat="43.37056" lon="5.7826">
        <ele>388.5</ele>
        <time>2015-03-02T08:56:57Z</time>
      </trkpt>
      <trkpt lat="43.3706" lon="5.78256">
        <ele>389</ele>
        <time>2015-03-02T08:57:03Z</time>
      </trkpt>
      <trkpt lat="43.37059" lon="5.78253">
        <ele>388.5</ele>
        <time>2015-03-02T08:57:04Z</time>
      </trkpt>
      <trkpt lat="43.3706" lon="5.78247">
        <ele>388.5</ele>
        <time>2015-03-02T08:57:07Z</time>
      </trkpt>
      <trkpt lat="43.37064" lon="5.78237">
        <ele>388</ele>
        <time>2015-03-02T08:57:15Z</time>
      </trkpt>
      <trkpt lat="43.37064" lon="5.78227">
        <ele>389</ele>
        <time>2015-03-02T08:57:24Z</time>
      </trkpt>
      <trkpt lat="43.37072" lon="5.78232">
        <ele>389.5</ele>
        <time>2015-03-02T08:57:36Z</time>
      </trkpt>
      <trkpt lat="43.37075" lon="5.78234">
        <ele>389.5</ele>
        <time>2015-03-02T08:57:48Z</time>
      </trkpt>
      <trkpt lat="43.37075" lon="5.78234">
        <ele>388.5</ele>
        <time>2015-03-02T08:57:59Z</time>
      </trkpt>
      <trkpt lat="43.37077" lon="5.78236">
        <ele>389</ele>
        <time>2015-03-02T08:58:14Z</time>
      </trkpt>
      <trkpt lat="43.37076" lon="5.78237">
        <ele>389</ele>
        <time>2015-03-02T08:58:28Z</time>
      </trkpt>
      <trkpt lat="43.37076" lon="5.78237">
        <ele>389</ele>
        <time>2015-03-02T08:58:39Z</time>
      </trkpt>
      <trkpt lat="43.37075" lon="5.78237">
        <ele>389</ele>
        <time>2015-03-02T08:58:52Z</time>
      </trkpt>
      <trkpt lat="43.37075" lon="5.78237">
        <ele>389</ele>
        <time>2015-03-02T08:59:02Z</time>
      </trkpt>
      <trkpt lat="43.37074" lon="5.78236">
        <ele>389</ele>
        <time>2015-03-02T08:59:16Z</time>
      </trkpt>
      <trkpt lat="43.37075" lon="5.78232">
        <ele>389</ele>
        <time>2015-03-02T08:59:23Z</time>
      </trkpt>
      <trkpt lat="43.37076" lon="5.7823">
        <ele>389</ele>
        <time>2015-03-02T08:59:25Z</time>
      </trkpt>
      <trkpt lat="43.37076" lon="5.78226">
        <ele>389</ele>
        <time>2015-03-02T08:59:28Z</time>
      </trkpt>
      <trkpt lat="43.37079" lon="5.78221">
        <ele>389.5</ele>
        <time>2015-03-02T08:59:32Z</time>
      </trkpt>
      <trkpt lat="43.37082" lon="5.78219">
        <ele>389</ele>
        <time>2015-03-02T08:59:35Z</time>
      </trkpt>
      <trkpt lat="43.37082" lon="5.78206">
        <ele>388.5</ele>
        <time>2015-03-02T08:59:42Z</time>
      </trkpt>
      <trkpt lat="43.3708" lon="5.78196">
        <ele>389</ele>
        <time>2015-03-02T08:59:49Z</time>
      </trkpt>
      <trkpt lat="43.37075" lon="5.78188">
        <ele>389.5</ele>
        <time>2015-03-02T08:59:59Z</time>
      </trkpt>
      <trkpt lat="43.37068" lon="5.78187">
        <ele>389</ele>
        <time>2015-03-02T09:00:06Z</time>
      </trkpt>
      <trkpt lat="43.3706" lon="5.78184">
        <ele>389</ele>
        <time>2015-03-02T09:00:14Z</time>
      </trkpt>
      <trkpt lat="43.37049" lon="5.78181">
        <ele>389.5</ele>
        <time>2015-03-02T09:00:25Z</time>
      </trkpt>
      <trkpt lat="43.3704" lon="5.78179">
        <ele>389</ele>
        <time>2015-03-02T09:00:33Z</time>
      </trkpt>
      <trkpt lat="43.37031" lon="5.78172">
        <ele>389.5</ele>
        <time>2015-03-02T09:00:41Z</time>
      </trkpt>
      <trkpt lat="43.37022" lon="5.78168">
        <ele>390</ele>
        <time>2015-03-02T09:00:51Z</time>
      </trkpt>
      <trkpt lat="43.37015" lon="5.78166">
        <ele>390.4</ele>
        <time>2015-03-02T09:01:00Z</time>
      </trkpt>
      <trkpt lat="43.37013" lon="5.78164">
        <ele>390.9</ele>
        <time>2015-03-02T09:01:03Z</time>
      </trkpt>
      <trkpt lat="43.37005" lon="5.78161">
        <ele>391.9</ele>
        <time>2015-03-02T09:01:13Z</time>
      </trkpt>
      <trkpt lat="43.36996" lon="5.78154">
        <ele>393.3</ele>
        <time>2015-03-02T09:01:23Z</time>
      </trkpt>
      <trkpt lat="43.36989" lon="5.78148">
        <ele>394.3</ele>
        <time>2015-03-02T09:01:31Z</time>
      </trkpt>
      <trkpt lat="43.36987" lon="5.78146">
        <ele>395.2</ele>
        <time>2015-03-02T09:01:41Z</time>
      </trkpt>
      <trkpt lat="43.3698" lon="5.78141">
        <ele>396.2</ele>
        <time>2015-03-02T09:01:52Z</time>
      </trkpt>
      <trkpt lat="43.36976" lon="5.78138">
        <ele>396.7</ele>
        <time>2015-03-02T09:02:01Z</time>
      </trkpt>
      <trkpt lat="43.36973" lon="5.78134">
        <ele>397.2</ele>
        <time>2015-03-02T09:02:13Z</time>
      </trkpt>
      <trkpt lat="43.36961" lon="5.78129">
        <ele>397.6</ele>
        <time>2015-03-02T09:02:23Z</time>
      </trkpt>
      <trkpt lat="43.36951" lon="5.78121">
        <ele>399.1</ele>
        <time>2015-03-02T09:02:34Z</time>
      </trkpt>
      <trkpt lat="43.36938" lon="5.7811">
        <ele>400.5</ele>
        <time>2015-03-02T09:02:45Z</time>
      </trkpt>
      <trkpt lat="43.36928" lon="5.78107">
        <ele>401.5</ele>
        <time>2015-03-02T09:02:56Z</time>
      </trkpt>
      <trkpt lat="43.36918" lon="5.78106">
        <ele>402.5</ele>
        <time>2015-03-02T09:03:07Z</time>
      </trkpt>
      <trkpt lat="43.36914" lon="5.78104">
        <ele>402.5</ele>
        <time>2015-03-02T09:03:15Z</time>
      </trkpt>
      <trkpt lat="43.36903" lon="5.78099">
        <ele>403.9</ele>
        <time>2015-03-02T09:03:25Z</time>
      </trkpt>
      <trkpt lat="43.36895" lon="5.78094">
        <ele>405.3</ele>
        <time>2015-03-02T09:03:36Z</time>
      </trkpt>
      <trkpt lat="43.36888" lon="5.78087">
        <ele>405.8</ele>
        <time>2015-03-02T09:03:47Z</time>
      </trkpt>
      <trkpt lat="43.3688" lon="5.78082">
        <ele>407.3</ele>
        <time>2015-03-02T09:03:57Z</time>
      </trkpt>
      <trkpt lat="43.36879" lon="5.78079">
        <ele>407.3</ele>
        <time>2015-03-02T09:04:09Z</time>
      </trkpt>
      <trkpt lat="43.36878" lon="5.78075">
        <ele>408.2</ele>
        <time>2015-03-02T09:04:19Z</time>
      </trkpt>
      <trkpt lat="43.36878" lon="5.78075">
        <ele>408.7</ele>
        <time>2015-03-02T09:04:20Z</time>
      </trkpt>
      <trkpt lat="43.36877" lon="5.78067">
        <ele>409.2</ele>
        <time>2015-03-02T09:04:25Z</time>
      </trkpt>
      <trkpt lat="43.36867" lon="5.78049">
        <ele>410.6</ele>
        <time>2015-03-02T09:04:34Z</time>
      </trkpt>
      <trkpt lat="43.3686" lon="5.7804">
        <ele>411.6</ele>
        <time>2015-03-02T09:04:42Z</time>
      </trkpt>
      <trkpt lat="43.36854" lon="5.78031">
        <ele>413</ele>
        <time>2015-03-02T09:04:52Z</time>
      </trkpt>
      <trkpt lat="43.36854" lon="5.78031">
        <ele>413.5</ele>
        <time>2015-03-02T09:04:59Z</time>
      </trkpt>
      <trkpt lat="43.36852" lon="5.7803">
        <ele>414.5</ele>
        <time>2015-03-02T09:05:08Z</time>
      </trkpt>
      <trkpt lat="43.36851" lon="5.78027">
        <ele>415</ele>
        <time>2015-03-02T09:05:14Z</time>
      </trkpt>
      <trkpt lat="43.36848" lon="5.78023">
        <ele>415.4</ele>
        <time>2015-03-02T09:05:17Z</time>
      </trkpt>
      <trkpt lat="43.36841" lon="5.78011">
        <ele>415.9</ele>
        <time>2015-03-02T09:05:24Z</time>
      </trkpt>
      <trkpt lat="43.36832" lon="5.77996">
        <ele>416.9</ele>
        <time>2015-03-02T09:05:31Z</time>
      </trkpt>
      <trkpt lat="43.36822" lon="5.7798">
        <ele>417.8</ele>
        <time>2015-03-02T09:05:38Z</time>
      </trkpt>
      <trkpt lat="43.36813" lon="5.77966">
        <ele>418.8</ele>
        <time>2015-03-02T09:05:45Z</time>
      </trkpt>
      <trkpt lat="43.36812" lon="5.77964">
        <ele>418.8</ele>
        <time>2015-03-02T09:05:48Z</time>
      </trkpt>
      <trkpt lat="43.36806" lon="5.77958">
        <ele>420.2</ele>
        <time>2015-03-02T09:05:57Z</time>
      </trkpt>
      <trkpt lat="43.36799" lon="5.77954">
        <ele>421.7</ele>
        <time>2015-03-02T09:06:06Z</time>
      </trkpt>
      <trkpt lat="43.36794" lon="5.77954">
        <ele>424.1</ele>
        <time>2015-03-02T09:06:15Z</time>
      </trkpt>
      <trkpt lat="43.36796" lon="5.77944">
        <ele>425</ele>
        <time>2015-03-02T09:06:22Z</time>
      </trkpt>
      <trkpt lat="43.36797" lon="5.77934">
        <ele>426.5</ele>
        <time>2015-03-02T09:06:29Z</time>
      </trkpt>
      <trkpt lat="43.36797" lon="5.77924">
        <ele>427.4</ele>
        <time>2015-03-02T09:06:37Z</time>
      </trkpt>
      <trkpt lat="43.36795" lon="5.77913">
        <ele>428.4</ele>
        <time>2015-03-02T09:06:45Z</time>
      </trkpt>
      <trkpt lat="43.3679" lon="5.77904">
        <ele>429.9</ele>
        <time>2015-03-02T09:06:57Z</time>
      </trkpt>
      <trkpt lat="43.36786" lon="5.77898">
        <ele>430.8</ele>
        <time>2015-03-02T09:07:05Z</time>
      </trkpt>
      <trkpt lat="43.36786" lon="5.77894">
        <ele>432.7</ele>
        <time>2015-03-02T09:07:14Z</time>
      </trkpt>
      <trkpt lat="43.36783" lon="5.77888">
        <ele>433.2</ele>
        <time>2015-03-02T09:07:23Z</time>
      </trkpt>
      <trkpt lat="43.36775" lon="5.77871">
        <ele>434.2</ele>
        <time>2015-03-02T09:07:33Z</time>
      </trkpt>
      <trkpt lat="43.36769" lon="5.77855">
        <ele>433.7</ele>
        <time>2015-03-02T09:07:41Z</time>
      </trkpt>
      <trkpt lat="43.36768" lon="5.77852">
        <ele>429.4</ele>
        <time>2015-03-02T09:07:46Z</time>
      </trkpt>
      <trkpt lat="43.36768" lon="5.77851">
        <ele>439.9</ele>
        <time>2015-03-02T09:07:47Z</time>
      </trkpt>
      <trkpt lat="43.36767" lon="5.7785">
        <ele>435.6</ele>
        <time>2015-03-02T09:07:48Z</time>
      </trkpt>
      <trkpt lat="43.36764" lon="5.77844">
        <ele>436.1</ele>
        <time>2015-03-02T09:07:55Z</time>
      </trkpt>
      <trkpt lat="43.36763" lon="5.77842">
        <ele>436.1</ele>
        <time>2015-03-02T09:07:57Z</time>
      </trkpt>
      <trkpt lat="43.36758" lon="5.77833">
        <ele>436.6</ele>
        <time>2015-03-02T09:08:04Z</time>
      </trkpt>
      <trkpt lat="43.36754" lon="5.77823">
        <ele>437.5</ele>
        <time>2015-03-02T09:08:13Z</time>
      </trkpt>
      <trkpt lat="43.36752" lon="5.77818">
        <ele>438.5</ele>
        <time>2015-03-02T09:08:20Z</time>
      </trkpt>
      <trkpt lat="43.36748" lon="5.7781">
        <ele>439.9</ele>
        <time>2015-03-02T09:08:28Z</time>
      </trkpt>
      <trkpt lat="43.36745" lon="5.77799">
        <ele>440.4</ele>
        <time>2015-03-02T09:08:35Z</time>
      </trkpt>
      <trkpt lat="43.36743" lon="5.77788">
        <ele>439.5</ele>
        <time>2015-03-02T09:08:43Z</time>
      </trkpt>
      <trkpt lat="43.36741" lon="5.77785">
        <ele>436.6</ele>
        <time>2015-03-02T09:08:45Z</time>
      </trkpt>
      <trkpt lat="43.3674" lon="5.77784">
        <ele>443.3</ele>
        <time>2015-03-02T09:08:46Z</time>
      </trkpt>
      <trkpt lat="43.36739" lon="5.77782">
        <ele>441.4</ele>
        <time>2015-03-02T09:08:47Z</time>
      </trkpt>
      <trkpt lat="43.36739" lon="5.77778">
        <ele>441.4</ele>
        <time>2015-03-02T09:08:51Z</time>
      </trkpt>
      <trkpt lat="43.36742" lon="5.77765">
        <ele>441.9</ele>
        <time>2015-03-02T09:08:58Z</time>
      </trkpt>
      <trkpt lat="43.36743" lon="5.77755">
        <ele>440.9</ele>
        <time>2015-03-02T09:09:05Z</time>
      </trkpt>
      <trkpt lat="43.36744" lon="5.77746">
        <ele>441.9</ele>
        <time>2015-03-02T09:09:11Z</time>
      </trkpt>
      <trkpt lat="43.36743" lon="5.77737">
        <ele>442.3</ele>
        <time>2015-03-02T09:09:18Z</time>
      </trkpt>
      <trkpt lat="43.36741" lon="5.77729">
        <ele>443.3</ele>
        <time>2015-03-02T09:09:24Z</time>
      </trkpt>
      <trkpt lat="43.36736" lon="5.77721">
        <ele>444.3</ele>
        <time>2015-03-02T09:09:31Z</time>
      </trkpt>
      <trkpt lat="43.36732" lon="5.77713">
        <ele>445.2</ele>
        <time>2015-03-02T09:09:38Z</time>
      </trkpt>
      <trkpt lat="43.36732" lon="5.77707">
        <ele>446.2</ele>
        <time>2015-03-02T09:09:44Z</time>
      </trkpt>
      <trkpt lat="43.36731" lon="5.77699">
        <ele>447.1</ele>
        <time>2015-03-02T09:09:50Z</time>
      </trkpt>
      <trkpt lat="43.3673" lon="5.7769">
        <ele>448.1</ele>
        <time>2015-03-02T09:09:56Z</time>
      </trkpt>
      <trkpt lat="43.36729" lon="5.77682">
        <ele>447.6</ele>
        <time>2015-03-02T09:10:02Z</time>
      </trkpt>
      <trkpt lat="43.36726" lon="5.77672">
        <ele>448.6</ele>
        <time>2015-03-02T09:10:09Z</time>
      </trkpt>
      <trkpt lat="43.36725" lon="5.77664">
        <ele>449.1</ele>
        <time>2015-03-02T09:10:17Z</time>
      </trkpt>
      <trkpt lat="43.36722" lon="5.77651">
        <ele>450</ele>
        <time>2015-03-02T09:10:24Z</time>
      </trkpt>
      <trkpt lat="43.36723" lon="5.7765">
        <ele>450.5</ele>
        <time>2015-03-02T09:10:26Z</time>
      </trkpt>
      <trkpt lat="43.36721" lon="5.77642">
        <ele>450.5</ele>
        <time>2015-03-02T09:10:32Z</time>
      </trkpt>
      <trkpt lat="43.36721" lon="5.77637">
        <ele>449.5</ele>
        <time>2015-03-02T09:10:35Z</time>
      </trkpt>
      <trkpt lat="43.36719" lon="5.77625">
        <ele>450</ele>
        <time>2015-03-02T09:10:42Z</time>
      </trkpt>
      <trkpt lat="43.36716" lon="5.77617">
        <ele>449.1</ele>
        <time>2015-03-02T09:10:49Z</time>
      </trkpt>
      <trkpt lat="43.36714" lon="5.77609">
        <ele>451</ele>
        <time>2015-03-02T09:10:56Z</time>
      </trkpt>
      <trkpt lat="43.36716" lon="5.776">
        <ele>451.5</ele>
        <time>2015-03-02T09:11:06Z</time>
      </trkpt>
      <trkpt lat="43.36714" lon="5.77588">
        <ele>452.4</ele>
        <time>2015-03-02T09:11:13Z</time>
      </trkpt>
      <trkpt lat="43.36714" lon="5.77582">
        <ele>452.9</ele>
        <time>2015-03-02T09:11:19Z</time>
      </trkpt>
      <trkpt lat="43.36713" lon="5.77573">
        <ele>453.4</ele>
        <time>2015-03-02T09:11:25Z</time>
      </trkpt>
      <trkpt lat="43.36711" lon="5.77566">
        <ele>453.9</ele>
        <time>2015-03-02T09:11:30Z</time>
      </trkpt>
      <trkpt lat="43.36712" lon="5.7756">
        <ele>454.4</ele>
        <time>2015-03-02T09:11:35Z</time>
      </trkpt>
      <trkpt lat="43.36713" lon="5.77549">
        <ele>455.3</ele>
        <time>2015-03-02T09:11:44Z</time>
      </trkpt>
      <trkpt lat="43.36712" lon="5.7754">
        <ele>455.3</ele>
        <time>2015-03-02T09:11:50Z</time>
      </trkpt>
      <trkpt lat="43.36709" lon="5.77532">
        <ele>455.3</ele>
        <time>2015-03-02T09:11:56Z</time>
      </trkpt>
      <trkpt lat="43.36703" lon="5.77524">
        <ele>455.8</ele>
        <time>2015-03-02T09:12:02Z</time>
      </trkpt>
      <trkpt lat="43.36703" lon="5.77513">
        <ele>456.3</ele>
        <time>2015-03-02T09:12:10Z</time>
      </trkpt>
      <trkpt lat="43.36706" lon="5.77508">
        <ele>457.2</ele>
        <time>2015-03-02T09:12:15Z</time>
      </trkpt>
      <trkpt lat="43.36703" lon="5.77499">
        <ele>457.7</ele>
        <time>2015-03-02T09:12:22Z</time>
      </trkpt>
      <trkpt lat="43.36704" lon="5.77497">
        <ele>458.7</ele>
        <time>2015-03-02T09:12:29Z</time>
      </trkpt>
      <trkpt lat="43.36703" lon="5.77499">
        <ele>460.1</ele>
        <time>2015-03-02T09:12:37Z</time>
      </trkpt>
      <trkpt lat="43.36701" lon="5.77505">
        <ele>461.1</ele>
        <time>2015-03-02T09:12:44Z</time>
      </trkpt>
      <trkpt lat="43.36698" lon="5.77513">
        <ele>461.6</ele>
        <time>2015-03-02T09:12:53Z</time>
      </trkpt>
      <trkpt lat="43.36694" lon="5.7752">
        <ele>462</ele>
        <time>2015-03-02T09:13:01Z</time>
      </trkpt>
      <trkpt lat="43.3669" lon="5.77522">
        <ele>463</ele>
        <time>2015-03-02T09:13:11Z</time>
      </trkpt>
      <trkpt lat="43.36689" lon="5.77521">
        <ele>463.5</ele>
        <time>2015-03-02T09:13:19Z</time>
      </trkpt>
      <trkpt lat="43.36681" lon="5.77518">
        <ele>465.4</ele>
        <time>2015-03-02T09:13:29Z</time>
      </trkpt>
      <trkpt lat="43.36676" lon="5.7751">
        <ele>466.4</ele>
        <time>2015-03-02T09:13:36Z</time>
      </trkpt>
      <trkpt lat="43.3667" lon="5.77502">
        <ele>467.3</ele>
        <time>2015-03-02T09:13:45Z</time>
      </trkpt>
      <trkpt lat="43.36662" lon="5.77495">
        <ele>467.3</ele>
        <time>2015-03-02T09:13:54Z</time>
      </trkpt>
      <trkpt lat="43.36662" lon="5.77491">
        <ele>467.3</ele>
        <time>2015-03-02T09:14:02Z</time>
      </trkpt>
      <trkpt lat="43.36662" lon="5.77491">
        <ele>467.3</ele>
        <time>2015-03-02T09:14:12Z</time>
      </trkpt>
      <trkpt lat="43.36662" lon="5.77491">
        <ele>467.3</ele>
        <time>2015-03-02T09:14:28Z</time>
      </trkpt>
      <trkpt lat="43.36662" lon="5.77489">
        <ele>467.3</ele>
        <time>2015-03-02T09:14:41Z</time>
      </trkpt>
      <trkpt lat="43.36661" lon="5.77489">
        <ele>467.8</ele>
        <time>2015-03-02T09:14:55Z</time>
      </trkpt>
      <trkpt lat="43.36662" lon="5.77488">
        <ele>467.8</ele>
        <time>2015-03-02T09:15:05Z</time>
      </trkpt>
      <trkpt lat="43.36661" lon="5.77486">
        <ele>468.8</ele>
        <time>2015-03-02T09:15:13Z</time>
      </trkpt>
      <trkpt lat="43.3666" lon="5.77483">
        <ele>467.8</ele>
        <time>2015-03-02T09:15:22Z</time>
      </trkpt>
      <trkpt lat="43.36661" lon="5.77481">
        <ele>468.8</ele>
        <time>2015-03-02T09:15:31Z</time>
      </trkpt>
      <trkpt lat="43.36658" lon="5.77468">
        <ele>468.8</ele>
        <time>2015-03-02T09:15:37Z</time>
      </trkpt>
      <trkpt lat="43.36654" lon="5.77458">
        <ele>468.8</ele>
        <time>2015-03-02T09:15:45Z</time>
      </trkpt>
      <trkpt lat="43.36654" lon="5.77456">
        <ele>469.7</ele>
        <time>2015-03-02T09:15:53Z</time>
      </trkpt>
      <trkpt lat="43.3665" lon="5.77455">
        <ele>470.7</ele>
        <time>2015-03-02T09:16:00Z</time>
      </trkpt>
      <trkpt lat="43.36644" lon="5.77447">
        <ele>471.7</ele>
        <time>2015-03-02T09:16:10Z</time>
      </trkpt>
      <trkpt lat="43.36643" lon="5.77438">
        <ele>472.1</ele>
        <time>2015-03-02T09:16:16Z</time>
      </trkpt>
      <trkpt lat="43.36641" lon="5.77429">
        <ele>472.1</ele>
        <time>2015-03-02T09:16:24Z</time>
      </trkpt>
      <trkpt lat="43.36638" lon="5.77421">
        <ele>473.1</ele>
        <time>2015-03-02T09:16:33Z</time>
      </trkpt>
      <trkpt lat="43.36635" lon="5.77414">
        <ele>473.1</ele>
        <time>2015-03-02T09:16:40Z</time>
      </trkpt>
      <trkpt lat="43.36634" lon="5.77411">
        <ele>474.1</ele>
        <time>2015-03-02T09:16:48Z</time>
      </trkpt>
      <trkpt lat="43.36628" lon="5.77399">
        <ele>474.5</ele>
        <time>2015-03-02T09:16:54Z</time>
      </trkpt>
      <trkpt lat="43.36624" lon="5.77391">
        <ele>474.5</ele>
        <time>2015-03-02T09:17:01Z</time>
      </trkpt>
      <trkpt lat="43.36621" lon="5.77383">
        <ele>475</ele>
        <time>2015-03-02T09:17:07Z</time>
      </trkpt>
      <trkpt lat="43.36619" lon="5.77377">
        <ele>476</ele>
        <time>2015-03-02T09:17:13Z</time>
      </trkpt>
      <trkpt lat="43.36617" lon="5.77367">
        <ele>476</ele>
        <time>2015-03-02T09:17:20Z</time>
      </trkpt>
      <trkpt lat="43.36615" lon="5.77359">
        <ele>476.5</ele>
        <time>2015-03-02T09:17:29Z</time>
      </trkpt>
      <trkpt lat="43.36615" lon="5.77357">
        <ele>476.5</ele>
        <time>2015-03-02T09:17:30Z</time>
      </trkpt>
      <trkpt lat="43.36612" lon="5.77347">
        <ele>477.9</ele>
        <time>2015-03-02T09:17:37Z</time>
      </trkpt>
      <trkpt lat="43.36617" lon="5.7734">
        <ele>477.4</ele>
        <time>2015-03-02T09:17:42Z</time>
      </trkpt>
      <trkpt lat="43.36616" lon="5.77335">
        <ele>477.9</ele>
        <time>2015-03-02T09:17:49Z</time>
      </trkpt>
      <trkpt lat="43.36614" lon="5.77327">
        <ele>478.9</ele>
        <time>2015-03-02T09:17:56Z</time>
      </trkpt>
      <trkpt lat="43.36611" lon="5.77313">
        <ele>479.4</ele>
        <time>2015-03-02T09:18:04Z</time>
      </trkpt>
      <trkpt lat="43.3661" lon="5.77304">
        <ele>479.8</ele>
        <time>2015-03-02T09:18:09Z</time>
      </trkpt>
      <trkpt lat="43.36611" lon="5.77297">
        <ele>480.3</ele>
        <time>2015-03-02T09:18:15Z</time>
      </trkpt>
      <trkpt lat="43.36612" lon="5.7729">
        <ele>481.3</ele>
        <time>2015-03-02T09:18:23Z</time>
      </trkpt>
      <trkpt lat="43.36613" lon="5.77283">
        <ele>481.8</ele>
        <time>2015-03-02T09:18:30Z</time>
      </trkpt>
      <trkpt lat="43.36611" lon="5.77278">
        <ele>481.8</ele>
        <time>2015-03-02T09:18:38Z</time>
      </trkpt>
      <trkpt lat="43.36608" lon="5.77267">
        <ele>482.7</ele>
        <time>2015-03-02T09:18:45Z</time>
      </trkpt>
      <trkpt lat="43.36608" lon="5.77262">
        <ele>482.2</ele>
        <time>2015-03-02T09:18:52Z</time>
      </trkpt>
      <trkpt lat="43.36602" lon="5.77249">
        <ele>482.7</ele>
        <time>2015-03-02T09:19:00Z</time>
      </trkpt>
      <trkpt lat="43.366" lon="5.77243">
        <ele>483.2</ele>
        <time>2015-03-02T09:19:07Z</time>
      </trkpt>
      <trkpt lat="43.366" lon="5.77235">
        <ele>483.7</ele>
        <time>2015-03-02T09:19:14Z</time>
      </trkpt>
      <trkpt lat="43.36601" lon="5.77223">
        <ele>484.2</ele>
        <time>2015-03-02T09:19:20Z</time>
      </trkpt>
      <trkpt lat="43.36602" lon="5.77218">
        <ele>485.1</ele>
        <time>2015-03-02T09:19:26Z</time>
      </trkpt>
      <trkpt lat="43.36603" lon="5.77211">
        <ele>485.1</ele>
        <time>2015-03-02T09:19:32Z</time>
      </trkpt>
      <trkpt lat="43.36603" lon="5.77202">
        <ele>485.6</ele>
        <time>2015-03-02T09:19:40Z</time>
      </trkpt>
      <trkpt lat="43.36604" lon="5.77199">
        <ele>485.6</ele>
        <time>2015-03-02T09:19:42Z</time>
      </trkpt>
      <trkpt lat="43.36611" lon="5.77195">
        <ele>485.6</ele>
        <time>2015-03-02T09:19:49Z</time>
      </trkpt>
      <trkpt lat="43.36616" lon="5.7719">
        <ele>486.1</ele>
        <time>2015-03-02T09:19:57Z</time>
      </trkpt>
      <trkpt lat="43.36622" lon="5.77184">
        <ele>486.1</ele>
        <time>2015-03-02T09:20:04Z</time>
      </trkpt>
      <trkpt lat="43.36631" lon="5.77173">
        <ele>487</ele>
        <time>2015-03-02T09:20:14Z</time>
      </trkpt>
      <trkpt lat="43.36633" lon="5.77164">
        <ele>488</ele>
        <time>2015-03-02T09:20:21Z</time>
      </trkpt>
      <trkpt lat="43.36631" lon="5.77153">
        <ele>488.5</ele>
        <time>2015-03-02T09:20:30Z</time>
      </trkpt>
      <trkpt lat="43.3663" lon="5.77148">
        <ele>489</ele>
        <time>2015-03-02T09:20:38Z</time>
      </trkpt>
      <trkpt lat="43.36628" lon="5.77143">
        <ele>490.4</ele>
        <time>2015-03-02T09:20:45Z</time>
      </trkpt>
      <trkpt lat="43.36629" lon="5.77141">
        <ele>491.4</ele>
        <time>2015-03-02T09:20:50Z</time>
      </trkpt>
      <trkpt lat="43.3663" lon="5.77139">
        <ele>492.3</ele>
        <time>2015-03-02T09:20:59Z</time>
      </trkpt>
      <trkpt lat="43.36632" lon="5.77133">
        <ele>492.8</ele>
        <time>2015-03-02T09:21:05Z</time>
      </trkpt>
      <trkpt lat="43.3663" lon="5.77126">
        <ele>494.3</ele>
        <time>2015-03-02T09:21:13Z</time>
      </trkpt>
      <trkpt lat="43.36627" lon="5.7712">
        <ele>494.7</ele>
        <time>2015-03-02T09:21:20Z</time>
      </trkpt>
      <trkpt lat="43.36624" lon="5.77113">
        <ele>495.7</ele>
        <time>2015-03-02T09:21:28Z</time>
      </trkpt>
      <trkpt lat="43.36621" lon="5.77106">
        <ele>497.1</ele>
        <time>2015-03-02T09:21:37Z</time>
      </trkpt>
      <trkpt lat="43.36617" lon="5.77097">
        <ele>498.1</ele>
        <time>2015-03-02T09:21:46Z</time>
      </trkpt>
      <trkpt lat="43.36613" lon="5.77088">
        <ele>498.6</ele>
        <time>2015-03-02T09:21:54Z</time>
      </trkpt>
      <trkpt lat="43.36613" lon="5.77088">
        <ele>499.1</ele>
        <time>2015-03-02T09:21:55Z</time>
      </trkpt>
      <trkpt lat="43.3661" lon="5.77079">
        <ele>499.5</ele>
        <time>2015-03-02T09:22:03Z</time>
      </trkpt>
      <trkpt lat="43.36609" lon="5.77075">
        <ele>500.5</ele>
        <time>2015-03-02T09:22:07Z</time>
      </trkpt>
      <trkpt lat="43.36607" lon="5.77064">
        <ele>500.5</ele>
        <time>2015-03-02T09:22:15Z</time>
      </trkpt>
      <trkpt lat="43.36606" lon="5.77056">
        <ele>501.5</ele>
        <time>2015-03-02T09:22:22Z</time>
      </trkpt>
      <trkpt lat="43.36605" lon="5.7705">
        <ele>502</ele>
        <time>2015-03-02T09:22:27Z</time>
      </trkpt>
      <trkpt lat="43.36602" lon="5.77042">
        <ele>502.4</ele>
        <time>2015-03-02T09:22:36Z</time>
      </trkpt>
      <trkpt lat="43.36595" lon="5.77034">
        <ele>502.9</ele>
        <time>2015-03-02T09:22:46Z</time>
      </trkpt>
      <trkpt lat="43.36591" lon="5.77028">
        <ele>502.4</ele>
        <time>2015-03-02T09:22:55Z</time>
      </trkpt>
      <trkpt lat="43.3659" lon="5.77027">
        <ele>502.9</ele>
        <time>2015-03-02T09:23:05Z</time>
      </trkpt>
      <trkpt lat="43.36589" lon="5.77026">
        <ele>503.4</ele>
        <time>2015-03-02T09:23:19Z</time>
      </trkpt>
      <trkpt lat="43.36589" lon="5.77026">
        <ele>503.4</ele>
        <time>2015-03-02T09:23:31Z</time>
      </trkpt>
      <trkpt lat="43.36588" lon="5.77026">
        <ele>502.4</ele>
        <time>2015-03-02T09:23:48Z</time>
      </trkpt>
      <trkpt lat="43.36588" lon="5.77026">
        <ele>503.4</ele>
        <time>2015-03-02T09:24:04Z</time>
      </trkpt>
      <trkpt lat="43.36587" lon="5.77024">
        <ele>503.9</ele>
        <time>2015-03-02T09:24:17Z</time>
      </trkpt>
      <trkpt lat="43.36587" lon="5.77023">
        <ele>503.4</ele>
        <time>2015-03-02T09:24:30Z</time>
      </trkpt>
      <trkpt lat="43.36586" lon="5.77023">
        <ele>503.9</ele>
        <time>2015-03-02T09:24:49Z</time>
      </trkpt>
      <trkpt lat="43.36586" lon="5.77023">
        <ele>503.9</ele>
        <time>2015-03-02T09:25:04Z</time>
      </trkpt>
      <trkpt lat="43.36586" lon="5.77023">
        <ele>503.9</ele>
        <time>2015-03-02T09:25:18Z</time>
      </trkpt>
      <trkpt lat="43.36586" lon="5.77024">
        <ele>503.9</ele>
        <time>2015-03-02T09:25:30Z</time>
      </trkpt>
      <trkpt lat="43.36586" lon="5.77024">
        <ele>503.9</ele>
        <time>2015-03-02T09:25:50Z</time>
      </trkpt>
      <trkpt lat="43.36586" lon="5.77025">
        <ele>503.9</ele>
        <time>2015-03-02T09:26:05Z</time>
      </trkpt>
      <trkpt lat="43.36587" lon="5.77025">
        <ele>503.9</ele>
        <time>2015-03-02T09:26:18Z</time>
      </trkpt>
      <trkpt lat="43.36587" lon="5.77026">
        <ele>504.4</ele>
        <time>2015-03-02T09:26:33Z</time>
      </trkpt>
      <trkpt lat="43.36587" lon="5.77026">
        <ele>504.4</ele>
        <time>2015-03-02T09:26:50Z</time>
      </trkpt>
      <trkpt lat="43.36588" lon="5.77026">
        <ele>504.8</ele>
        <time>2015-03-02T09:27:03Z</time>
      </trkpt>
      <trkpt lat="43.36588" lon="5.77026">
        <ele>504.4</ele>
        <time>2015-03-02T09:27:15Z</time>
      </trkpt>
      <trkpt lat="43.36588" lon="5.77026">
        <ele>504.4</ele>
        <time>2015-03-02T09:27:25Z</time>
      </trkpt>
      <trkpt lat="43.36588" lon="5.77026">
        <ele>503.9</ele>
        <time>2015-03-02T09:27:38Z</time>
      </trkpt>
      <trkpt lat="43.36588" lon="5.77026">
        <ele>504.4</ele>
        <time>2015-03-02T09:27:51Z</time>
      </trkpt>
      <trkpt lat="43.36588" lon="5.77026">
        <ele>504.4</ele>
        <time>2015-03-02T09:28:02Z</time>
      </trkpt>
      <trkpt lat="43.36587" lon="5.77026">
        <ele>504.8</ele>
        <time>2015-03-02T09:28:12Z</time>
      </trkpt>
      <trkpt lat="43.36587" lon="5.77026">
        <ele>505.3</ele>
        <time>2015-03-02T09:28:26Z</time>
      </trkpt>
      <trkpt lat="43.36587" lon="5.77026">
        <ele>505.8</ele>
        <time>2015-03-02T09:28:46Z</time>
      </trkpt>
      <trkpt lat="43.36587" lon="5.77025">
        <ele>505.3</ele>
        <time>2015-03-02T09:29:01Z</time>
      </trkpt>
      <trkpt lat="43.36587" lon="5.77025">
        <ele>505.3</ele>
        <time>2015-03-02T09:29:10Z</time>
      </trkpt>
      <trkpt lat="43.36587" lon="5.77025">
        <ele>505.3</ele>
        <time>2015-03-02T09:29:20Z</time>
      </trkpt>
      <trkpt lat="43.36583" lon="5.77021">
        <ele>505.3</ele>
        <time>2015-03-02T09:29:28Z</time>
      </trkpt>
      <trkpt lat="43.36579" lon="5.77013">
        <ele>505.8</ele>
        <time>2015-03-02T09:29:37Z</time>
      </trkpt>
      <trkpt lat="43.36573" lon="5.77004">
        <ele>505.8</ele>
        <time>2015-03-02T09:29:45Z</time>
      </trkpt>
      <trkpt lat="43.3657" lon="5.76993">
        <ele>506.8</ele>
        <time>2015-03-02T09:29:52Z</time>
      </trkpt>
      <trkpt lat="43.36567" lon="5.76987">
        <ele>506.8</ele>
        <time>2015-03-02T09:30:00Z</time>
      </trkpt>
      <trkpt lat="43.36566" lon="5.76982">
        <ele>506.8</ele>
        <time>2015-03-02T09:30:06Z</time>
      </trkpt>
      <trkpt lat="43.36564" lon="5.76976">
        <ele>506.8</ele>
        <time>2015-03-02T09:30:12Z</time>
      </trkpt>
      <trkpt lat="43.36562" lon="5.76967">
        <ele>507.7</ele>
        <time>2015-03-02T09:30:19Z</time>
      </trkpt>
      <trkpt lat="43.36559" lon="5.76958">
        <ele>508.2</ele>
        <time>2015-03-02T09:30:25Z</time>
      </trkpt>
      <trkpt lat="43.36557" lon="5.7695">
        <ele>508.2</ele>
        <time>2015-03-02T09:30:33Z</time>
      </trkpt>
      <trkpt lat="43.36558" lon="5.76944">
        <ele>507.7</ele>
        <time>2015-03-02T09:30:40Z</time>
      </trkpt>
      <trkpt lat="43.36558" lon="5.76938">
        <ele>507.2</ele>
        <time>2015-03-02T09:30:48Z</time>
      </trkpt>
      <trkpt lat="43.36559" lon="5.76927">
        <ele>506.8</ele>
        <time>2015-03-02T09:30:55Z</time>
      </trkpt>
      <trkpt lat="43.36559" lon="5.76923">
        <ele>506.8</ele>
        <time>2015-03-02T09:31:03Z</time>
      </trkpt>
      <trkpt lat="43.36556" lon="5.76912">
        <ele>506.8</ele>
        <time>2015-03-02T09:31:10Z</time>
      </trkpt>
      <trkpt lat="43.36554" lon="5.76906">
        <ele>507.2</ele>
        <time>2015-03-02T09:31:15Z</time>
      </trkpt>
      <trkpt lat="43.36553" lon="5.76897">
        <ele>507.2</ele>
        <time>2015-03-02T09:31:21Z</time>
      </trkpt>
      <trkpt lat="43.36552" lon="5.7689">
        <ele>506.8</ele>
        <time>2015-03-02T09:31:27Z</time>
      </trkpt>
      <trkpt lat="43.3655" lon="5.76885">
        <ele>507.2</ele>
        <time>2015-03-02T09:31:30Z</time>
      </trkpt>
      <trkpt lat="43.36547" lon="5.76876">
        <ele>507.2</ele>
        <time>2015-03-02T09:31:39Z</time>
      </trkpt>
      <trkpt lat="43.36547" lon="5.76873">
        <ele>507.2</ele>
        <time>2015-03-02T09:31:45Z</time>
      </trkpt>
      <trkpt lat="43.36545" lon="5.76868">
        <ele>506.3</ele>
        <time>2015-03-02T09:31:52Z</time>
      </trkpt>
      <trkpt lat="43.3654" lon="5.76853">
        <ele>505.3</ele>
        <time>2015-03-02T09:32:00Z</time>
      </trkpt>
      <trkpt lat="43.36537" lon="5.76846">
        <ele>505.8</ele>
        <time>2015-03-02T09:32:06Z</time>
      </trkpt>
      <trkpt lat="43.36534" lon="5.76839">
        <ele>505.8</ele>
        <time>2015-03-02T09:32:13Z</time>
      </trkpt>
      <trkpt lat="43.36534" lon="5.76822">
        <ele>506.3</ele>
        <time>2015-03-02T09:32:22Z</time>
      </trkpt>
      <trkpt lat="43.36532" lon="5.76811">
        <ele>506.3</ele>
        <time>2015-03-02T09:32:30Z</time>
      </trkpt>
      <trkpt lat="43.36531" lon="5.76804">
        <ele>507.2</ele>
        <time>2015-03-02T09:32:36Z</time>
      </trkpt>
      <trkpt lat="43.36532" lon="5.76796">
        <ele>507.7</ele>
        <time>2015-03-02T09:32:44Z</time>
      </trkpt>
      <trkpt lat="43.3653" lon="5.76789">
        <ele>508.7</ele>
        <time>2015-03-02T09:32:52Z</time>
      </trkpt>
      <trkpt lat="43.36528" lon="5.76782">
        <ele>510.1</ele>
        <time>2015-03-02T09:33:00Z</time>
      </trkpt>
      <trkpt lat="43.36528" lon="5.76777">
        <ele>509.2</ele>
        <time>2015-03-02T09:33:06Z</time>
      </trkpt>
      <trkpt lat="43.36527" lon="5.76768">
        <ele>509.6</ele>
        <time>2015-03-02T09:33:13Z</time>
      </trkpt>
      <trkpt lat="43.36529" lon="5.76758">
        <ele>509.6</ele>
        <time>2015-03-02T09:33:21Z</time>
      </trkpt>
      <trkpt lat="43.3653" lon="5.76745">
        <ele>510.1</ele>
        <time>2015-03-02T09:33:29Z</time>
      </trkpt>
      <trkpt lat="43.3653" lon="5.76735">
        <ele>510.6</ele>
        <time>2015-03-02T09:33:37Z</time>
      </trkpt>
      <trkpt lat="43.36529" lon="5.76726">
        <ele>511.1</ele>
        <time>2015-03-02T09:33:44Z</time>
      </trkpt>
      <trkpt lat="43.36527" lon="5.76717">
        <ele>510.6</ele>
        <time>2015-03-02T09:33:52Z</time>
      </trkpt>
      <trkpt lat="43.36523" lon="5.76707">
        <ele>511.6</ele>
        <time>2015-03-02T09:34:00Z</time>
      </trkpt>
      <trkpt lat="43.3652" lon="5.76696">
        <ele>512</ele>
        <time>2015-03-02T09:34:09Z</time>
      </trkpt>
      <trkpt lat="43.36516" lon="5.76683">
        <ele>512.5</ele>
        <time>2015-03-02T09:34:18Z</time>
      </trkpt>
      <trkpt lat="43.36514" lon="5.76677">
        <ele>513.5</ele>
        <time>2015-03-02T09:34:26Z</time>
      </trkpt>
      <trkpt lat="43.36512" lon="5.76667">
        <ele>514</ele>
        <time>2015-03-02T09:34:34Z</time>
      </trkpt>
      <trkpt lat="43.36512" lon="5.76661">
        <ele>514.4</ele>
        <time>2015-03-02T09:34:41Z</time>
      </trkpt>
      <trkpt lat="43.3651" lon="5.76657">
        <ele>514.4</ele>
        <time>2015-03-02T09:34:49Z</time>
      </trkpt>
      <trkpt lat="43.36508" lon="5.76647">
        <ele>514</ele>
        <time>2015-03-02T09:34:56Z</time>
      </trkpt>
      <trkpt lat="43.36506" lon="5.76637">
        <ele>514.4</ele>
        <time>2015-03-02T09:35:03Z</time>
      </trkpt>
      <trkpt lat="43.36504" lon="5.76631">
        <ele>513.5</ele>
        <time>2015-03-02T09:35:09Z</time>
      </trkpt>
      <trkpt lat="43.36501" lon="5.76625">
        <ele>514</ele>
        <time>2015-03-02T09:35:16Z</time>
      </trkpt>
      <trkpt lat="43.36496" lon="5.7662">
        <ele>514</ele>
        <time>2015-03-02T09:35:22Z</time>
      </trkpt>
      <trkpt lat="43.36496" lon="5.76618">
        <ele>514</ele>
        <time>2015-03-02T09:35:28Z</time>
      </trkpt>
      <trkpt lat="43.3649" lon="5.76613">
        <ele>514.4</ele>
        <time>2015-03-02T09:35:36Z</time>
      </trkpt>
      <trkpt lat="43.36481" lon="5.76605">
        <ele>514</ele>
        <time>2015-03-02T09:35:45Z</time>
      </trkpt>
      <trkpt lat="43.36477" lon="5.76599">
        <ele>514</ele>
        <time>2015-03-02T09:35:51Z</time>
      </trkpt>
      <trkpt lat="43.36471" lon="5.76591">
        <ele>513.5</ele>
        <time>2015-03-02T09:35:59Z</time>
      </trkpt>
      <trkpt lat="43.36469" lon="5.76588">
        <ele>514</ele>
        <time>2015-03-02T09:36:07Z</time>
      </trkpt>
      <trkpt lat="43.36467" lon="5.76583">
        <ele>514</ele>
        <time>2015-03-02T09:36:14Z</time>
      </trkpt>
      <trkpt lat="43.36462" lon="5.76576">
        <ele>514</ele>
        <time>2015-03-02T09:36:23Z</time>
      </trkpt>
      <trkpt lat="43.36458" lon="5.7657">
        <ele>514</ele>
        <time>2015-03-02T09:36:31Z</time>
      </trkpt>
      <trkpt lat="43.36452" lon="5.7656">
        <ele>514</ele>
        <time>2015-03-02T09:36:40Z</time>
      </trkpt>
      <trkpt lat="43.36448" lon="5.76555">
        <ele>514</ele>
        <time>2015-03-02T09:36:47Z</time>
      </trkpt>
      <trkpt lat="43.36441" lon="5.76549">
        <ele>514.4</ele>
        <time>2015-03-02T09:36:54Z</time>
      </trkpt>
      <trkpt lat="43.36435" lon="5.76545">
        <ele>515.4</ele>
        <time>2015-03-02T09:37:02Z</time>
      </trkpt>
      <trkpt lat="43.36427" lon="5.76537">
        <ele>514.9</ele>
        <time>2015-03-02T09:37:11Z</time>
      </trkpt>
      <trkpt lat="43.36421" lon="5.76529">
        <ele>515.9</ele>
        <time>2015-03-02T09:37:20Z</time>
      </trkpt>
      <trkpt lat="43.36418" lon="5.76527">
        <ele>515.4</ele>
        <time>2015-03-02T09:37:26Z</time>
      </trkpt>
      <trkpt lat="43.36412" lon="5.76519">
        <ele>515.9</ele>
        <time>2015-03-02T09:37:34Z</time>
      </trkpt>
      <trkpt lat="43.3641" lon="5.76517">
        <ele>515.9</ele>
        <time>2015-03-02T09:37:36Z</time>
      </trkpt>
      <trkpt lat="43.36405" lon="5.76513">
        <ele>515.9</ele>
        <time>2015-03-02T09:37:43Z</time>
      </trkpt>
      <trkpt lat="43.36402" lon="5.76507">
        <ele>515.4</ele>
        <time>2015-03-02T09:37:50Z</time>
      </trkpt>
      <trkpt lat="43.36396" lon="5.76498">
        <ele>515.4</ele>
        <time>2015-03-02T09:37:58Z</time>
      </trkpt>
      <trkpt lat="43.36392" lon="5.7649">
        <ele>515.4</ele>
        <time>2015-03-02T09:38:04Z</time>
      </trkpt>
      <trkpt lat="43.36388" lon="5.76485">
        <ele>515.4</ele>
        <time>2015-03-02T09:38:08Z</time>
      </trkpt>
      <trkpt lat="43.36382" lon="5.76479">
        <ele>514.4</ele>
        <time>2015-03-02T09:38:14Z</time>
      </trkpt>
      <trkpt lat="43.36372" lon="5.76474">
        <ele>514</ele>
        <time>2015-03-02T09:38:24Z</time>
      </trkpt>
      <trkpt lat="43.36368" lon="5.76474">
        <ele>513.5</ele>
        <time>2015-03-02T09:38:32Z</time>
      </trkpt>
      <trkpt lat="43.36363" lon="5.76477">
        <ele>512.5</ele>
        <time>2015-03-02T09:38:40Z</time>
      </trkpt>
      <trkpt lat="43.36357" lon="5.76478">
        <ele>512</ele>
        <time>2015-03-02T09:38:48Z</time>
      </trkpt>
      <trkpt lat="43.3635" lon="5.76479">
        <ele>510.6</ele>
        <time>2015-03-02T09:38:58Z</time>
      </trkpt>
      <trkpt lat="43.36346" lon="5.76481">
        <ele>509.6</ele>
        <time>2015-03-02T09:39:06Z</time>
      </trkpt>
      <trkpt lat="43.3634" lon="5.76477">
        <ele>509.6</ele>
        <time>2015-03-02T09:39:13Z</time>
      </trkpt>
      <trkpt lat="43.36331" lon="5.76469">
        <ele>509.6</ele>
        <time>2015-03-02T09:39:20Z</time>
      </trkpt>
      <trkpt lat="43.36327" lon="5.76465">
        <ele>510.1</ele>
        <time>2015-03-02T09:39:28Z</time>
      </trkpt>
      <trkpt lat="43.36322" lon="5.76455">
        <ele>510.1</ele>
        <time>2015-03-02T09:39:34Z</time>
      </trkpt>
      <trkpt lat="43.3632" lon="5.76447">
        <ele>510.6</ele>
        <time>2015-03-02T09:39:41Z</time>
      </trkpt>
      <trkpt lat="43.36317" lon="5.76442">
        <ele>511.6</ele>
        <time>2015-03-02T09:39:48Z</time>
      </trkpt>
      <trkpt lat="43.36317" lon="5.76442">
        <ele>511.6</ele>
        <time>2015-03-02T09:39:50Z</time>
      </trkpt>
      <trkpt lat="43.36314" lon="5.76432">
        <ele>512</ele>
        <time>2015-03-02T09:39:57Z</time>
      </trkpt>
      <trkpt lat="43.3631" lon="5.76418">
        <ele>512</ele>
        <time>2015-03-02T09:40:05Z</time>
      </trkpt>
      <trkpt lat="43.36304" lon="5.76407">
        <ele>513</ele>
        <time>2015-03-02T09:40:15Z</time>
      </trkpt>
      <trkpt lat="43.36301" lon="5.764">
        <ele>513</ele>
        <time>2015-03-02T09:40:24Z</time>
      </trkpt>
      <trkpt lat="43.36301" lon="5.76397">
        <ele>512.5</ele>
        <time>2015-03-02T09:40:31Z</time>
      </trkpt>
      <trkpt lat="43.36298" lon="5.76388">
        <ele>512.5</ele>
        <time>2015-03-02T09:40:38Z</time>
      </trkpt>
      <trkpt lat="43.36298" lon="5.76387">
        <ele>512.5</ele>
        <time>2015-03-02T09:40:39Z</time>
      </trkpt>
      <trkpt lat="43.36294" lon="5.76379">
        <ele>512.5</ele>
        <time>2015-03-02T09:40:46Z</time>
      </trkpt>
      <trkpt lat="43.3629" lon="5.76371">
        <ele>512.5</ele>
        <time>2015-03-02T09:40:54Z</time>
      </trkpt>
      <trkpt lat="43.36287" lon="5.76366">
        <ele>513</ele>
        <time>2015-03-02T09:41:01Z</time>
      </trkpt>
      <trkpt lat="43.36284" lon="5.7636">
        <ele>512.5</ele>
        <time>2015-03-02T09:41:06Z</time>
      </trkpt>
      <trkpt lat="43.36281" lon="5.76354">
        <ele>512.5</ele>
        <time>2015-03-02T09:41:11Z</time>
      </trkpt>
      <trkpt lat="43.36274" lon="5.7634">
        <ele>512.5</ele>
        <time>2015-03-02T09:41:18Z</time>
      </trkpt>
      <trkpt lat="43.36271" lon="5.76333">
        <ele>512</ele>
        <time>2015-03-02T09:41:25Z</time>
      </trkpt>
      <trkpt lat="43.36268" lon="5.76325">
        <ele>512</ele>
        <time>2015-03-02T09:41:32Z</time>
      </trkpt>
      <trkpt lat="43.36266" lon="5.76318">
        <ele>512</ele>
        <time>2015-03-02T09:41:39Z</time>
      </trkpt>
      <trkpt lat="43.36263" lon="5.76309">
        <ele>512</ele>
        <time>2015-03-02T09:41:45Z</time>
      </trkpt>
      <trkpt lat="43.3626" lon="5.763">
        <ele>512</ele>
        <time>2015-03-02T09:41:51Z</time>
      </trkpt>
      <trkpt lat="43.36259" lon="5.76293">
        <ele>511.6</ele>
        <time>2015-03-02T09:41:59Z</time>
      </trkpt>
      <trkpt lat="43.36257" lon="5.76283">
        <ele>512</ele>
        <time>2015-03-02T09:42:06Z</time>
      </trkpt>
      <trkpt lat="43.36257" lon="5.76276">
        <ele>512</ele>
        <time>2015-03-02T09:42:13Z</time>
      </trkpt>
      <trkpt lat="43.36255" lon="5.76271">
        <ele>512</ele>
        <time>2015-03-02T09:42:19Z</time>
      </trkpt>
      <trkpt lat="43.36251" lon="5.7626">
        <ele>512</ele>
        <time>2015-03-02T09:42:26Z</time>
      </trkpt>
      <trkpt lat="43.36245" lon="5.76247">
        <ele>512.5</ele>
        <time>2015-03-02T09:42:35Z</time>
      </trkpt>
      <trkpt lat="43.36242" lon="5.7624">
        <ele>513</ele>
        <time>2015-03-02T09:42:42Z</time>
      </trkpt>
      <trkpt lat="43.36238" lon="5.76229">
        <ele>513</ele>
        <time>2015-03-02T09:42:50Z</time>
      </trkpt>
      <trkpt lat="43.36234" lon="5.76221">
        <ele>513.5</ele>
        <time>2015-03-02T09:42:57Z</time>
      </trkpt>
      <trkpt lat="43.36233" lon="5.76219">
        <ele>513.5</ele>
        <time>2015-03-02T09:43:05Z</time>
      </trkpt>
      <trkpt lat="43.36231" lon="5.76217">
        <ele>513.5</ele>
        <time>2015-03-02T09:43:17Z</time>
      </trkpt>
      <trkpt lat="43.36231" lon="5.76214">
        <ele>513.5</ele>
        <time>2015-03-02T09:43:31Z</time>
      </trkpt>
      <trkpt lat="43.3623" lon="5.76214">
        <ele>513.5</ele>
        <time>2015-03-02T09:43:42Z</time>
      </trkpt>
      <trkpt lat="43.3623" lon="5.76213">
        <ele>513.5</ele>
        <time>2015-03-02T09:43:54Z</time>
      </trkpt>
      <trkpt lat="43.36229" lon="5.76212">
        <ele>514</ele>
        <time>2015-03-02T09:44:11Z</time>
      </trkpt>
      <trkpt lat="43.36229" lon="5.76212">
        <ele>514.4</ele>
        <time>2015-03-02T09:44:26Z</time>
      </trkpt>
      <trkpt lat="43.36229" lon="5.76212">
        <ele>514</ele>
        <time>2015-03-02T09:44:38Z</time>
      </trkpt>
      <trkpt lat="43.36229" lon="5.76212">
        <ele>514</ele>
        <time>2015-03-02T09:44:51Z</time>
      </trkpt>
      <trkpt lat="43.36229" lon="5.76212">
        <ele>514.4</ele>
        <time>2015-03-02T09:45:02Z</time>
      </trkpt>
      <trkpt lat="43.36229" lon="5.76211">
        <ele>514</ele>
        <time>2015-03-02T09:45:13Z</time>
      </trkpt>
      <trkpt lat="43.36229" lon="5.76211">
        <ele>514</ele>
        <time>2015-03-02T09:45:25Z</time>
      </trkpt>
      <trkpt lat="43.36229" lon="5.7621">
        <ele>514</ele>
        <time>2015-03-02T09:45:40Z</time>
      </trkpt>
      <trkpt lat="43.36229" lon="5.76209">
        <ele>514</ele>
        <time>2015-03-02T09:45:51Z</time>
      </trkpt>
      <trkpt lat="43.36229" lon="5.76209">
        <ele>514.4</ele>
        <time>2015-03-02T09:46:06Z</time>
      </trkpt>
      <trkpt lat="43.36229" lon="5.7621">
        <ele>514</ele>
        <time>2015-03-02T09:46:19Z</time>
      </trkpt>
      <trkpt lat="43.36229" lon="5.7621">
        <ele>514</ele>
        <time>2015-03-02T09:46:30Z</time>
      </trkpt>
      <trkpt lat="43.36229" lon="5.7621">
        <ele>513.5</ele>
        <time>2015-03-02T09:46:49Z</time>
      </trkpt>
      <trkpt lat="43.36229" lon="5.7621">
        <ele>514</ele>
        <time>2015-03-02T09:47:06Z</time>
      </trkpt>
      <trkpt lat="43.36229" lon="5.7621">
        <ele>513.5</ele>
        <time>2015-03-02T09:47:23Z</time>
      </trkpt>
      <trkpt lat="43.36229" lon="5.76209">
        <ele>514</ele>
        <time>2015-03-02T09:47:39Z</time>
      </trkpt>
      <trkpt lat="43.36229" lon="5.76209">
        <ele>514</ele>
        <time>2015-03-02T09:47:51Z</time>
      </trkpt>
      <trkpt lat="43.36229" lon="5.76209">
        <ele>514</ele>
        <time>2015-03-02T09:48:06Z</time>
      </trkpt>
      <trkpt lat="43.36229" lon="5.76209">
        <ele>514</ele>
        <time>2015-03-02T09:48:18Z</time>
      </trkpt>
      <trkpt lat="43.36229" lon="5.76209">
        <ele>514</ele>
        <time>2015-03-02T09:48:30Z</time>
      </trkpt>
      <trkpt lat="43.36229" lon="5.76209">
        <ele>514</ele>
        <time>2015-03-02T09:48:44Z</time>
      </trkpt>
      <trkpt lat="43.36229" lon="5.76209">
        <ele>514.4</ele>
        <time>2015-03-02T09:49:01Z</time>
      </trkpt>
      <trkpt lat="43.36229" lon="5.76209">
        <ele>514</ele>
        <time>2015-03-02T09:49:17Z</time>
      </trkpt>
      <trkpt lat="43.36229" lon="5.7621">
        <ele>514</ele>
        <time>2015-03-02T09:49:30Z</time>
      </trkpt>
      <trkpt lat="43.36229" lon="5.76209">
        <ele>514.4</ele>
        <time>2015-03-02T09:49:43Z</time>
      </trkpt>
      <trkpt lat="43.36228" lon="5.76209">
        <ele>514</ele>
        <time>2015-03-02T09:49:51Z</time>
      </trkpt>
      <trkpt lat="43.36225" lon="5.76203">
        <ele>514</ele>
        <time>2015-03-02T09:49:57Z</time>
      </trkpt>
      <trkpt lat="43.36221" lon="5.76191">
        <ele>513.5</ele>
        <time>2015-03-02T09:50:06Z</time>
      </trkpt>
      <trkpt lat="43.36218" lon="5.76184">
        <ele>513</ele>
        <time>2015-03-02T09:50:13Z</time>
      </trkpt>
      <trkpt lat="43.36215" lon="5.76175">
        <ele>512.5</ele>
        <time>2015-03-02T09:50:20Z</time>
      </trkpt>
      <trkpt lat="43.36212" lon="5.7617">
        <ele>512.5</ele>
        <time>2015-03-02T09:50:24Z</time>
      </trkpt>
      <trkpt lat="43.36208" lon="5.76158">
        <ele>511.1</ele>
        <time>2015-03-02T09:50:32Z</time>
      </trkpt>
      <trkpt lat="43.36204" lon="5.7615">
        <ele>510.6</ele>
        <time>2015-03-02T09:50:40Z</time>
      </trkpt>
      <trkpt lat="43.36199" lon="5.76143">
        <ele>509.6</ele>
        <time>2015-03-02T09:50:51Z</time>
      </trkpt>
      <trkpt lat="43.36193" lon="5.76137">
        <ele>508.7</ele>
        <time>2015-03-02T09:50:58Z</time>
      </trkpt>
      <trkpt lat="43.36186" lon="5.76128">
        <ele>508.2</ele>
        <time>2015-03-02T09:51:06Z</time>
      </trkpt>
      <trkpt lat="43.36181" lon="5.76117">
        <ele>507.7</ele>
        <time>2015-03-02T09:51:15Z</time>
      </trkpt>
      <trkpt lat="43.36177" lon="5.76109">
        <ele>507.2</ele>
        <time>2015-03-02T09:51:23Z</time>
      </trkpt>
      <trkpt lat="43.36172" lon="5.761">
        <ele>506.8</ele>
        <time>2015-03-02T09:51:31Z</time>
      </trkpt>
      <trkpt lat="43.36167" lon="5.76092">
        <ele>505.3</ele>
        <time>2015-03-02T09:51:39Z</time>
      </trkpt>
      <trkpt lat="43.36162" lon="5.76082">
        <ele>504.8</ele>
        <time>2015-03-02T09:51:47Z</time>
      </trkpt>
      <trkpt lat="43.36159" lon="5.76073">
        <ele>504.4</ele>
        <time>2015-03-02T09:51:56Z</time>
      </trkpt>
      <trkpt lat="43.36155" lon="5.7606">
        <ele>503.9</ele>
        <time>2015-03-02T09:52:03Z</time>
      </trkpt>
      <trkpt lat="43.36153" lon="5.76051">
        <ele>503.4</ele>
        <time>2015-03-02T09:52:10Z</time>
      </trkpt>
      <trkpt lat="43.36151" lon="5.76044">
        <ele>503.9</ele>
        <time>2015-03-02T09:52:16Z</time>
      </trkpt>
      <trkpt lat="43.36149" lon="5.76034">
        <ele>503.4</ele>
        <time>2015-03-02T09:52:24Z</time>
      </trkpt>
      <trkpt lat="43.36145" lon="5.76026">
        <ele>502.9</ele>
        <time>2015-03-02T09:52:30Z</time>
      </trkpt>
      <trkpt lat="43.36137" lon="5.76024">
        <ele>502.4</ele>
        <time>2015-03-02T09:52:37Z</time>
      </trkpt>
      <trkpt lat="43.36135" lon="5.76023">
        <ele>502</ele>
        <time>2015-03-02T09:52:40Z</time>
      </trkpt>
      <trkpt lat="43.36131" lon="5.76022">
        <ele>501.5</ele>
        <time>2015-03-02T09:52:43Z</time>
      </trkpt>
      <trkpt lat="43.36124" lon="5.76018">
        <ele>500.5</ele>
        <time>2015-03-02T09:52:51Z</time>
      </trkpt>
      <trkpt lat="43.36116" lon="5.76016">
        <ele>500</ele>
        <time>2015-03-02T09:52:59Z</time>
      </trkpt>
      <trkpt lat="43.3611" lon="5.76016">
        <ele>499.1</ele>
        <time>2015-03-02T09:53:07Z</time>
      </trkpt>
      <trkpt lat="43.36108" lon="5.76016">
        <ele>498.6</ele>
        <time>2015-03-02T09:53:09Z</time>
      </trkpt>
      <trkpt lat="43.36099" lon="5.76015">
        <ele>498.6</ele>
        <time>2015-03-02T09:53:18Z</time>
      </trkpt>
      <trkpt lat="43.36094" lon="5.76017">
        <ele>498.1</ele>
        <time>2015-03-02T09:53:24Z</time>
      </trkpt>
      <trkpt lat="43.36087" lon="5.76017">
        <ele>497.6</ele>
        <time>2015-03-02T09:53:31Z</time>
      </trkpt>
      <trkpt lat="43.36083" lon="5.76018">
        <ele>497.1</ele>
        <time>2015-03-02T09:53:38Z</time>
      </trkpt>
      <trkpt lat="43.36075" lon="5.76017">
        <ele>496.2</ele>
        <time>2015-03-02T09:53:46Z</time>
      </trkpt>
      <trkpt lat="43.36068" lon="5.76014">
        <ele>495.7</ele>
        <time>2015-03-02T09:53:53Z</time>
      </trkpt>
      <trkpt lat="43.36061" lon="5.76008">
        <ele>494.7</ele>
        <time>2015-03-02T09:54:00Z</time>
      </trkpt>
      <trkpt lat="43.3605" lon="5.75995">
        <ele>492.8</ele>
        <time>2015-03-02T09:54:10Z</time>
      </trkpt>
      <trkpt lat="43.36047" lon="5.75988">
        <ele>491.4</ele>
        <time>2015-03-02T09:54:19Z</time>
      </trkpt>
      <trkpt lat="43.36045" lon="5.7598">
        <ele>490.9</ele>
        <time>2015-03-02T09:54:26Z</time>
      </trkpt>
      <trkpt lat="43.36043" lon="5.75973">
        <ele>490.4</ele>
        <time>2015-03-02T09:54:33Z</time>
      </trkpt>
      <trkpt lat="43.36042" lon="5.75968">
        <ele>489.5</ele>
        <time>2015-03-02T09:54:40Z</time>
      </trkpt>
      <trkpt lat="43.3604" lon="5.7596">
        <ele>489</ele>
        <time>2015-03-02T09:54:44Z</time>
      </trkpt>
      <trkpt lat="43.36038" lon="5.75946">
        <ele>487.5</ele>
        <time>2015-03-02T09:54:52Z</time>
      </trkpt>
      <trkpt lat="43.36037" lon="5.75941">
        <ele>486.6</ele>
        <time>2015-03-02T09:54:59Z</time>
      </trkpt>
      <trkpt lat="43.36034" lon="5.75935">
        <ele>485.6</ele>
        <time>2015-03-02T09:55:06Z</time>
      </trkpt>
      <trkpt lat="43.36031" lon="5.75928">
        <ele>484.6</ele>
        <time>2015-03-02T09:55:13Z</time>
      </trkpt>
      <trkpt lat="43.3603" lon="5.75923">
        <ele>483.2</ele>
        <time>2015-03-02T09:55:21Z</time>
      </trkpt>
      <trkpt lat="43.36026" lon="5.75909">
        <ele>481.8</ele>
        <time>2015-03-02T09:55:29Z</time>
      </trkpt>
      <trkpt lat="43.36025" lon="5.75902">
        <ele>479.8</ele>
        <time>2015-03-02T09:55:37Z</time>
      </trkpt>
      <trkpt lat="43.36023" lon="5.75895">
        <ele>478.9</ele>
        <time>2015-03-02T09:55:42Z</time>
      </trkpt>
      <trkpt lat="43.36021" lon="5.7588">
        <ele>477</ele>
        <time>2015-03-02T09:55:50Z</time>
      </trkpt>
      <trkpt lat="43.3602" lon="5.75868">
        <ele>475.5</ele>
        <time>2015-03-02T09:55:58Z</time>
      </trkpt>
      <trkpt lat="43.36019" lon="5.75863">
        <ele>474.5</ele>
        <time>2015-03-02T09:56:04Z</time>
      </trkpt>
      <trkpt lat="43.36017" lon="5.75856">
        <ele>472.6</ele>
        <time>2015-03-02T09:56:14Z</time>
      </trkpt>
      <trkpt lat="43.36013" lon="5.75843">
        <ele>471.2</ele>
        <time>2015-03-02T09:56:22Z</time>
      </trkpt>
      <trkpt lat="43.36012" lon="5.75833">
        <ele>469.7</ele>
        <time>2015-03-02T09:56:30Z</time>
      </trkpt>
      <trkpt lat="43.36011" lon="5.75829">
        <ele>469.3</ele>
        <time>2015-03-02T09:56:37Z</time>
      </trkpt>
      <trkpt lat="43.3601" lon="5.75818">
        <ele>467.8</ele>
        <time>2015-03-02T09:56:44Z</time>
      </trkpt>
      <trkpt lat="43.36007" lon="5.75805">
        <ele>466.9</ele>
        <time>2015-03-02T09:56:51Z</time>
      </trkpt>
      <trkpt lat="43.36003" lon="5.75798">
        <ele>465.4</ele>
        <time>2015-03-02T09:57:00Z</time>
      </trkpt>
      <trkpt lat="43.35997" lon="5.75793">
        <ele>464.5</ele>
        <time>2015-03-02T09:57:08Z</time>
      </trkpt>
      <trkpt lat="43.35992" lon="5.75786">
        <ele>463</ele>
        <time>2015-03-02T09:57:16Z</time>
      </trkpt>
      <trkpt lat="43.35989" lon="5.75776">
        <ele>462</ele>
        <time>2015-03-02T09:57:24Z</time>
      </trkpt>
      <trkpt lat="43.35988" lon="5.75768">
        <ele>461.6</ele>
        <time>2015-03-02T09:57:32Z</time>
      </trkpt>
      <trkpt lat="43.35986" lon="5.75765">
        <ele>460.6</ele>
        <time>2015-03-02T09:57:39Z</time>
      </trkpt>
      <trkpt lat="43.35985" lon="5.75757">
        <ele>459.6</ele>
        <time>2015-03-02T09:57:46Z</time>
      </trkpt>
      <trkpt lat="43.35984" lon="5.75754">
        <ele>459.2</ele>
        <time>2015-03-02T09:57:49Z</time>
      </trkpt>
      <trkpt lat="43.35983" lon="5.75746">
        <ele>458.2</ele>
        <time>2015-03-02T09:57:57Z</time>
      </trkpt>
      <trkpt lat="43.3598" lon="5.75735">
        <ele>457.2</ele>
        <time>2015-03-02T09:58:04Z</time>
      </trkpt>
      <trkpt lat="43.35977" lon="5.75726">
        <ele>456.3</ele>
        <time>2015-03-02T09:58:12Z</time>
      </trkpt>
      <trkpt lat="43.35976" lon="5.75716">
        <ele>454.8</ele>
        <time>2015-03-02T09:58:22Z</time>
      </trkpt>
      <trkpt lat="43.35974" lon="5.75711">
        <ele>453.9</ele>
        <time>2015-03-02T09:58:32Z</time>
      </trkpt>
      <trkpt lat="43.35974" lon="5.75708">
        <ele>453.9</ele>
        <time>2015-03-02T09:58:43Z</time>
      </trkpt>
      <trkpt lat="43.35974" lon="5.757">
        <ele>452.4</ele>
        <time>2015-03-02T09:58:51Z</time>
      </trkpt>
      <trkpt lat="43.35973" lon="5.75692">
        <ele>451.5</ele>
        <time>2015-03-02T09:58:58Z</time>
      </trkpt>
      <trkpt lat="43.3597" lon="5.75683">
        <ele>450</ele>
        <time>2015-03-02T09:59:07Z</time>
      </trkpt>
      <trkpt lat="43.3597" lon="5.75675">
        <ele>449.1</ele>
        <time>2015-03-02T09:59:14Z</time>
      </trkpt>
      <trkpt lat="43.35965" lon="5.75665">
        <ele>448.1</ele>
        <time>2015-03-02T09:59:22Z</time>
      </trkpt>
      <trkpt lat="43.35962" lon="5.75658">
        <ele>446.7</ele>
        <time>2015-03-02T09:59:29Z</time>
      </trkpt>
      <trkpt lat="43.35961" lon="5.75657">
        <ele>446.7</ele>
        <time>2015-03-02T09:59:30Z</time>
      </trkpt>
      <trkpt lat="43.35955" lon="5.75648">
        <ele>445.7</ele>
        <time>2015-03-02T09:59:38Z</time>
      </trkpt>
      <trkpt lat="43.35953" lon="5.75641">
        <ele>443.3</ele>
        <time>2015-03-02T09:59:46Z</time>
      </trkpt>
      <trkpt lat="43.35951" lon="5.75631">
        <ele>442.3</ele>
        <time>2015-03-02T09:59:54Z</time>
      </trkpt>
      <trkpt lat="43.35948" lon="5.75622">
        <ele>440.9</ele>
        <time>2015-03-02T10:00:03Z</time>
      </trkpt>
      <trkpt lat="43.35946" lon="5.7561">
        <ele>439.5</ele>
        <time>2015-03-02T10:00:11Z</time>
      </trkpt>
      <trkpt lat="43.35943" lon="5.75603">
        <ele>439</ele>
        <time>2015-03-02T10:00:18Z</time>
      </trkpt>
      <trkpt lat="43.35942" lon="5.75596">
        <ele>438</ele>
        <time>2015-03-02T10:00:25Z</time>
      </trkpt>
      <trkpt lat="43.35938" lon="5.75588">
        <ele>437.1</ele>
        <time>2015-03-02T10:00:32Z</time>
      </trkpt>
      <trkpt lat="43.35935" lon="5.75581">
        <ele>437.1</ele>
        <time>2015-03-02T10:00:39Z</time>
      </trkpt>
      <trkpt lat="43.35935" lon="5.75581">
        <ele>437.1</ele>
        <time>2015-03-02T10:00:40Z</time>
      </trkpt>
      <trkpt lat="43.35933" lon="5.75578">
        <ele>437.1</ele>
        <time>2015-03-02T10:00:42Z</time>
      </trkpt>
      <trkpt lat="43.35928" lon="5.75574">
        <ele>436.1</ele>
        <time>2015-03-02T10:00:49Z</time>
      </trkpt>
      <trkpt lat="43.35927" lon="5.75564">
        <ele>434.6</ele>
        <time>2015-03-02T10:00:58Z</time>
      </trkpt>
      <trkpt lat="43.35926" lon="5.75551">
        <ele>433.7</ele>
        <time>2015-03-02T10:01:05Z</time>
      </trkpt>
      <trkpt lat="43.35925" lon="5.75549">
        <ele>432.2</ele>
        <time>2015-03-02T10:01:14Z</time>
      </trkpt>
      <trkpt lat="43.35924" lon="5.75542">
        <ele>431.3</ele>
        <time>2015-03-02T10:01:22Z</time>
      </trkpt>
      <trkpt lat="43.35923" lon="5.75532">
        <ele>430.3</ele>
        <time>2015-03-02T10:01:29Z</time>
      </trkpt>
      <trkpt lat="43.35923" lon="5.7552">
        <ele>429.9</ele>
        <time>2015-03-02T10:01:37Z</time>
      </trkpt>
      <trkpt lat="43.35922" lon="5.75513">
        <ele>428.9</ele>
        <time>2015-03-02T10:01:45Z</time>
      </trkpt>
      <trkpt lat="43.35921" lon="5.75504">
        <ele>427.9</ele>
        <time>2015-03-02T10:01:54Z</time>
      </trkpt>
      <trkpt lat="43.35922" lon="5.75496">
        <ele>426.5</ele>
        <time>2015-03-02T10:02:02Z</time>
      </trkpt>
      <trkpt lat="43.35923" lon="5.75496">
        <ele>426.5</ele>
        <time>2015-03-02T10:02:09Z</time>
      </trkpt>
      <trkpt lat="43.35924" lon="5.75492">
        <ele>426</ele>
        <time>2015-03-02T10:02:16Z</time>
      </trkpt>
      <trkpt lat="43.35928" lon="5.75486">
        <ele>424.6</ele>
        <time>2015-03-02T10:02:24Z</time>
      </trkpt>
      <trkpt lat="43.35929" lon="5.75477">
        <ele>423.1</ele>
        <time>2015-03-02T10:02:33Z</time>
      </trkpt>
      <trkpt lat="43.35931" lon="5.7547">
        <ele>423.6</ele>
        <time>2015-03-02T10:02:38Z</time>
      </trkpt>
      <trkpt lat="43.35936" lon="5.75464">
        <ele>423.1</ele>
        <time>2015-03-02T10:02:46Z</time>
      </trkpt>
      <trkpt lat="43.35941" lon="5.75453">
        <ele>422.2</ele>
        <time>2015-03-02T10:02:55Z</time>
      </trkpt>
      <trkpt lat="43.35942" lon="5.75452">
        <ele>422.2</ele>
        <time>2015-03-02T10:02:56Z</time>
      </trkpt>
      <trkpt lat="43.35947" lon="5.75442">
        <ele>422.2</ele>
        <time>2015-03-02T10:03:04Z</time>
      </trkpt>
      <trkpt lat="43.35947" lon="5.75441">
        <ele>422.2</ele>
        <time>2015-03-02T10:03:05Z</time>
      </trkpt>
      <trkpt lat="43.35952" lon="5.7543">
        <ele>421.7</ele>
        <time>2015-03-02T10:03:13Z</time>
      </trkpt>
      <trkpt lat="43.35954" lon="5.75425">
        <ele>421.7</ele>
        <time>2015-03-02T10:03:18Z</time>
      </trkpt>
      <trkpt lat="43.35955" lon="5.75418">
        <ele>421.2</ele>
        <time>2015-03-02T10:03:25Z</time>
      </trkpt>
      <trkpt lat="43.35954" lon="5.75408">
        <ele>420.2</ele>
        <time>2015-03-02T10:03:33Z</time>
      </trkpt>
      <trkpt lat="43.35954" lon="5.75402">
        <ele>419.8</ele>
        <time>2015-03-02T10:03:39Z</time>
      </trkpt>
      <trkpt lat="43.35954" lon="5.75395">
        <ele>419.3</ele>
        <time>2015-03-02T10:03:47Z</time>
      </trkpt>
      <trkpt lat="43.35954" lon="5.75384">
        <ele>418.8</ele>
        <time>2015-03-02T10:03:56Z</time>
      </trkpt>
      <trkpt lat="43.35951" lon="5.75376">
        <ele>417.4</ele>
        <time>2015-03-02T10:04:05Z</time>
      </trkpt>
      <trkpt lat="43.35948" lon="5.75369">
        <ele>416.9</ele>
        <time>2015-03-02T10:04:11Z</time>
      </trkpt>
      <trkpt lat="43.35943" lon="5.75362">
        <ele>415.9</ele>
        <time>2015-03-02T10:04:19Z</time>
      </trkpt>
      <trkpt lat="43.35942" lon="5.7536">
        <ele>415</ele>
        <time>2015-03-02T10:04:27Z</time>
      </trkpt>
      <trkpt lat="43.35941" lon="5.75358">
        <ele>414</ele>
        <time>2015-03-02T10:04:34Z</time>
      </trkpt>
      <trkpt lat="43.35939" lon="5.75349">
        <ele>413</ele>
        <time>2015-03-02T10:04:41Z</time>
      </trkpt>
      <trkpt lat="43.35933" lon="5.75335">
        <ele>412.1</ele>
        <time>2015-03-02T10:04:50Z</time>
      </trkpt>
      <trkpt lat="43.35932" lon="5.75325">
        <ele>411.6</ele>
        <time>2015-03-02T10:04:58Z</time>
      </trkpt>
      <trkpt lat="43.35931" lon="5.75313">
        <ele>411.6</ele>
        <time>2015-03-02T10:05:06Z</time>
      </trkpt>
      <trkpt lat="43.3593" lon="5.75303">
        <ele>410.6</ele>
        <time>2015-03-02T10:05:14Z</time>
      </trkpt>
      <trkpt lat="43.35932" lon="5.75295">
        <ele>410.1</ele>
        <time>2015-03-02T10:05:21Z</time>
      </trkpt>
      <trkpt lat="43.35935" lon="5.75289">
        <ele>409.7</ele>
        <time>2015-03-02T10:05:28Z</time>
      </trkpt>
      <trkpt lat="43.35937" lon="5.75279">
        <ele>409.2</ele>
        <time>2015-03-02T10:05:36Z</time>
      </trkpt>
      <trkpt lat="43.35938" lon="5.75268">
        <ele>408.2</ele>
        <time>2015-03-02T10:05:44Z</time>
      </trkpt>
      <trkpt lat="43.35945" lon="5.75266">
        <ele>407.7</ele>
        <time>2015-03-02T10:05:52Z</time>
      </trkpt>
      <trkpt lat="43.35946" lon="5.75264">
        <ele>407.3</ele>
        <time>2015-03-02T10:05:53Z</time>
      </trkpt>
      <trkpt lat="43.35953" lon="5.75259">
        <ele>407.3</ele>
        <time>2015-03-02T10:06:02Z</time>
      </trkpt>
      <trkpt lat="43.35955" lon="5.75257">
        <ele>407.3</ele>
        <time>2015-03-02T10:06:04Z</time>
      </trkpt>
      <trkpt lat="43.35962" lon="5.75252">
        <ele>406.8</ele>
        <time>2015-03-02T10:06:11Z</time>
      </trkpt>
      <trkpt lat="43.35968" lon="5.75243">
        <ele>406.8</ele>
        <time>2015-03-02T10:06:21Z</time>
      </trkpt>
      <trkpt lat="43.35971" lon="5.75235">
        <ele>406.3</ele>
        <time>2015-03-02T10:06:29Z</time>
      </trkpt>
      <trkpt lat="43.35973" lon="5.7523">
        <ele>405.8</ele>
        <time>2015-03-02T10:06:36Z</time>
      </trkpt>
      <trkpt lat="43.35978" lon="5.75224">
        <ele>404.9</ele>
        <time>2015-03-02T10:06:44Z</time>
      </trkpt>
      <trkpt lat="43.35984" lon="5.75217">
        <ele>403.4</ele>
        <time>2015-03-02T10:06:54Z</time>
      </trkpt>
      <trkpt lat="43.35988" lon="5.75211">
        <ele>402</ele>
        <time>2015-03-02T10:07:02Z</time>
      </trkpt>
      <trkpt lat="43.35986" lon="5.75206">
        <ele>401.5</ele>
        <time>2015-03-02T10:07:08Z</time>
      </trkpt>
      <trkpt lat="43.35984" lon="5.75201">
        <ele>400.5</ele>
        <time>2015-03-02T10:07:16Z</time>
      </trkpt>
      <trkpt lat="43.35983" lon="5.752">
        <ele>400.5</ele>
        <time>2015-03-02T10:07:27Z</time>
      </trkpt>
      <trkpt lat="43.35983" lon="5.75198">
        <ele>400.5</ele>
        <time>2015-03-02T10:07:36Z</time>
      </trkpt>
      <trkpt lat="43.35981" lon="5.75194">
        <ele>400</ele>
        <time>2015-03-02T10:07:45Z</time>
      </trkpt>
      <trkpt lat="43.35979" lon="5.75192">
        <ele>400</ele>
        <time>2015-03-02T10:08:05Z</time>
      </trkpt>
      <trkpt lat="43.35979" lon="5.75194">
        <ele>400.5</ele>
        <time>2015-03-02T10:08:18Z</time>
      </trkpt>
      <trkpt lat="43.35979" lon="5.75195">
        <ele>400</ele>
        <time>2015-03-02T10:08:34Z</time>
      </trkpt>
      <trkpt lat="43.35977" lon="5.75195">
        <ele>400</ele>
        <time>2015-03-02T10:08:43Z</time>
      </trkpt>
      <trkpt lat="43.35976" lon="5.75194">
        <ele>400</ele>
        <time>2015-03-02T10:08:45Z</time>
      </trkpt>
      <trkpt lat="43.35973" lon="5.75192">
        <ele>400</ele>
        <time>2015-03-02T10:08:48Z</time>
      </trkpt>
      <trkpt lat="43.35969" lon="5.75185">
        <ele>400.5</ele>
        <time>2015-03-02T10:08:54Z</time>
      </trkpt>
      <trkpt lat="43.35968" lon="5.75184">
        <ele>400.5</ele>
        <time>2015-03-02T10:08:55Z</time>
      </trkpt>
      <trkpt lat="43.3596" lon="5.75174">
        <ele>401.5</ele>
        <time>2015-03-02T10:09:04Z</time>
      </trkpt>
      <trkpt lat="43.3596" lon="5.75173">
        <ele>401.5</ele>
        <time>2015-03-02T10:09:14Z</time>
      </trkpt>
      <trkpt lat="43.3596" lon="5.75176">
        <ele>402.5</ele>
        <time>2015-03-02T10:09:25Z</time>
      </trkpt>
      <trkpt lat="43.3596" lon="5.75177">
        <ele>402.5</ele>
        <time>2015-03-02T10:09:31Z</time>
      </trkpt>
      <trkpt lat="43.35956" lon="5.75177">
        <ele>402</ele>
        <time>2015-03-02T10:09:40Z</time>
      </trkpt>
      <trkpt lat="43.35949" lon="5.75176">
        <ele>403.4</ele>
        <time>2015-03-02T10:09:48Z</time>
      </trkpt>
      <trkpt lat="43.35941" lon="5.75174">
        <ele>404.4</ele>
        <time>2015-03-02T10:09:56Z</time>
      </trkpt>
      <trkpt lat="43.35935" lon="5.7517">
        <ele>404.9</ele>
        <time>2015-03-02T10:10:03Z</time>
      </trkpt>
      <trkpt lat="43.35933" lon="5.75168">
        <ele>404.9</ele>
        <time>2015-03-02T10:10:06Z</time>
      </trkpt>
      <trkpt lat="43.35931" lon="5.75167">
        <ele>405.3</ele>
        <time>2015-03-02T10:10:08Z</time>
      </trkpt>
      <trkpt lat="43.35924" lon="5.7516">
        <ele>405.8</ele>
        <time>2015-03-02T10:10:17Z</time>
      </trkpt>
      <trkpt lat="43.35918" lon="5.75152">
        <ele>406.3</ele>
        <time>2015-03-02T10:10:26Z</time>
      </trkpt>
      <trkpt lat="43.35911" lon="5.75146">
        <ele>406.8</ele>
        <time>2015-03-02T10:10:33Z</time>
      </trkpt>
      <trkpt lat="43.35903" lon="5.75139">
        <ele>407.3</ele>
        <time>2015-03-02T10:10:41Z</time>
      </trkpt>
      <trkpt lat="43.35897" lon="5.75134">
        <ele>407.7</ele>
        <time>2015-03-02T10:10:47Z</time>
      </trkpt>
      <trkpt lat="43.35891" lon="5.75129">
        <ele>407.7</ele>
        <time>2015-03-02T10:10:53Z</time>
      </trkpt>
      <trkpt lat="43.35886" lon="5.75125">
        <ele>408.7</ele>
        <time>2015-03-02T10:11:00Z</time>
      </trkpt>
      <trkpt lat="43.3588" lon="5.75119">
        <ele>409.2</ele>
        <time>2015-03-02T10:11:08Z</time>
      </trkpt>
      <trkpt lat="43.35873" lon="5.75115">
        <ele>409.7</ele>
        <time>2015-03-02T10:11:14Z</time>
      </trkpt>
      <trkpt lat="43.35865" lon="5.75111">
        <ele>410.1</ele>
        <time>2015-03-02T10:11:22Z</time>
      </trkpt>
      <trkpt lat="43.35863" lon="5.7511">
        <ele>410.1</ele>
        <time>2015-03-02T10:11:24Z</time>
      </trkpt>
      <trkpt lat="43.35855" lon="5.75107">
        <ele>410.6</ele>
        <time>2015-03-02T10:11:31Z</time>
      </trkpt>
      <trkpt lat="43.35844" lon="5.75107">
        <ele>410.6</ele>
        <time>2015-03-02T10:11:40Z</time>
      </trkpt>
      <trkpt lat="43.35838" lon="5.75108">
        <ele>411.1</ele>
        <time>2015-03-02T10:11:47Z</time>
      </trkpt>
      <trkpt lat="43.3583" lon="5.7511">
        <ele>411.1</ele>
        <time>2015-03-02T10:11:55Z</time>
      </trkpt>
      <trkpt lat="43.35825" lon="5.75113">
        <ele>410.1</ele>
        <time>2015-03-02T10:12:03Z</time>
      </trkpt>
      <trkpt lat="43.35825" lon="5.7512">
        <ele>409.7</ele>
        <time>2015-03-02T10:12:12Z</time>
      </trkpt>
      <trkpt lat="43.35825" lon="5.75123">
        <ele>409.7</ele>
        <time>2015-03-02T10:12:15Z</time>
      </trkpt>
      <trkpt lat="43.35828" lon="5.7514">
        <ele>409.2</ele>
        <time>2015-03-02T10:12:25Z</time>
      </trkpt>
      <trkpt lat="43.35828" lon="5.75154">
        <ele>409.7</ele>
        <time>2015-03-02T10:12:33Z</time>
      </trkpt>
      <trkpt lat="43.35826" lon="5.75167">
        <ele>409.7</ele>
        <time>2015-03-02T10:12:40Z</time>
      </trkpt>
      <trkpt lat="43.35823" lon="5.75179">
        <ele>409.7</ele>
        <time>2015-03-02T10:12:48Z</time>
      </trkpt>
      <trkpt lat="43.35821" lon="5.75183">
        <ele>412.5</ele>
        <time>2015-03-02T10:12:50Z</time>
      </trkpt>
      <trkpt lat="43.35818" lon="5.75192">
        <ele>410.1</ele>
        <time>2015-03-02T10:12:56Z</time>
      </trkpt>
      <trkpt lat="43.35812" lon="5.75202">
        <ele>411.6</ele>
        <time>2015-03-02T10:13:04Z</time>
      </trkpt>
      <trkpt lat="43.35805" lon="5.7521">
        <ele>412.1</ele>
        <time>2015-03-02T10:13:12Z</time>
      </trkpt>
      <trkpt lat="43.35802" lon="5.75213">
        <ele>412.1</ele>
        <time>2015-03-02T10:13:15Z</time>
      </trkpt>
      <trkpt lat="43.35794" lon="5.75222">
        <ele>413</ele>
        <time>2015-03-02T10:13:24Z</time>
      </trkpt>
      <trkpt lat="43.35788" lon="5.75234">
        <ele>414</ele>
        <time>2015-03-02T10:13:32Z</time>
      </trkpt>
      <trkpt lat="43.35785" lon="5.75238">
        <ele>414</ele>
        <time>2015-03-02T10:13:36Z</time>
      </trkpt>
      <trkpt lat="43.35782" lon="5.75244">
        <ele>414</ele>
        <time>2015-03-02T10:13:41Z</time>
      </trkpt>
      <trkpt lat="43.3578" lon="5.7525">
        <ele>414.5</ele>
        <time>2015-03-02T10:13:46Z</time>
      </trkpt>
      <trkpt lat="43.35777" lon="5.75263">
        <ele>415</ele>
        <time>2015-03-02T10:13:54Z</time>
      </trkpt>
      <trkpt lat="43.35777" lon="5.75263">
        <ele>415.4</ele>
        <time>2015-03-02T10:14:01Z</time>
      </trkpt>
      <trkpt lat="43.35777" lon="5.75263">
        <ele>414.5</ele>
        <time>2015-03-02T10:14:03Z</time>
      </trkpt>
      <trkpt lat="43.35776" lon="5.75266">
        <ele>415</ele>
        <time>2015-03-02T10:14:09Z</time>
      </trkpt>
      <trkpt lat="43.35772" lon="5.75272">
        <ele>415.4</ele>
        <time>2015-03-02T10:14:16Z</time>
      </trkpt>
      <trkpt lat="43.35766" lon="5.7528">
        <ele>415</ele>
        <time>2015-03-02T10:14:25Z</time>
      </trkpt>
      <trkpt lat="43.35762" lon="5.75285">
        <ele>415</ele>
        <time>2015-03-02T10:14:31Z</time>
      </trkpt>
      <trkpt lat="43.35757" lon="5.75294">
        <ele>415</ele>
        <time>2015-03-02T10:14:40Z</time>
      </trkpt>
      <trkpt lat="43.35753" lon="5.75301">
        <ele>415</ele>
        <time>2015-03-02T10:14:46Z</time>
      </trkpt>
      <trkpt lat="43.35748" lon="5.7531">
        <ele>415</ele>
        <time>2015-03-02T10:14:53Z</time>
      </trkpt>
      <trkpt lat="43.35748" lon="5.75312">
        <ele>414.5</ele>
        <time>2015-03-02T10:14:58Z</time>
      </trkpt>
      <trkpt lat="43.35752" lon="5.75305">
        <ele>415</ele>
        <time>2015-03-02T10:15:06Z</time>
      </trkpt>
      <trkpt lat="43.35754" lon="5.75304">
        <ele>415</ele>
        <time>2015-03-02T10:15:12Z</time>
      </trkpt>
      <trkpt lat="43.35756" lon="5.75301">
        <ele>415</ele>
        <time>2015-03-02T10:15:18Z</time>
      </trkpt>
      <trkpt lat="43.35757" lon="5.753">
        <ele>415</ele>
        <time>2015-03-02T10:15:26Z</time>
      </trkpt>
      <trkpt lat="43.3576" lon="5.75299">
        <ele>415</ele>
        <time>2015-03-02T10:15:43Z</time>
      </trkpt>
      <trkpt lat="43.3576" lon="5.75298">
        <ele>415</ele>
        <time>2015-03-02T10:15:55Z</time>
      </trkpt>
      <trkpt lat="43.35759" lon="5.75299">
        <ele>414.5</ele>
        <time>2015-03-02T10:16:11Z</time>
      </trkpt>
      <trkpt lat="43.35759" lon="5.75298">
        <ele>414.5</ele>
        <time>2015-03-02T10:16:29Z</time>
      </trkpt>
      <trkpt lat="43.35759" lon="5.75299">
        <ele>414.5</ele>
        <time>2015-03-02T10:16:46Z</time>
      </trkpt>
      <trkpt lat="43.35759" lon="5.75299">
        <ele>410.6</ele>
        <time>2015-03-02T10:16:55Z</time>
      </trkpt>
      <trkpt lat="43.35759" lon="5.75299">
        <ele>417.4</ele>
        <time>2015-03-02T10:16:56Z</time>
      </trkpt>
      <trkpt lat="43.35758" lon="5.75298">
        <ele>413</ele>
        <time>2015-03-02T10:16:59Z</time>
      </trkpt>
      <trkpt lat="43.35758" lon="5.75299">
        <ele>416.9</ele>
        <time>2015-03-02T10:17:00Z</time>
      </trkpt>
      <trkpt lat="43.35758" lon="5.75298">
        <ele>415</ele>
        <time>2015-03-02T10:17:14Z</time>
      </trkpt>
      <trkpt lat="43.35758" lon="5.75297">
        <ele>415</ele>
        <time>2015-03-02T10:17:29Z</time>
      </trkpt>
      <trkpt lat="43.35758" lon="5.75297">
        <ele>415</ele>
        <time>2015-03-02T10:17:45Z</time>
      </trkpt>
      <trkpt lat="43.35758" lon="5.75297">
        <ele>415.4</ele>
        <time>2015-03-02T10:18:00Z</time>
      </trkpt>
      <trkpt lat="43.35759" lon="5.75297">
        <ele>415</ele>
        <time>2015-03-02T10:18:11Z</time>
      </trkpt>
      <trkpt lat="43.35759" lon="5.75297">
        <ele>415.4</ele>
        <time>2015-03-02T10:18:22Z</time>
      </trkpt>
      <trkpt lat="43.35759" lon="5.75297">
        <ele>415.4</ele>
        <time>2015-03-02T10:18:36Z</time>
      </trkpt>
      <trkpt lat="43.35759" lon="5.75298">
        <ele>415</ele>
        <time>2015-03-02T10:18:56Z</time>
      </trkpt>
      <trkpt lat="43.3576" lon="5.75299">
        <ele>415</ele>
        <time>2015-03-02T10:19:15Z</time>
      </trkpt>
      <trkpt lat="43.3576" lon="5.75299">
        <ele>415.4</ele>
        <time>2015-03-02T10:19:34Z</time>
      </trkpt>
      <trkpt lat="43.3576" lon="5.75299">
        <ele>415</ele>
        <time>2015-03-02T10:19:50Z</time>
      </trkpt>
      <trkpt lat="43.3576" lon="5.75299">
        <ele>415.4</ele>
        <time>2015-03-02T10:20:02Z</time>
      </trkpt>
      <trkpt lat="43.3576" lon="5.75299">
        <ele>415.4</ele>
        <time>2015-03-02T10:20:18Z</time>
      </trkpt>
      <trkpt lat="43.3576" lon="5.75299">
        <ele>415</ele>
        <time>2015-03-02T10:20:34Z</time>
      </trkpt>
      <trkpt lat="43.35759" lon="5.75299">
        <ele>415.4</ele>
        <time>2015-03-02T10:20:43Z</time>
      </trkpt>
      <trkpt lat="43.35759" lon="5.75299">
        <ele>415</ele>
        <time>2015-03-02T10:20:56Z</time>
      </trkpt>
      <trkpt lat="43.35759" lon="5.75299">
        <ele>415.4</ele>
        <time>2015-03-02T10:21:10Z</time>
      </trkpt>
      <trkpt lat="43.35759" lon="5.75299">
        <ele>415.4</ele>
        <time>2015-03-02T10:21:21Z</time>
      </trkpt>
      <trkpt lat="43.35759" lon="5.753">
        <ele>415</ele>
        <time>2015-03-02T10:21:31Z</time>
      </trkpt>
      <trkpt lat="43.35759" lon="5.75299">
        <ele>415.4</ele>
        <time>2015-03-02T10:21:46Z</time>
      </trkpt>
      <trkpt lat="43.35759" lon="5.75299">
        <ele>415</ele>
        <time>2015-03-02T10:22:03Z</time>
      </trkpt>
      <trkpt lat="43.35759" lon="5.75299">
        <ele>415</ele>
        <time>2015-03-02T10:22:21Z</time>
      </trkpt>
      <trkpt lat="43.35759" lon="5.75299">
        <ele>415</ele>
        <time>2015-03-02T10:22:37Z</time>
      </trkpt>
      <trkpt lat="43.35759" lon="5.75299">
        <ele>421.2</ele>
        <time>2015-03-02T10:22:46Z</time>
      </trkpt>
      <trkpt lat="43.35759" lon="5.75299">
        <ele>415.4</ele>
        <time>2015-03-02T10:22:47Z</time>
      </trkpt>
      <trkpt lat="43.35759" lon="5.75299">
        <ele>411.6</ele>
        <time>2015-03-02T10:22:50Z</time>
      </trkpt>
      <trkpt lat="43.35759" lon="5.75298">
        <ele>419.3</ele>
        <time>2015-03-02T10:22:53Z</time>
      </trkpt>
      <trkpt lat="43.35759" lon="5.75298">
        <ele>416.4</ele>
        <time>2015-03-02T10:22:54Z</time>
      </trkpt>
      <trkpt lat="43.35757" lon="5.75297">
        <ele>415.4</ele>
        <time>2015-03-02T10:22:56Z</time>
      </trkpt>
      <trkpt lat="43.35756" lon="5.75296">
        <ele>415.4</ele>
        <time>2015-03-02T10:23:06Z</time>
      </trkpt>
      <trkpt lat="43.35753" lon="5.753">
        <ele>415</ele>
        <time>2015-03-02T10:23:14Z</time>
      </trkpt>
      <trkpt lat="43.35749" lon="5.75305">
        <ele>415</ele>
        <time>2015-03-02T10:23:22Z</time>
      </trkpt>
      <trkpt lat="43.35747" lon="5.75309">
        <ele>414.5</ele>
        <time>2015-03-02T10:23:30Z</time>
      </trkpt>
      <trkpt lat="43.35744" lon="5.7532">
        <ele>415</ele>
        <time>2015-03-02T10:23:40Z</time>
      </trkpt>
      <trkpt lat="43.35743" lon="5.75322">
        <ele>415</ele>
        <time>2015-03-02T10:23:49Z</time>
      </trkpt>
      <trkpt lat="43.35743" lon="5.75323">
        <ele>414.5</ele>
        <time>2015-03-02T10:23:58Z</time>
      </trkpt>
      <trkpt lat="43.35743" lon="5.75325">
        <ele>414.5</ele>
        <time>2015-03-02T10:24:04Z</time>
      </trkpt>
      <trkpt lat="43.35739" lon="5.7533">
        <ele>415</ele>
        <time>2015-03-02T10:24:12Z</time>
      </trkpt>
      <trkpt lat="43.35736" lon="5.7534">
        <ele>414.5</ele>
        <time>2015-03-02T10:24:20Z</time>
      </trkpt>
      <trkpt lat="43.35734" lon="5.75346">
        <ele>415</ele>
        <time>2015-03-02T10:24:27Z</time>
      </trkpt>
      <trkpt lat="43.3573" lon="5.75357">
        <ele>415</ele>
        <time>2015-03-02T10:24:37Z</time>
      </trkpt>
      <trkpt lat="43.35724" lon="5.75367">
        <ele>415</ele>
        <time>2015-03-02T10:24:46Z</time>
      </trkpt>
      <trkpt lat="43.35719" lon="5.75379">
        <ele>415.4</ele>
        <time>2015-03-02T10:24:56Z</time>
      </trkpt>
      <trkpt lat="43.35716" lon="5.75387">
        <ele>415.4</ele>
        <time>2015-03-02T10:25:04Z</time>
      </trkpt>
      <trkpt lat="43.35709" lon="5.75401">
        <ele>415.4</ele>
        <time>2015-03-02T10:25:13Z</time>
      </trkpt>
      <trkpt lat="43.35702" lon="5.75413">
        <ele>415.9</ele>
        <time>2015-03-02T10:25:23Z</time>
      </trkpt>
      <trkpt lat="43.35698" lon="5.7542">
        <ele>416.4</ele>
        <time>2015-03-02T10:25:30Z</time>
      </trkpt>
      <trkpt lat="43.35692" lon="5.75429">
        <ele>416.4</ele>
        <time>2015-03-02T10:25:40Z</time>
      </trkpt>
      <trkpt lat="43.35689" lon="5.75435">
        <ele>416.4</ele>
        <time>2015-03-02T10:25:46Z</time>
      </trkpt>
      <trkpt lat="43.35683" lon="5.75446">
        <ele>416.4</ele>
        <time>2015-03-02T10:25:52Z</time>
      </trkpt>
      <trkpt lat="43.35677" lon="5.75458">
        <ele>416.4</ele>
        <time>2015-03-02T10:25:59Z</time>
      </trkpt>
      <trkpt lat="43.35675" lon="5.75465">
        <ele>416.9</ele>
        <time>2015-03-02T10:26:04Z</time>
      </trkpt>
      <trkpt lat="43.35671" lon="5.75473">
        <ele>416.9</ele>
        <time>2015-03-02T10:26:09Z</time>
      </trkpt>
      <trkpt lat="43.3567" lon="5.75481">
        <ele>416.9</ele>
        <time>2015-03-02T10:26:15Z</time>
      </trkpt>
      <trkpt lat="43.35667" lon="5.75489">
        <ele>417.4</ele>
        <time>2015-03-02T10:26:22Z</time>
      </trkpt>
      <trkpt lat="43.35665" lon="5.75495">
        <ele>417.4</ele>
        <time>2015-03-02T10:26:29Z</time>
      </trkpt>
      <trkpt lat="43.35661" lon="5.75505">
        <ele>417.4</ele>
        <time>2015-03-02T10:26:36Z</time>
      </trkpt>
      <trkpt lat="43.35656" lon="5.75512">
        <ele>418.3</ele>
        <time>2015-03-02T10:26:44Z</time>
      </trkpt>
      <trkpt lat="43.35652" lon="5.75517">
        <ele>418.3</ele>
        <time>2015-03-02T10:26:51Z</time>
      </trkpt>
      <trkpt lat="43.35649" lon="5.75522">
        <ele>418.3</ele>
        <time>2015-03-02T10:26:56Z</time>
      </trkpt>
      <trkpt lat="43.35643" lon="5.7553">
        <ele>418.8</ele>
        <time>2015-03-02T10:27:05Z</time>
      </trkpt>
      <trkpt lat="43.35638" lon="5.75538">
        <ele>418.3</ele>
        <time>2015-03-02T10:27:12Z</time>
      </trkpt>
      <trkpt lat="43.35637" lon="5.7554">
        <ele>418.3</ele>
        <time>2015-03-02T10:27:13Z</time>
      </trkpt>
      <trkpt lat="43.35631" lon="5.75548">
        <ele>418.3</ele>
        <time>2015-03-02T10:27:21Z</time>
      </trkpt>
      <trkpt lat="43.35628" lon="5.75551">
        <ele>418.8</ele>
        <time>2015-03-02T10:27:25Z</time>
      </trkpt>
      <trkpt lat="43.35625" lon="5.75555">
        <ele>418.3</ele>
        <time>2015-03-02T10:27:29Z</time>
      </trkpt>
      <trkpt lat="43.3562" lon="5.75563">
        <ele>418.3</ele>
        <time>2015-03-02T10:27:36Z</time>
      </trkpt>
      <trkpt lat="43.35613" lon="5.75575">
        <ele>418.3</ele>
        <time>2015-03-02T10:27:44Z</time>
      </trkpt>
      <trkpt lat="43.3561" lon="5.75579">
        <ele>418.3</ele>
        <time>2015-03-02T10:27:50Z</time>
      </trkpt>
      <trkpt lat="43.35605" lon="5.75588">
        <ele>418.3</ele>
        <time>2015-03-02T10:27:58Z</time>
      </trkpt>
      <trkpt lat="43.35601" lon="5.75593">
        <ele>418.8</ele>
        <time>2015-03-02T10:28:03Z</time>
      </trkpt>
      <trkpt lat="43.35597" lon="5.75601">
        <ele>419.3</ele>
        <time>2015-03-02T10:28:08Z</time>
      </trkpt>
      <trkpt lat="43.35591" lon="5.7561">
        <ele>418.8</ele>
        <time>2015-03-02T10:28:13Z</time>
      </trkpt>
      <trkpt lat="43.35586" lon="5.75619">
        <ele>418.8</ele>
        <time>2015-03-02T10:28:20Z</time>
      </trkpt>
      <trkpt lat="43.35585" lon="5.7562">
        <ele>419.3</ele>
        <time>2015-03-02T10:28:21Z</time>
      </trkpt>
      <trkpt lat="43.35577" lon="5.7563">
        <ele>419.3</ele>
        <time>2015-03-02T10:28:29Z</time>
      </trkpt>
      <trkpt lat="43.35573" lon="5.75632">
        <ele>419.3</ele>
        <time>2015-03-02T10:28:35Z</time>
      </trkpt>
      <trkpt lat="43.35572" lon="5.75633">
        <ele>419.3</ele>
        <time>2015-03-02T10:28:36Z</time>
      </trkpt>
      <trkpt lat="43.35566" lon="5.75637">
        <ele>419.3</ele>
        <time>2015-03-02T10:28:43Z</time>
      </trkpt>
      <trkpt lat="43.35561" lon="5.7564">
        <ele>419.3</ele>
        <time>2015-03-02T10:28:49Z</time>
      </trkpt>
      <trkpt lat="43.35553" lon="5.75643">
        <ele>419.3</ele>
        <time>2015-03-02T10:28:57Z</time>
      </trkpt>
      <trkpt lat="43.35549" lon="5.75644">
        <ele>419.8</ele>
        <time>2015-03-02T10:29:03Z</time>
      </trkpt>
      <trkpt lat="43.35545" lon="5.75645">
        <ele>419.8</ele>
        <time>2015-03-02T10:29:06Z</time>
      </trkpt>
      <trkpt lat="43.35534" lon="5.75648">
        <ele>420.2</ele>
        <time>2015-03-02T10:29:15Z</time>
      </trkpt>
      <trkpt lat="43.35525" lon="5.7565">
        <ele>420.7</ele>
        <time>2015-03-02T10:29:22Z</time>
      </trkpt>
      <trkpt lat="43.35524" lon="5.7565">
        <ele>420.7</ele>
        <time>2015-03-02T10:29:23Z</time>
      </trkpt>
      <trkpt lat="43.3552" lon="5.7565">
        <ele>420.7</ele>
        <time>2015-03-02T10:29:27Z</time>
      </trkpt>
      <trkpt lat="43.35512" lon="5.75653">
        <ele>420.7</ele>
        <time>2015-03-02T10:29:33Z</time>
      </trkpt>
      <trkpt lat="43.35504" lon="5.75654">
        <ele>420.7</ele>
        <time>2015-03-02T10:29:41Z</time>
      </trkpt>
      <trkpt lat="43.355" lon="5.75655">
        <ele>421.2</ele>
        <time>2015-03-02T10:29:47Z</time>
      </trkpt>
      <trkpt lat="43.35495" lon="5.75659">
        <ele>421.2</ele>
        <time>2015-03-02T10:29:51Z</time>
      </trkpt>
      <trkpt lat="43.35489" lon="5.75664">
        <ele>421.7</ele>
        <time>2015-03-02T10:29:58Z</time>
      </trkpt>
      <trkpt lat="43.35486" lon="5.75667">
        <ele>421.2</ele>
        <time>2015-03-02T10:30:03Z</time>
      </trkpt>
      <trkpt lat="43.35479" lon="5.75676">
        <ele>421.2</ele>
        <time>2015-03-02T10:30:10Z</time>
      </trkpt>
      <trkpt lat="43.35475" lon="5.7568">
        <ele>420.7</ele>
        <time>2015-03-02T10:30:16Z</time>
      </trkpt>
      <trkpt lat="43.35471" lon="5.75687">
        <ele>420.7</ele>
        <time>2015-03-02T10:30:23Z</time>
      </trkpt>
      <trkpt lat="43.3547" lon="5.7569">
        <ele>421.2</ele>
        <time>2015-03-02T10:30:25Z</time>
      </trkpt>
      <trkpt lat="43.35463" lon="5.75701">
        <ele>420.2</ele>
        <time>2015-03-02T10:30:31Z</time>
      </trkpt>
      <trkpt lat="43.35462" lon="5.75708">
        <ele>420.7</ele>
        <time>2015-03-02T10:30:37Z</time>
      </trkpt>
      <trkpt lat="43.35456" lon="5.75721">
        <ele>420.2</ele>
        <time>2015-03-02T10:30:43Z</time>
      </trkpt>
      <trkpt lat="43.35454" lon="5.75726">
        <ele>420.2</ele>
        <time>2015-03-02T10:30:48Z</time>
      </trkpt>
      <trkpt lat="43.35452" lon="5.75731">
        <ele>419.8</ele>
        <time>2015-03-02T10:30:51Z</time>
      </trkpt>
      <trkpt lat="43.35449" lon="5.75746">
        <ele>420.7</ele>
        <time>2015-03-02T10:30:59Z</time>
      </trkpt>
      <trkpt lat="43.35448" lon="5.75752">
        <ele>419.8</ele>
        <time>2015-03-02T10:31:04Z</time>
      </trkpt>
      <trkpt lat="43.35447" lon="5.75759">
        <ele>418.8</ele>
        <time>2015-03-02T10:31:11Z</time>
      </trkpt>
      <trkpt lat="43.35446" lon="5.75768">
        <ele>419.3</ele>
        <time>2015-03-02T10:31:17Z</time>
      </trkpt>
      <trkpt lat="43.35446" lon="5.75775">
        <ele>419.3</ele>
        <time>2015-03-02T10:31:23Z</time>
      </trkpt>
      <trkpt lat="43.35446" lon="5.75785">
        <ele>418.8</ele>
        <time>2015-03-02T10:31:31Z</time>
      </trkpt>
      <trkpt lat="43.35445" lon="5.75795">
        <ele>418.8</ele>
        <time>2015-03-02T10:31:37Z</time>
      </trkpt>
      <trkpt lat="43.35445" lon="5.75797">
        <ele>419.3</ele>
        <time>2015-03-02T10:31:40Z</time>
      </trkpt>
      <trkpt lat="43.35444" lon="5.75803">
        <ele>419.3</ele>
        <time>2015-03-02T10:31:46Z</time>
      </trkpt>
      <trkpt lat="43.35439" lon="5.7581">
        <ele>419.3</ele>
        <time>2015-03-02T10:31:52Z</time>
      </trkpt>
      <trkpt lat="43.35435" lon="5.75817">
        <ele>419.8</ele>
        <time>2015-03-02T10:31:58Z</time>
      </trkpt>
      <trkpt lat="43.35426" lon="5.75827">
        <ele>419.8</ele>
        <time>2015-03-02T10:32:06Z</time>
      </trkpt>
      <trkpt lat="43.35422" lon="5.75831">
        <ele>419.8</ele>
        <time>2015-03-02T10:32:10Z</time>
      </trkpt>
      <trkpt lat="43.35415" lon="5.75839">
        <ele>419.8</ele>
        <time>2015-03-02T10:32:17Z</time>
      </trkpt>
      <trkpt lat="43.35409" lon="5.75843">
        <ele>419.3</ele>
        <time>2015-03-02T10:32:24Z</time>
      </trkpt>
      <trkpt lat="43.35408" lon="5.75845">
        <ele>419.8</ele>
        <time>2015-03-02T10:32:25Z</time>
      </trkpt>
      <trkpt lat="43.35405" lon="5.75849">
        <ele>419.3</ele>
        <time>2015-03-02T10:32:29Z</time>
      </trkpt>
      <trkpt lat="43.35399" lon="5.75855">
        <ele>419.3</ele>
        <time>2015-03-02T10:32:36Z</time>
      </trkpt>
      <trkpt lat="43.35392" lon="5.75863">
        <ele>419.8</ele>
        <time>2015-03-02T10:32:42Z</time>
      </trkpt>
      <trkpt lat="43.35388" lon="5.75871">
        <ele>419.3</ele>
        <time>2015-03-02T10:32:48Z</time>
      </trkpt>
      <trkpt lat="43.35381" lon="5.75878">
        <ele>419.3</ele>
        <time>2015-03-02T10:32:55Z</time>
      </trkpt>
      <trkpt lat="43.3538" lon="5.7588">
        <ele>419.3</ele>
        <time>2015-03-02T10:32:57Z</time>
      </trkpt>
      <trkpt lat="43.35373" lon="5.75887">
        <ele>419.3</ele>
        <time>2015-03-02T10:33:05Z</time>
      </trkpt>
      <trkpt lat="43.35369" lon="5.75892">
        <ele>419.8</ele>
        <time>2015-03-02T10:33:11Z</time>
      </trkpt>
      <trkpt lat="43.35366" lon="5.75896">
        <ele>419.8</ele>
        <time>2015-03-02T10:33:14Z</time>
      </trkpt>
      <trkpt lat="43.35363" lon="5.75899">
        <ele>419.8</ele>
        <time>2015-03-02T10:33:18Z</time>
      </trkpt>
      <trkpt lat="43.35353" lon="5.75908">
        <ele>419.8</ele>
        <time>2015-03-02T10:33:27Z</time>
      </trkpt>
      <trkpt lat="43.35345" lon="5.75915">
        <ele>419.3</ele>
        <time>2015-03-02T10:33:35Z</time>
      </trkpt>
      <trkpt lat="43.3534" lon="5.75918">
        <ele>419.3</ele>
        <time>2015-03-02T10:33:41Z</time>
      </trkpt>
      <trkpt lat="43.35337" lon="5.75921">
        <ele>419.8</ele>
        <time>2015-03-02T10:33:44Z</time>
      </trkpt>
      <trkpt lat="43.35333" lon="5.75924">
        <ele>419.3</ele>
        <time>2015-03-02T10:33:48Z</time>
      </trkpt>
      <trkpt lat="43.35327" lon="5.7593">
        <ele>419.8</ele>
        <time>2015-03-02T10:33:54Z</time>
      </trkpt>
      <trkpt lat="43.35321" lon="5.75932">
        <ele>419.8</ele>
        <time>2015-03-02T10:34:01Z</time>
      </trkpt>
      <trkpt lat="43.35316" lon="5.75937">
        <ele>419.8</ele>
        <time>2015-03-02T10:34:07Z</time>
      </trkpt>
      <trkpt lat="43.35313" lon="5.75945">
        <ele>419.8</ele>
        <time>2015-03-02T10:34:15Z</time>
      </trkpt>
      <trkpt lat="43.35306" lon="5.75948">
        <ele>420.2</ele>
        <time>2015-03-02T10:34:23Z</time>
      </trkpt>
      <trkpt lat="43.35304" lon="5.7595">
        <ele>420.2</ele>
        <time>2015-03-02T10:34:24Z</time>
      </trkpt>
      <trkpt lat="43.35298" lon="5.7595">
        <ele>421.2</ele>
        <time>2015-03-02T10:34:31Z</time>
      </trkpt>
      <trkpt lat="43.35294" lon="5.75952">
        <ele>420.7</ele>
        <time>2015-03-02T10:34:38Z</time>
      </trkpt>
      <trkpt lat="43.35294" lon="5.75952">
        <ele>420.7</ele>
        <time>2015-03-02T10:34:48Z</time>
      </trkpt>
      <trkpt lat="43.35293" lon="5.75952">
        <ele>420.2</ele>
        <time>2015-03-02T10:34:55Z</time>
      </trkpt>
      <trkpt lat="43.35292" lon="5.75951">
        <ele>420.2</ele>
        <time>2015-03-02T10:35:09Z</time>
      </trkpt>
      <trkpt lat="43.35292" lon="5.75952">
        <ele>420.7</ele>
        <time>2015-03-02T10:35:18Z</time>
      </trkpt>
      <trkpt lat="43.3529" lon="5.75952">
        <ele>420.2</ele>
        <time>2015-03-02T10:35:27Z</time>
      </trkpt>
      <trkpt lat="43.35289" lon="5.75955">
        <ele>420.2</ele>
        <time>2015-03-02T10:35:34Z</time>
      </trkpt>
      <trkpt lat="43.35288" lon="5.75959">
        <ele>420.7</ele>
        <time>2015-03-02T10:35:41Z</time>
      </trkpt>
      <trkpt lat="43.35289" lon="5.75964">
        <ele>422.6</ele>
        <time>2015-03-02T10:35:46Z</time>
      </trkpt>
      <trkpt lat="43.3529" lon="5.75966">
        <ele>422.6</ele>
        <time>2015-03-02T10:35:52Z</time>
      </trkpt>
      <trkpt lat="43.35288" lon="5.75967">
        <ele>422.6</ele>
        <time>2015-03-02T10:36:00Z</time>
      </trkpt>
      <trkpt lat="43.35285" lon="5.75971">
        <ele>423.1</ele>
        <time>2015-03-02T10:36:06Z</time>
      </trkpt>
      <trkpt lat="43.35283" lon="5.75974">
        <ele>423.6</ele>
        <time>2015-03-02T10:36:11Z</time>
      </trkpt>
      <trkpt lat="43.35279" lon="5.75978">
        <ele>423.6</ele>
        <time>2015-03-02T10:36:17Z</time>
      </trkpt>
      <trkpt lat="43.35273" lon="5.75988">
        <ele>424.6</ele>
        <time>2015-03-02T10:36:24Z</time>
      </trkpt>
      <trkpt lat="43.35268" lon="5.75995">
        <ele>424.6</ele>
        <time>2015-03-02T10:36:31Z</time>
      </trkpt>
      <trkpt lat="43.35266" lon="5.75997">
        <ele>425</ele>
        <time>2015-03-02T10:36:34Z</time>
      </trkpt>
      <trkpt lat="43.35261" lon="5.76001">
        <ele>426</ele>
        <time>2015-03-02T10:36:40Z</time>
      </trkpt>
      <trkpt lat="43.35256" lon="5.76006">
        <ele>426</ele>
        <time>2015-03-02T10:36:45Z</time>
      </trkpt>
      <trkpt lat="43.35252" lon="5.76009">
        <ele>426.5</ele>
        <time>2015-03-02T10:36:52Z</time>
      </trkpt>
      <trkpt lat="43.35245" lon="5.76012">
        <ele>427.9</ele>
        <time>2015-03-02T10:36:59Z</time>
      </trkpt>
      <trkpt lat="43.35238" lon="5.76016">
        <ele>428.4</ele>
        <time>2015-03-02T10:37:08Z</time>
      </trkpt>
      <trkpt lat="43.35234" lon="5.76024">
        <ele>429.4</ele>
        <time>2015-03-02T10:37:15Z</time>
      </trkpt>
      <trkpt lat="43.35229" lon="5.76032">
        <ele>429.9</ele>
        <time>2015-03-02T10:37:23Z</time>
      </trkpt>
      <trkpt lat="43.35227" lon="5.76037">
        <ele>430.3</ele>
        <time>2015-03-02T10:37:30Z</time>
      </trkpt>
      <trkpt lat="43.35224" lon="5.7604">
        <ele>430.8</ele>
        <time>2015-03-02T10:37:37Z</time>
      </trkpt>
      <trkpt lat="43.35221" lon="5.76044">
        <ele>431.3</ele>
        <time>2015-03-02T10:37:44Z</time>
      </trkpt>
      <trkpt lat="43.35217" lon="5.76051">
        <ele>432.7</ele>
        <time>2015-03-02T10:37:51Z</time>
      </trkpt>
      <trkpt lat="43.35212" lon="5.76059">
        <ele>433.2</ele>
        <time>2015-03-02T10:37:58Z</time>
      </trkpt>
      <trkpt lat="43.35208" lon="5.76067">
        <ele>434.2</ele>
        <time>2015-03-02T10:38:05Z</time>
      </trkpt>
      <trkpt lat="43.35204" lon="5.76077">
        <ele>434.6</ele>
        <time>2015-03-02T10:38:11Z</time>
      </trkpt>
      <trkpt lat="43.35202" lon="5.76087">
        <ele>435.1</ele>
        <time>2015-03-02T10:38:21Z</time>
      </trkpt>
      <trkpt lat="43.352" lon="5.76092">
        <ele>435.6</ele>
        <time>2015-03-02T10:38:28Z</time>
      </trkpt>
      <trkpt lat="43.35198" lon="5.76095">
        <ele>436.1</ele>
        <time>2015-03-02T10:38:35Z</time>
      </trkpt>
      <trkpt lat="43.35195" lon="5.761">
        <ele>436.6</ele>
        <time>2015-03-02T10:38:41Z</time>
      </trkpt>
      <trkpt lat="43.35193" lon="5.76102">
        <ele>437.1</ele>
        <time>2015-03-02T10:38:43Z</time>
      </trkpt>
      <trkpt lat="43.35187" lon="5.7611">
        <ele>437.5</ele>
        <time>2015-03-02T10:38:50Z</time>
      </trkpt>
      <trkpt lat="43.35182" lon="5.76118">
        <ele>438</ele>
        <time>2015-03-02T10:38:57Z</time>
      </trkpt>
      <trkpt lat="43.3518" lon="5.76119">
        <ele>439</ele>
        <time>2015-03-02T10:39:03Z</time>
      </trkpt>
      <trkpt lat="43.35179" lon="5.76121">
        <ele>439</ele>
        <time>2015-03-02T10:39:05Z</time>
      </trkpt>
      <trkpt lat="43.35177" lon="5.76124">
        <ele>439</ele>
        <time>2015-03-02T10:39:12Z</time>
      </trkpt>
      <trkpt lat="43.35174" lon="5.7613">
        <ele>439.5</ele>
        <time>2015-03-02T10:39:16Z</time>
      </trkpt>
      <trkpt lat="43.35169" lon="5.76138">
        <ele>440.9</ele>
        <time>2015-03-02T10:39:24Z</time>
      </trkpt>
      <trkpt lat="43.35164" lon="5.76149">
        <ele>441.4</ele>
        <time>2015-03-02T10:39:30Z</time>
      </trkpt>
      <trkpt lat="43.35162" lon="5.76156">
        <ele>441.4</ele>
        <time>2015-03-02T10:39:35Z</time>
      </trkpt>
      <trkpt lat="43.35155" lon="5.76159">
        <ele>441.9</ele>
        <time>2015-03-02T10:39:42Z</time>
      </trkpt>
      <trkpt lat="43.3515" lon="5.76163">
        <ele>442.3</ele>
        <time>2015-03-02T10:39:49Z</time>
      </trkpt>
      <trkpt lat="43.35148" lon="5.76163">
        <ele>442.8</ele>
        <time>2015-03-02T10:39:52Z</time>
      </trkpt>
      <trkpt lat="43.35143" lon="5.76164">
        <ele>444.3</ele>
        <time>2015-03-02T10:39:59Z</time>
      </trkpt>
      <trkpt lat="43.35139" lon="5.76165">
        <ele>444.8</ele>
        <time>2015-03-02T10:40:05Z</time>
      </trkpt>
      <trkpt lat="43.35126" lon="5.76167">
        <ele>445</ele>
      </trkpt>
      <trkpt lat="43.35115" lon="5.76164">
        <ele>441.8</ele>
      </trkpt>
      <trkpt lat="43.35116" lon="5.76139">
        <ele>441.6</ele>
      </trkpt>
      <trkpt lat="43.35114" lon="5.76118">
        <ele>441.2</ele>
      </trkpt>
      <trkpt lat="43.35109" lon="5.76084">
        <ele>440.9</ele>
      </trkpt>
      <trkpt lat="43.35104" lon="5.76059">
        <ele>440.1</ele>
      </trkpt>
      <trkpt lat="43.35102" lon="5.76034">
        <ele>440.6</ele>
      </trkpt>
      <trkpt lat="43.351" lon="5.76043">
        <ele>440.4</ele>
      </trkpt>
      <trkpt lat="43.351" lon="5.76048">
        <ele>425</ele>
        <time>2015-03-02T11:04:13Z</time>
      </trkpt>
      <trkpt lat="43.35097" lon="5.76051">
        <ele>425.5</ele>
        <time>2015-03-02T11:04:19Z</time>
      </trkpt>
      <trkpt lat="43.35095" lon="5.76059">
        <ele>425.5</ele>
        <time>2015-03-02T11:04:25Z</time>
      </trkpt>
      <trkpt lat="43.35094" lon="5.76061">
        <ele>425.5</ele>
        <time>2015-03-02T11:04:27Z</time>
      </trkpt>
      <trkpt lat="43.35091" lon="5.76067">
        <ele>425.5</ele>
        <time>2015-03-02T11:04:34Z</time>
      </trkpt>
      <trkpt lat="43.35089" lon="5.7607">
        <ele>426.5</ele>
        <time>2015-03-02T11:04:42Z</time>
      </trkpt>
      <trkpt lat="43.3509" lon="5.76073">
        <ele>426.5</ele>
        <time>2015-03-02T11:04:49Z</time>
      </trkpt>
      <trkpt lat="43.3509" lon="5.76074">
        <ele>426.5</ele>
        <time>2015-03-02T11:04:56Z</time>
      </trkpt>
      <trkpt lat="43.35089" lon="5.76077">
        <ele>427</ele>
        <time>2015-03-02T11:05:03Z</time>
      </trkpt>
      <trkpt lat="43.35089" lon="5.76081">
        <ele>427.9</ele>
        <time>2015-03-02T11:05:10Z</time>
      </trkpt>
      <trkpt lat="43.35089" lon="5.76086">
        <ele>427.9</ele>
        <time>2015-03-02T11:05:17Z</time>
      </trkpt>
      <trkpt lat="43.35087" lon="5.76094">
        <ele>428.9</ele>
        <time>2015-03-02T11:05:25Z</time>
      </trkpt>
      <trkpt lat="43.35083" lon="5.76099">
        <ele>429.4</ele>
        <time>2015-03-02T11:05:32Z</time>
      </trkpt>
      <trkpt lat="43.3508" lon="5.76111">
        <ele>429.9</ele>
        <time>2015-03-02T11:05:39Z</time>
      </trkpt>
      <trkpt lat="43.35067" lon="5.7614">
        <ele>431.3</ele>
        <time>2015-03-02T11:05:46Z</time>
      </trkpt>
      <trkpt lat="43.35064" lon="5.76151">
        <ele>432.2</ele>
        <time>2015-03-02T11:05:54Z</time>
      </trkpt>
      <trkpt lat="43.35062" lon="5.76158">
        <ele>432.7</ele>
        <time>2015-03-02T11:06:00Z</time>
      </trkpt>
      <trkpt lat="43.35061" lon="5.76166">
        <ele>433.7</ele>
        <time>2015-03-02T11:06:08Z</time>
      </trkpt>
      <trkpt lat="43.35061" lon="5.76168">
        <ele>434.6</ele>
        <time>2015-03-02T11:06:13Z</time>
      </trkpt>
      <trkpt lat="43.35059" lon="5.76174">
        <ele>435.6</ele>
        <time>2015-03-02T11:06:19Z</time>
      </trkpt>
      <trkpt lat="43.35059" lon="5.76182">
        <ele>436.1</ele>
        <time>2015-03-02T11:06:25Z</time>
      </trkpt>
      <trkpt lat="43.35058" lon="5.7619">
        <ele>436.1</ele>
        <time>2015-03-02T11:06:30Z</time>
      </trkpt>
      <trkpt lat="43.35056" lon="5.76195">
        <ele>436.1</ele>
        <time>2015-03-02T11:06:34Z</time>
      </trkpt>
      <trkpt lat="43.35054" lon="5.76205">
        <ele>436.1</ele>
        <time>2015-03-02T11:06:41Z</time>
      </trkpt>
      <trkpt lat="43.35054" lon="5.76207">
        <ele>435.6</ele>
        <time>2015-03-02T11:06:51Z</time>
      </trkpt>
      <trkpt lat="43.35053" lon="5.76212">
        <ele>435.1</ele>
        <time>2015-03-02T11:06:57Z</time>
      </trkpt>
      <trkpt lat="43.35049" lon="5.76214">
        <ele>434.6</ele>
        <time>2015-03-02T11:07:04Z</time>
      </trkpt>
      <trkpt lat="43.35048" lon="5.76215">
        <ele>435.1</ele>
        <time>2015-03-02T11:07:05Z</time>
      </trkpt>
      <trkpt lat="43.35045" lon="5.76218">
        <ele>434.6</ele>
        <time>2015-03-02T11:07:08Z</time>
      </trkpt>
      <trkpt lat="43.35036" lon="5.76228">
        <ele>435.1</ele>
        <time>2015-03-02T11:07:14Z</time>
      </trkpt>
      <trkpt lat="43.35031" lon="5.76233">
        <ele>435.1</ele>
        <time>2015-03-02T11:07:24Z</time>
      </trkpt>
      <trkpt lat="43.35025" lon="5.76233">
        <ele>436.6</ele>
        <time>2015-03-02T11:07:31Z</time>
      </trkpt>
      <trkpt lat="43.35023" lon="5.76234">
        <ele>438.5</ele>
        <time>2015-03-02T11:07:39Z</time>
      </trkpt>
      <trkpt lat="43.35019" lon="5.76239">
        <ele>439</ele>
        <time>2015-03-02T11:07:47Z</time>
      </trkpt>
      <trkpt lat="43.35017" lon="5.76242">
        <ele>439.5</ele>
        <time>2015-03-02T11:07:53Z</time>
      </trkpt>
      <trkpt lat="43.35015" lon="5.76247">
        <ele>439.5</ele>
        <time>2015-03-02T11:07:57Z</time>
      </trkpt>
      <trkpt lat="43.35013" lon="5.76254">
        <ele>439.9</ele>
        <time>2015-03-02T11:08:03Z</time>
      </trkpt>
      <trkpt lat="43.35012" lon="5.76264">
        <ele>441.4</ele>
        <time>2015-03-02T11:08:10Z</time>
      </trkpt>
      <trkpt lat="43.35015" lon="5.76271">
        <ele>441.9</ele>
        <time>2015-03-02T11:08:15Z</time>
      </trkpt>
      <trkpt lat="43.35016" lon="5.76277">
        <ele>442.3</ele>
        <time>2015-03-02T11:08:22Z</time>
      </trkpt>
      <trkpt lat="43.35016" lon="5.7628">
        <ele>442.3</ele>
        <time>2015-03-02T11:08:24Z</time>
      </trkpt>
      <trkpt lat="43.35017" lon="5.76286">
        <ele>443.3</ele>
        <time>2015-03-02T11:08:31Z</time>
      </trkpt>
      <trkpt lat="43.35017" lon="5.76286">
        <ele>443.3</ele>
        <time>2015-03-02T11:08:46Z</time>
      </trkpt>
      <trkpt lat="43.35017" lon="5.76286">
        <ele>443.3</ele>
        <time>2015-03-02T11:09:04Z</time>
      </trkpt>
      <trkpt lat="43.35016" lon="5.76286">
        <ele>443.3</ele>
        <time>2015-03-02T11:09:10Z</time>
      </trkpt>
      <trkpt lat="43.35018" lon="5.76296">
        <ele>444.8</ele>
        <time>2015-03-02T11:09:18Z</time>
      </trkpt>
      <trkpt lat="43.35016" lon="5.76302">
        <ele>445.7</ele>
        <time>2015-03-02T11:09:24Z</time>
      </trkpt>
      <trkpt lat="43.35014" lon="5.76309">
        <ele>446.7</ele>
        <time>2015-03-02T11:09:31Z</time>
      </trkpt>
      <trkpt lat="43.35013" lon="5.76314">
        <ele>447.6</ele>
        <time>2015-03-02T11:09:37Z</time>
      </trkpt>
      <trkpt lat="43.35012" lon="5.76315">
        <ele>448.6</ele>
        <time>2015-03-02T11:09:44Z</time>
      </trkpt>
      <trkpt lat="43.35015" lon="5.76315">
        <ele>449.1</ele>
        <time>2015-03-02T11:09:48Z</time>
      </trkpt>
      <trkpt lat="43.35013" lon="5.76317">
        <ele>450</ele>
        <time>2015-03-02T11:09:54Z</time>
      </trkpt>
      <trkpt lat="43.35011" lon="5.76318">
        <ele>451</ele>
        <time>2015-03-02T11:09:59Z</time>
      </trkpt>
      <trkpt lat="43.35004" lon="5.76326">
        <ele>452</ele>
        <time>2015-03-02T11:10:06Z</time>
      </trkpt>
      <trkpt lat="43.35002" lon="5.7633">
        <ele>452.9</ele>
        <time>2015-03-02T11:10:11Z</time>
      </trkpt>
      <trkpt lat="43.34995" lon="5.76337">
        <ele>453.9</ele>
        <time>2015-03-02T11:10:18Z</time>
      </trkpt>
      <trkpt lat="43.34989" lon="5.76343">
        <ele>453.9</ele>
        <time>2015-03-02T11:10:24Z</time>
      </trkpt>
      <trkpt lat="43.34982" lon="5.76349">
        <ele>455.3</ele>
        <time>2015-03-02T11:10:34Z</time>
      </trkpt>
      <trkpt lat="43.34978" lon="5.76353">
        <ele>456.3</ele>
        <time>2015-03-02T11:10:40Z</time>
      </trkpt>
      <trkpt lat="43.34973" lon="5.76359">
        <ele>456.8</ele>
        <time>2015-03-02T11:10:47Z</time>
      </trkpt>
      <trkpt lat="43.3497" lon="5.76362">
        <ele>457.2</ele>
        <time>2015-03-02T11:10:53Z</time>
      </trkpt>
      <trkpt lat="43.34971" lon="5.76363">
        <ele>456.8</ele>
        <time>2015-03-02T11:11:04Z</time>
      </trkpt>
      <trkpt lat="43.34971" lon="5.76362">
        <ele>456.8</ele>
        <time>2015-03-02T11:11:19Z</time>
      </trkpt>
      <trkpt lat="43.34971" lon="5.76362">
        <ele>457.2</ele>
        <time>2015-03-02T11:11:29Z</time>
      </trkpt>
      <trkpt lat="43.3497" lon="5.76364">
        <ele>456.8</ele>
        <time>2015-03-02T11:11:35Z</time>
      </trkpt>
      <trkpt lat="43.34966" lon="5.76367">
        <ele>456.3</ele>
        <time>2015-03-02T11:11:42Z</time>
      </trkpt>
      <trkpt lat="43.34957" lon="5.76374">
        <ele>456.3</ele>
        <time>2015-03-02T11:11:51Z</time>
      </trkpt>
      <trkpt lat="43.34954" lon="5.76378">
        <ele>456.8</ele>
        <time>2015-03-02T11:11:57Z</time>
      </trkpt>
      <trkpt lat="43.34947" lon="5.76383">
        <ele>457.2</ele>
        <time>2015-03-02T11:12:04Z</time>
      </trkpt>
      <trkpt lat="43.34942" lon="5.76387">
        <ele>457.7</ele>
        <time>2015-03-02T11:12:10Z</time>
      </trkpt>
      <trkpt lat="43.34937" lon="5.76389">
        <ele>458.7</ele>
        <time>2015-03-02T11:12:17Z</time>
      </trkpt>
      <trkpt lat="43.34935" lon="5.7639">
        <ele>459.2</ele>
        <time>2015-03-02T11:12:25Z</time>
      </trkpt>
      <trkpt lat="43.34937" lon="5.76387">
        <ele>459.2</ele>
        <time>2015-03-02T11:12:40Z</time>
      </trkpt>
      <trkpt lat="43.34933" lon="5.76389">
        <ele>458.2</ele>
        <time>2015-03-02T11:12:47Z</time>
      </trkpt>
      <trkpt lat="43.34929" lon="5.76389">
        <ele>457.7</ele>
        <time>2015-03-02T11:12:54Z</time>
      </trkpt>
      <trkpt lat="43.34924" lon="5.76391">
        <ele>456.8</ele>
        <time>2015-03-02T11:13:01Z</time>
      </trkpt>
      <trkpt lat="43.34921" lon="5.76392">
        <ele>456.3</ele>
        <time>2015-03-02T11:13:06Z</time>
      </trkpt>
      <trkpt lat="43.34919" lon="5.76392">
        <ele>455.8</ele>
        <time>2015-03-02T11:13:08Z</time>
      </trkpt>
      <trkpt lat="43.34917" lon="5.76388">
        <ele>455.8</ele>
        <time>2015-03-02T11:13:14Z</time>
      </trkpt>
      <trkpt lat="43.34913" lon="5.76389">
        <ele>455.3</ele>
        <time>2015-03-02T11:13:18Z</time>
      </trkpt>
      <trkpt lat="43.34905" lon="5.76396">
        <ele>455.3</ele>
        <time>2015-03-02T11:13:24Z</time>
      </trkpt>
      <trkpt lat="43.34899" lon="5.76396">
        <ele>455.3</ele>
        <time>2015-03-02T11:13:33Z</time>
      </trkpt>
      <trkpt lat="43.34893" lon="5.76398">
        <ele>455.3</ele>
        <time>2015-03-02T11:13:40Z</time>
      </trkpt>
      <trkpt lat="43.34888" lon="5.76399">
        <ele>455.3</ele>
        <time>2015-03-02T11:13:46Z</time>
      </trkpt>
      <trkpt lat="43.34879" lon="5.76402">
        <ele>454.8</ele>
        <time>2015-03-02T11:13:53Z</time>
      </trkpt>
      <trkpt lat="43.34874" lon="5.76402">
        <ele>454.8</ele>
        <time>2015-03-02T11:14:01Z</time>
      </trkpt>
      <trkpt lat="43.34867" lon="5.76405">
        <ele>454.4</ele>
        <time>2015-03-02T11:14:08Z</time>
      </trkpt>
      <trkpt lat="43.34862" lon="5.76407">
        <ele>454.8</ele>
        <time>2015-03-02T11:14:16Z</time>
      </trkpt>
      <trkpt lat="43.34856" lon="5.76406">
        <ele>454.8</ele>
        <time>2015-03-02T11:14:23Z</time>
      </trkpt>
      <trkpt lat="43.34851" lon="5.76407">
        <ele>454.4</ele>
        <time>2015-03-02T11:14:32Z</time>
      </trkpt>
      <trkpt lat="43.34844" lon="5.76408">
        <ele>454.4</ele>
        <time>2015-03-02T11:14:38Z</time>
      </trkpt>
      <trkpt lat="43.3484" lon="5.76407">
        <ele>453.9</ele>
        <time>2015-03-02T11:14:45Z</time>
      </trkpt>
      <trkpt lat="43.34834" lon="5.76407">
        <ele>454.4</ele>
        <time>2015-03-02T11:14:53Z</time>
      </trkpt>
      <trkpt lat="43.34825" lon="5.76408">
        <ele>454.8</ele>
        <time>2015-03-02T11:15:02Z</time>
      </trkpt>
      <trkpt lat="43.34821" lon="5.76408">
        <ele>453.9</ele>
        <time>2015-03-02T11:15:09Z</time>
      </trkpt>
      <trkpt lat="43.34814" lon="5.76411">
        <ele>453.4</ele>
        <time>2015-03-02T11:15:16Z</time>
      </trkpt>
      <trkpt lat="43.34806" lon="5.76412">
        <ele>453.4</ele>
        <time>2015-03-02T11:15:25Z</time>
      </trkpt>
      <trkpt lat="43.34801" lon="5.76411">
        <ele>453.4</ele>
        <time>2015-03-02T11:15:33Z</time>
      </trkpt>
      <trkpt lat="43.34801" lon="5.76414">
        <ele>453.4</ele>
        <time>2015-03-02T11:15:42Z</time>
      </trkpt>
      <trkpt lat="43.34804" lon="5.76412">
        <ele>453.4</ele>
        <time>2015-03-02T11:15:49Z</time>
      </trkpt>
      <trkpt lat="43.34806" lon="5.76414">
        <ele>452.4</ele>
        <time>2015-03-02T11:15:58Z</time>
      </trkpt>
      <trkpt lat="43.34805" lon="5.76414">
        <ele>452</ele>
        <time>2015-03-02T11:16:09Z</time>
      </trkpt>
      <trkpt lat="43.34805" lon="5.76415">
        <ele>452</ele>
        <time>2015-03-02T11:16:23Z</time>
      </trkpt>
      <trkpt lat="43.34805" lon="5.76411">
        <ele>452.9</ele>
        <time>2015-03-02T11:16:33Z</time>
      </trkpt>
      <trkpt lat="43.34803" lon="5.76409">
        <ele>452.9</ele>
        <time>2015-03-02T11:16:39Z</time>
      </trkpt>
      <trkpt lat="43.34797" lon="5.76409">
        <ele>452.9</ele>
        <time>2015-03-02T11:16:47Z</time>
      </trkpt>
      <trkpt lat="43.34788" lon="5.76409">
        <ele>452.9</ele>
        <time>2015-03-02T11:16:55Z</time>
      </trkpt>
      <trkpt lat="43.34779" lon="5.7641">
        <ele>453.4</ele>
        <time>2015-03-02T11:17:01Z</time>
      </trkpt>
      <trkpt lat="43.34776" lon="5.76403">
        <ele>453.9</ele>
        <time>2015-03-02T11:17:09Z</time>
      </trkpt>
      <trkpt lat="43.34774" lon="5.76403">
        <ele>453.4</ele>
        <time>2015-03-02T11:17:18Z</time>
      </trkpt>
      <trkpt lat="43.34773" lon="5.76407">
        <ele>453.9</ele>
        <time>2015-03-02T11:17:26Z</time>
      </trkpt>
      <trkpt lat="43.34772" lon="5.76408">
        <ele>453.4</ele>
        <time>2015-03-02T11:17:39Z</time>
      </trkpt>
      <trkpt lat="43.34774" lon="5.76402">
        <ele>453.9</ele>
        <time>2015-03-02T11:17:48Z</time>
      </trkpt>
      <trkpt lat="43.34772" lon="5.76396">
        <ele>454.4</ele>
        <time>2015-03-02T11:17:58Z</time>
      </trkpt>
      <trkpt lat="43.34765" lon="5.76397">
        <ele>455.3</ele>
        <time>2015-03-02T11:18:09Z</time>
      </trkpt>
      <trkpt lat="43.34761" lon="5.76391">
        <ele>454.8</ele>
        <time>2015-03-02T11:18:18Z</time>
      </trkpt>
      <trkpt lat="43.34757" lon="5.76386">
        <ele>455.3</ele>
        <time>2015-03-02T11:18:27Z</time>
      </trkpt>
      <trkpt lat="43.34752" lon="5.76377">
        <ele>455.8</ele>
        <time>2015-03-02T11:18:35Z</time>
      </trkpt>
      <trkpt lat="43.34747" lon="5.76372">
        <ele>456.3</ele>
        <time>2015-03-02T11:18:41Z</time>
      </trkpt>
      <trkpt lat="43.34744" lon="5.7637">
        <ele>456.8</ele>
        <time>2015-03-02T11:18:49Z</time>
      </trkpt>
      <trkpt lat="43.34741" lon="5.76366">
        <ele>456.8</ele>
        <time>2015-03-02T11:19:00Z</time>
      </trkpt>
      <trkpt lat="43.34741" lon="5.76364">
        <ele>457.2</ele>
        <time>2015-03-02T11:19:09Z</time>
      </trkpt>
      <trkpt lat="43.34739" lon="5.76361">
        <ele>457.7</ele>
        <time>2015-03-02T11:19:20Z</time>
      </trkpt>
      <trkpt lat="43.34735" lon="5.76356">
        <ele>458.7</ele>
        <time>2015-03-02T11:19:26Z</time>
      </trkpt>
      <trkpt lat="43.34726" lon="5.76348">
        <ele>459.2</ele>
        <time>2015-03-02T11:19:37Z</time>
      </trkpt>
      <trkpt lat="43.34721" lon="5.76343">
        <ele>459.6</ele>
        <time>2015-03-02T11:19:45Z</time>
      </trkpt>
      <trkpt lat="43.3472" lon="5.76338">
        <ele>459.6</ele>
        <time>2015-03-02T11:19:52Z</time>
      </trkpt>
      <trkpt lat="43.34715" lon="5.76331">
        <ele>459.6</ele>
        <time>2015-03-02T11:20:02Z</time>
      </trkpt>
      <trkpt lat="43.3471" lon="5.76323">
        <ele>460.6</ele>
        <time>2015-03-02T11:20:10Z</time>
      </trkpt>
      <trkpt lat="43.34706" lon="5.76316">
        <ele>461.1</ele>
        <time>2015-03-02T11:20:18Z</time>
      </trkpt>
      <trkpt lat="43.34701" lon="5.76311">
        <ele>460.6</ele>
        <time>2015-03-02T11:20:26Z</time>
      </trkpt>
      <trkpt lat="43.34698" lon="5.76308">
        <ele>460.6</ele>
        <time>2015-03-02T11:20:33Z</time>
      </trkpt>
      <trkpt lat="43.34694" lon="5.76306">
        <ele>460.6</ele>
        <time>2015-03-02T11:20:42Z</time>
      </trkpt>
      <trkpt lat="43.34694" lon="5.76304">
        <ele>460.1</ele>
        <time>2015-03-02T11:20:55Z</time>
      </trkpt>
      <trkpt lat="43.34692" lon="5.76302">
        <ele>460.1</ele>
        <time>2015-03-02T11:21:06Z</time>
      </trkpt>
      <trkpt lat="43.34692" lon="5.76301">
        <ele>460.6</ele>
        <time>2015-03-02T11:21:15Z</time>
      </trkpt>
      <trkpt lat="43.34692" lon="5.763">
        <ele>460.6</ele>
        <time>2015-03-02T11:21:19Z</time>
      </trkpt>
      <trkpt lat="43.34691" lon="5.76297">
        <ele>460.6</ele>
        <time>2015-03-02T11:21:25Z</time>
      </trkpt>
      <trkpt lat="43.34686" lon="5.76293">
        <ele>460.6</ele>
        <time>2015-03-02T11:21:39Z</time>
      </trkpt>
      <trkpt lat="43.34686" lon="5.76292">
        <ele>461.1</ele>
        <time>2015-03-02T11:21:56Z</time>
      </trkpt>
      <trkpt lat="43.34684" lon="5.76288">
        <ele>461.1</ele>
        <time>2015-03-02T11:22:06Z</time>
      </trkpt>
      <trkpt lat="43.34682" lon="5.76286">
        <ele>462</ele>
        <time>2015-03-02T11:22:16Z</time>
      </trkpt>
      <trkpt lat="43.3468" lon="5.76284">
        <ele>462.5</ele>
        <time>2015-03-02T11:22:24Z</time>
      </trkpt>
      <trkpt lat="43.34674" lon="5.76276">
        <ele>463</ele>
        <time>2015-03-02T11:22:33Z</time>
      </trkpt>
      <trkpt lat="43.34671" lon="5.76273">
        <ele>463</ele>
        <time>2015-03-02T11:22:41Z</time>
      </trkpt>
      <trkpt lat="43.34668" lon="5.76268">
        <ele>463.5</ele>
        <time>2015-03-02T11:22:49Z</time>
      </trkpt>
      <trkpt lat="43.34661" lon="5.76262">
        <ele>464.5</ele>
        <time>2015-03-02T11:22:56Z</time>
      </trkpt>
      <trkpt lat="43.34655" lon="5.76261">
        <ele>464.9</ele>
        <time>2015-03-02T11:23:03Z</time>
      </trkpt>
      <trkpt lat="43.34652" lon="5.76259">
        <ele>465.4</ele>
        <time>2015-03-02T11:23:12Z</time>
      </trkpt>
      <trkpt lat="43.34647" lon="5.76258">
        <ele>465.4</ele>
        <time>2015-03-02T11:23:19Z</time>
      </trkpt>
      <trkpt lat="43.34643" lon="5.76256">
        <ele>465.4</ele>
        <time>2015-03-02T11:23:25Z</time>
      </trkpt>
      <trkpt lat="43.34638" lon="5.76258">
        <ele>464.9</ele>
        <time>2015-03-02T11:23:33Z</time>
      </trkpt>
      <trkpt lat="43.34633" lon="5.76258">
        <ele>465.4</ele>
        <time>2015-03-02T11:23:40Z</time>
      </trkpt>
      <trkpt lat="43.34624" lon="5.76256">
        <ele>466.4</ele>
        <time>2015-03-02T11:23:49Z</time>
      </trkpt>
      <trkpt lat="43.34619" lon="5.76253">
        <ele>465.9</ele>
        <time>2015-03-02T11:23:56Z</time>
      </trkpt>
      <trkpt lat="43.34616" lon="5.76248">
        <ele>466.4</ele>
        <time>2015-03-02T11:24:07Z</time>
      </trkpt>
      <trkpt lat="43.34612" lon="5.76239">
        <ele>466.9</ele>
        <time>2015-03-02T11:24:15Z</time>
      </trkpt>
      <trkpt lat="43.34608" lon="5.76234">
        <ele>467.8</ele>
        <time>2015-03-02T11:24:23Z</time>
      </trkpt>
      <trkpt lat="43.34605" lon="5.76227">
        <ele>468.3</ele>
        <time>2015-03-02T11:24:30Z</time>
      </trkpt>
      <trkpt lat="43.346" lon="5.76218">
        <ele>469.3</ele>
        <time>2015-03-02T11:24:40Z</time>
      </trkpt>
      <trkpt lat="43.34594" lon="5.76212">
        <ele>469.7</ele>
        <time>2015-03-02T11:24:50Z</time>
      </trkpt>
      <trkpt lat="43.34588" lon="5.76207">
        <ele>469.7</ele>
        <time>2015-03-02T11:24:59Z</time>
      </trkpt>
      <trkpt lat="43.34584" lon="5.76205">
        <ele>469.7</ele>
        <time>2015-03-02T11:25:07Z</time>
      </trkpt>
      <trkpt lat="43.34581" lon="5.76203">
        <ele>470.2</ele>
        <time>2015-03-02T11:25:14Z</time>
      </trkpt>
      <trkpt lat="43.34579" lon="5.76199">
        <ele>470.2</ele>
        <time>2015-03-02T11:25:24Z</time>
      </trkpt>
      <trkpt lat="43.34572" lon="5.7619">
        <ele>470.7</ele>
        <time>2015-03-02T11:25:34Z</time>
      </trkpt>
      <trkpt lat="43.34567" lon="5.76185">
        <ele>472.1</ele>
        <time>2015-03-02T11:25:43Z</time>
      </trkpt>
      <trkpt lat="43.34563" lon="5.76182">
        <ele>472.6</ele>
        <time>2015-03-02T11:25:52Z</time>
      </trkpt>
      <trkpt lat="43.34556" lon="5.76177">
        <ele>492.8</ele>
      </trkpt>
      <trkpt lat="43.34551" lon="5.76185">
        <ele>492.8</ele>
      </trkpt>
      <trkpt lat="43.34544" lon="5.762">
        <ele>492.7</ele>
      </trkpt>
      <trkpt lat="43.34521" lon="5.76162">
        <ele>502</ele>
      </trkpt>
      <trkpt lat="43.34517" lon="5.76159">
        <ele>501.8</ele>
      </trkpt>
      <trkpt lat="43.34505" lon="5.76173">
        <ele>496.7</ele>
      </trkpt>
      <trkpt lat="43.34492" lon="5.7617">
        <ele>503.3</ele>
      </trkpt>
      <trkpt lat="43.34486" lon="5.76142">
        <ele>514.6</ele>
      </trkpt>
      <trkpt lat="43.34481" lon="5.76073">
        <ele>525.8</ele>
      </trkpt>
      <trkpt lat="43.34475" lon="5.76042">
        <ele>533.8</ele>
      </trkpt>
      <trkpt lat="43.34467" lon="5.76018">
        <ele>537.2</ele>
      </trkpt>
      <trkpt lat="43.34459" lon="5.76001">
        <ele>539.7</ele>
      </trkpt>
      <trkpt lat="43.34447" lon="5.75982">
        <ele>554.7</ele>
      </trkpt>
      <trkpt lat="43.3443" lon="5.75964">
        <ele>557.6</ele>
      </trkpt>
      <trkpt lat="43.34406" lon="5.75942">
        <ele>586.8</ele>
      </trkpt>
      <trkpt lat="43.34396" lon="5.75882">
        <ele>610.1</ele>
      </trkpt>
      <trkpt lat="43.34411" lon="5.75831">
        <ele>609</ele>
      </trkpt>
      <trkpt lat="43.34418" lon="5.75835">
        <ele>593.8</ele>
      </trkpt>
      <trkpt lat="43.34408" lon="5.75831">
        <ele>614.6</ele>
      </trkpt>
      <trkpt lat="43.34393" lon="5.75882">
        <ele>611.1</ele>
      </trkpt>
      <trkpt lat="43.34404" lon="5.75948">
        <ele>587.9</ele>
      </trkpt>
      <trkpt lat="43.34408" lon="5.76">
        <ele>568.5</ele>
      </trkpt>
      <trkpt lat="43.34404" lon="5.76132">
        <ele>553.9</ele>
      </trkpt>
      <trkpt lat="43.3436" lon="5.76239">
        <ele>545.9</ele>
      </trkpt>
      <trkpt lat="43.34367" lon="5.76332">
        <ele>550</ele>
      </trkpt>
      <trkpt lat="43.3438" lon="5.76333">
        <ele>547.5</ele>
      </trkpt>
      <trkpt lat="43.34388" lon="5.76321">
        <ele>545.9</ele>
      </trkpt>
      <trkpt lat="43.34396" lon="5.76318">
        <ele>544.8</ele>
      </trkpt>
      <trkpt lat="43.34401" lon="5.7632">
        <ele>544.4</ele>
      </trkpt>
      <trkpt lat="43.34428" lon="5.7631">
        <ele>529.8</ele>
      </trkpt>
      <trkpt lat="43.3446" lon="5.76301">
        <ele>523.5</ele>
      </trkpt>
      <trkpt lat="43.34504" lon="5.7629">
        <ele>503.4</ele>
      </trkpt>
      <trkpt lat="43.34515" lon="5.76286">
        <ele>501.7</ele>
      </trkpt>
      <trkpt lat="43.3453" lon="5.76266">
        <ele>498.2</ele>
      </trkpt>
      <trkpt lat="43.34529" lon="5.76248">
        <ele>493.3</ele>
      </trkpt>
      <trkpt lat="43.3452" lon="5.76239">
        <ele>494.5</ele>
      </trkpt>
      <trkpt lat="43.34535" lon="5.76239">
        <ele>492.5</ele>
      </trkpt>
      <trkpt lat="43.34547" lon="5.76249">
        <ele>490.5</ele>
      </trkpt>
      <trkpt lat="43.34558" lon="5.76248">
        <ele>488.4</ele>
      </trkpt>
      <trkpt lat="43.34582" lon="5.7629">
        <ele>494.4</ele>
      </trkpt>
      <trkpt lat="43.346" lon="5.76277">
        <ele>484.6</ele>
      </trkpt>
      <trkpt lat="43.34603" lon="5.76272">
        <ele>484.4</ele>
      </trkpt>
      <trkpt lat="43.34604" lon="5.76265">
        <ele>464.9</ele>
        <time>2015-03-02T11:50:31Z</time>
      </trkpt>
      <trkpt lat="43.34609" lon="5.76274">
        <ele>466.4</ele>
        <time>2015-03-02T11:50:39Z</time>
      </trkpt>
      <trkpt lat="43.34618" lon="5.76275">
        <ele>464.5</ele>
        <time>2015-03-02T11:50:47Z</time>
      </trkpt>
      <trkpt lat="43.34619" lon="5.76278">
        <ele>465.4</ele>
        <time>2015-03-02T11:50:53Z</time>
      </trkpt>
      <trkpt lat="43.3462" lon="5.7628">
        <ele>466.4</ele>
        <time>2015-03-02T11:51:02Z</time>
      </trkpt>
      <trkpt lat="43.34621" lon="5.76281">
        <ele>470.2</ele>
        <time>2015-03-02T11:51:11Z</time>
      </trkpt>
      <trkpt lat="43.34621" lon="5.76281">
        <ele>466.9</ele>
        <time>2015-03-02T11:51:12Z</time>
      </trkpt>
      <trkpt lat="43.34621" lon="5.76282">
        <ele>467.3</ele>
        <time>2015-03-02T11:51:25Z</time>
      </trkpt>
      <trkpt lat="43.34621" lon="5.76283">
        <ele>467.3</ele>
        <time>2015-03-02T11:51:39Z</time>
      </trkpt>
      <trkpt lat="43.34622" lon="5.76285">
        <ele>468.3</ele>
        <time>2015-03-02T11:51:49Z</time>
      </trkpt>
      <trkpt lat="43.34624" lon="5.76287">
        <ele>468.3</ele>
        <time>2015-03-02T11:52:00Z</time>
      </trkpt>
      <trkpt lat="43.34624" lon="5.76287">
        <ele>467.8</ele>
        <time>2015-03-02T11:52:11Z</time>
      </trkpt>
      <trkpt lat="43.34625" lon="5.76286">
        <ele>467.3</ele>
        <time>2015-03-02T11:52:24Z</time>
      </trkpt>
      <trkpt lat="43.34625" lon="5.76285">
        <ele>467.3</ele>
        <time>2015-03-02T11:52:35Z</time>
      </trkpt>
      <trkpt lat="43.34624" lon="5.76287">
        <ele>467.3</ele>
        <time>2015-03-02T11:52:46Z</time>
      </trkpt>
      <trkpt lat="43.34623" lon="5.76287">
        <ele>467.3</ele>
        <time>2015-03-02T11:52:58Z</time>
      </trkpt>
      <trkpt lat="43.34622" lon="5.7629">
        <ele>466.9</ele>
        <time>2015-03-02T11:53:06Z</time>
      </trkpt>
      <trkpt lat="43.34622" lon="5.76289">
        <ele>467.3</ele>
        <time>2015-03-02T11:53:13Z</time>
      </trkpt>
      <trkpt lat="43.34623" lon="5.76289">
        <ele>466.9</ele>
        <time>2015-03-02T11:53:26Z</time>
      </trkpt>
      <trkpt lat="43.34624" lon="5.76288">
        <ele>466.9</ele>
        <time>2015-03-02T11:53:34Z</time>
      </trkpt>
      <trkpt lat="43.34624" lon="5.76286">
        <ele>466.9</ele>
        <time>2015-03-02T11:53:45Z</time>
      </trkpt>
      <trkpt lat="43.34622" lon="5.76287">
        <ele>467.8</ele>
        <time>2015-03-02T11:53:55Z</time>
      </trkpt>
      <trkpt lat="43.3462" lon="5.76283">
        <ele>467.8</ele>
        <time>2015-03-02T11:54:01Z</time>
      </trkpt>
      <trkpt lat="43.3462" lon="5.76284">
        <ele>467.3</ele>
        <time>2015-03-02T11:54:12Z</time>
      </trkpt>
      <trkpt lat="43.3462" lon="5.76288">
        <ele>466.9</ele>
        <time>2015-03-02T11:54:19Z</time>
      </trkpt>
      <trkpt lat="43.34618" lon="5.7629">
        <ele>466.9</ele>
        <time>2015-03-02T11:54:30Z</time>
      </trkpt>
      <trkpt lat="43.34617" lon="5.76287">
        <ele>467.3</ele>
        <time>2015-03-02T11:54:42Z</time>
      </trkpt>
      <trkpt lat="43.34618" lon="5.76288">
        <ele>467.8</ele>
        <time>2015-03-02T11:54:51Z</time>
      </trkpt>
      <trkpt lat="43.34619" lon="5.76286">
        <ele>467.3</ele>
        <time>2015-03-02T11:55:05Z</time>
      </trkpt>
      <trkpt lat="43.3462" lon="5.76289">
        <ele>467.3</ele>
        <time>2015-03-02T11:55:16Z</time>
      </trkpt>
      <trkpt lat="43.3462" lon="5.76291">
        <ele>467.3</ele>
        <time>2015-03-02T11:55:25Z</time>
      </trkpt>
      <trkpt lat="43.3462" lon="5.76292">
        <ele>466.9</ele>
        <time>2015-03-02T11:55:36Z</time>
      </trkpt>
      <trkpt lat="43.34619" lon="5.76292">
        <ele>466.9</ele>
        <time>2015-03-02T11:55:44Z</time>
      </trkpt>
      <trkpt lat="43.34619" lon="5.76285">
        <ele>466.4</ele>
        <time>2015-03-02T11:55:59Z</time>
      </trkpt>
      <trkpt lat="43.34616" lon="5.76276">
        <ele>466.4</ele>
        <time>2015-03-02T11:56:11Z</time>
      </trkpt>
      <trkpt lat="43.34616" lon="5.76277">
        <ele>466.4</ele>
        <time>2015-03-02T11:56:24Z</time>
      </trkpt>
      <trkpt lat="43.34616" lon="5.76282">
        <ele>466.4</ele>
        <time>2015-03-02T11:56:38Z</time>
      </trkpt>
      <trkpt lat="43.34617" lon="5.7628">
        <ele>466.9</ele>
        <time>2015-03-02T11:56:51Z</time>
      </trkpt>
      <trkpt lat="43.34618" lon="5.7628">
        <ele>466.9</ele>
        <time>2015-03-02T11:57:03Z</time>
      </trkpt>
      <trkpt lat="43.34618" lon="5.76281">
        <ele>466.9</ele>
        <time>2015-03-02T11:57:15Z</time>
      </trkpt>
      <trkpt lat="43.34618" lon="5.76284">
        <ele>466.4</ele>
        <time>2015-03-02T11:57:25Z</time>
      </trkpt>
      <trkpt lat="43.34619" lon="5.76286">
        <ele>467.3</ele>
        <time>2015-03-02T11:57:36Z</time>
      </trkpt>
      <trkpt lat="43.34619" lon="5.76286">
        <ele>466.4</ele>
        <time>2015-03-02T11:57:46Z</time>
      </trkpt>
      <trkpt lat="43.3462" lon="5.76284">
        <ele>466.4</ele>
        <time>2015-03-02T11:57:57Z</time>
      </trkpt>
      <trkpt lat="43.34619" lon="5.76275">
        <ele>466.9</ele>
        <time>2015-03-02T11:58:08Z</time>
      </trkpt>
      <trkpt lat="43.34618" lon="5.76272">
        <ele>467.3</ele>
        <time>2015-03-02T11:58:20Z</time>
      </trkpt>
      <trkpt lat="43.34617" lon="5.7628">
        <ele>466.9</ele>
        <time>2015-03-02T11:58:36Z</time>
      </trkpt>
      <trkpt lat="43.34614" lon="5.76285">
        <ele>466.9</ele>
        <time>2015-03-02T11:58:46Z</time>
      </trkpt>
      <trkpt lat="43.34614" lon="5.76287">
        <ele>466.9</ele>
        <time>2015-03-02T11:59:00Z</time>
      </trkpt>
      <trkpt lat="43.34615" lon="5.76288">
        <ele>466.4</ele>
        <time>2015-03-02T11:59:19Z</time>
      </trkpt>
      <trkpt lat="43.34615" lon="5.76289">
        <ele>466.9</ele>
        <time>2015-03-02T11:59:37Z</time>
      </trkpt>
      <trkpt lat="43.34615" lon="5.76289">
        <ele>466.9</ele>
        <time>2015-03-02T11:59:57Z</time>
      </trkpt>
      <trkpt lat="43.34616" lon="5.76289">
        <ele>466.4</ele>
        <time>2015-03-02T12:00:15Z</time>
      </trkpt>
      <trkpt lat="43.34617" lon="5.7629">
        <ele>467.3</ele>
        <time>2015-03-02T12:00:23Z</time>
      </trkpt>
      <trkpt lat="43.34619" lon="5.7629">
        <ele>467.3</ele>
        <time>2015-03-02T12:00:36Z</time>
      </trkpt>
      <trkpt lat="43.34619" lon="5.76291">
        <ele>467.8</ele>
        <time>2015-03-02T12:00:47Z</time>
      </trkpt>
      <trkpt lat="43.34618" lon="5.7629">
        <ele>468.3</ele>
        <time>2015-03-02T12:01:01Z</time>
      </trkpt>
      <trkpt lat="43.34618" lon="5.76291">
        <ele>468.8</ele>
        <time>2015-03-02T12:01:10Z</time>
      </trkpt>
      <trkpt lat="43.34618" lon="5.76291">
        <ele>468.3</ele>
        <time>2015-03-02T12:01:22Z</time>
      </trkpt>
      <trkpt lat="43.34617" lon="5.7629">
        <ele>468.3</ele>
        <time>2015-03-02T12:01:30Z</time>
      </trkpt>
      <trkpt lat="43.34615" lon="5.7629">
        <ele>468.3</ele>
        <time>2015-03-02T12:01:41Z</time>
      </trkpt>
      <trkpt lat="43.34616" lon="5.76291">
        <ele>468.3</ele>
        <time>2015-03-02T12:01:49Z</time>
      </trkpt>
      <trkpt lat="43.34616" lon="5.76291">
        <ele>467.8</ele>
        <time>2015-03-02T12:02:06Z</time>
      </trkpt>
      <trkpt lat="43.34619" lon="5.7629">
        <ele>467.8</ele>
        <time>2015-03-02T12:02:13Z</time>
      </trkpt>
      <trkpt lat="43.34621" lon="5.76291">
        <ele>466.9</ele>
        <time>2015-03-02T12:02:21Z</time>
      </trkpt>
      <trkpt lat="43.34621" lon="5.76291">
        <ele>466.9</ele>
        <time>2015-03-02T12:02:38Z</time>
      </trkpt>
      <trkpt lat="43.34622" lon="5.76291">
        <ele>467.3</ele>
        <time>2015-03-02T12:02:55Z</time>
      </trkpt>
      <trkpt lat="43.34622" lon="5.76289">
        <ele>467.8</ele>
        <time>2015-03-02T12:03:14Z</time>
      </trkpt>
      <trkpt lat="43.34621" lon="5.76289">
        <ele>467.8</ele>
        <time>2015-03-02T12:03:31Z</time>
      </trkpt>
      <trkpt lat="43.34621" lon="5.76289">
        <ele>466.9</ele>
        <time>2015-03-02T12:03:49Z</time>
      </trkpt>
      <trkpt lat="43.34621" lon="5.76289">
        <ele>466.9</ele>
        <time>2015-03-02T12:04:08Z</time>
      </trkpt>
      <trkpt lat="43.34621" lon="5.76289">
        <ele>467.8</ele>
        <time>2015-03-02T12:04:24Z</time>
      </trkpt>
      <trkpt lat="43.34621" lon="5.76289">
        <ele>467.8</ele>
        <time>2015-03-02T12:04:42Z</time>
      </trkpt>
      <trkpt lat="43.34622" lon="5.76289">
        <ele>467.8</ele>
        <time>2015-03-02T12:04:58Z</time>
      </trkpt>
      <trkpt lat="43.34622" lon="5.76289">
        <ele>468.3</ele>
        <time>2015-03-02T12:05:15Z</time>
      </trkpt>
      <trkpt lat="43.34623" lon="5.76289">
        <ele>468.3</ele>
        <time>2015-03-02T12:05:31Z</time>
      </trkpt>
      <trkpt lat="43.34623" lon="5.7629">
        <ele>468.3</ele>
        <time>2015-03-02T12:05:48Z</time>
      </trkpt>
      <trkpt lat="43.34624" lon="5.76289">
        <ele>468.3</ele>
        <time>2015-03-02T12:06:04Z</time>
      </trkpt>
      <trkpt lat="43.34624" lon="5.76289">
        <ele>467.8</ele>
        <time>2015-03-02T12:06:19Z</time>
      </trkpt>
      <trkpt lat="43.34624" lon="5.76289">
        <ele>468.3</ele>
        <time>2015-03-02T12:06:35Z</time>
      </trkpt>
      <trkpt lat="43.34623" lon="5.76289">
        <ele>468.8</ele>
        <time>2015-03-02T12:06:52Z</time>
      </trkpt>
      <trkpt lat="43.34624" lon="5.76288">
        <ele>469.3</ele>
        <time>2015-03-02T12:07:12Z</time>
      </trkpt>
      <trkpt lat="43.34624" lon="5.76288">
        <ele>469.3</ele>
        <time>2015-03-02T12:07:29Z</time>
      </trkpt>
      <trkpt lat="43.34624" lon="5.76288">
        <ele>468.8</ele>
        <time>2015-03-02T12:07:47Z</time>
      </trkpt>
      <trkpt lat="43.34624" lon="5.76287">
        <ele>469.3</ele>
        <time>2015-03-02T12:08:04Z</time>
      </trkpt>
      <trkpt lat="43.34623" lon="5.76287">
        <ele>469.7</ele>
        <time>2015-03-02T12:08:23Z</time>
      </trkpt>
      <trkpt lat="43.34623" lon="5.76287">
        <ele>469.7</ele>
        <time>2015-03-02T12:08:40Z</time>
      </trkpt>
      <trkpt lat="43.34623" lon="5.76287">
        <ele>469.3</ele>
        <time>2015-03-02T12:08:56Z</time>
      </trkpt>
      <trkpt lat="43.34622" lon="5.76287">
        <ele>469.7</ele>
        <time>2015-03-02T12:09:14Z</time>
      </trkpt>
      <trkpt lat="43.34622" lon="5.76286">
        <ele>469.7</ele>
        <time>2015-03-02T12:09:30Z</time>
      </trkpt>
      <trkpt lat="43.34622" lon="5.76287">
        <ele>469.7</ele>
        <time>2015-03-02T12:09:46Z</time>
      </trkpt>
      <trkpt lat="43.34623" lon="5.76287">
        <ele>469.7</ele>
        <time>2015-03-02T12:10:04Z</time>
      </trkpt>
      <trkpt lat="43.34622" lon="5.76287">
        <ele>469.3</ele>
        <time>2015-03-02T12:10:18Z</time>
      </trkpt>
      <trkpt lat="43.34622" lon="5.76287">
        <ele>469.7</ele>
        <time>2015-03-02T12:10:36Z</time>
      </trkpt>
      <trkpt lat="43.34622" lon="5.76287">
        <ele>469.3</ele>
        <time>2015-03-02T12:10:51Z</time>
      </trkpt>
      <trkpt lat="43.34622" lon="5.76287">
        <ele>468.3</ele>
        <time>2015-03-02T12:11:06Z</time>
      </trkpt>
      <trkpt lat="43.34622" lon="5.76287">
        <ele>468.3</ele>
        <time>2015-03-02T12:11:23Z</time>
      </trkpt>
      <trkpt lat="43.34622" lon="5.76287">
        <ele>468.8</ele>
        <time>2015-03-02T12:11:43Z</time>
      </trkpt>
      <trkpt lat="43.34623" lon="5.76287">
        <ele>468.8</ele>
        <time>2015-03-02T12:12:02Z</time>
      </trkpt>
      <trkpt lat="43.34623" lon="5.76287">
        <ele>468.8</ele>
        <time>2015-03-02T12:12:20Z</time>
      </trkpt>
      <trkpt lat="43.34623" lon="5.76287">
        <ele>468.8</ele>
        <time>2015-03-02T12:12:37Z</time>
      </trkpt>
      <trkpt lat="43.34623" lon="5.76288">
        <ele>468.8</ele>
        <time>2015-03-02T12:12:55Z</time>
      </trkpt>
      <trkpt lat="43.34622" lon="5.76288">
        <ele>469.3</ele>
        <time>2015-03-02T12:13:12Z</time>
      </trkpt>
      <trkpt lat="43.34622" lon="5.76287">
        <ele>469.3</ele>
        <time>2015-03-02T12:13:35Z</time>
      </trkpt>
      <trkpt lat="43.34622" lon="5.76287">
        <ele>469.3</ele>
        <time>2015-03-02T12:13:53Z</time>
      </trkpt>
      <trkpt lat="43.34622" lon="5.76287">
        <ele>469.7</ele>
        <time>2015-03-02T12:14:13Z</time>
      </trkpt>
      <trkpt lat="43.34622" lon="5.76287">
        <ele>470.2</ele>
        <time>2015-03-02T12:14:33Z</time>
      </trkpt>
      <trkpt lat="43.34622" lon="5.76287">
        <ele>469.7</ele>
        <time>2015-03-02T12:14:51Z</time>
      </trkpt>
      <trkpt lat="43.34623" lon="5.76286">
        <ele>469.7</ele>
        <time>2015-03-02T12:15:11Z</time>
      </trkpt>
      <trkpt lat="43.34624" lon="5.76286">
        <ele>470.2</ele>
        <time>2015-03-02T12:15:33Z</time>
      </trkpt>
      <trkpt lat="43.34624" lon="5.76286">
        <ele>470.2</ele>
        <time>2015-03-02T12:15:51Z</time>
      </trkpt>
      <trkpt lat="43.34624" lon="5.76286">
        <ele>470.7</ele>
        <time>2015-03-02T12:16:10Z</time>
      </trkpt>
      <trkpt lat="43.34624" lon="5.76287">
        <ele>472.1</ele>
        <time>2015-03-02T12:16:26Z</time>
      </trkpt>
      <trkpt lat="43.34623" lon="5.76287">
        <ele>471.7</ele>
        <time>2015-03-02T12:16:45Z</time>
      </trkpt>
      <trkpt lat="43.34623" lon="5.76288">
        <ele>470.7</ele>
        <time>2015-03-02T12:16:59Z</time>
      </trkpt>
      <trkpt lat="43.34623" lon="5.76288">
        <ele>470.2</ele>
        <time>2015-03-02T12:17:16Z</time>
      </trkpt>
      <trkpt lat="43.34623" lon="5.76288">
        <ele>469.7</ele>
        <time>2015-03-02T12:17:24Z</time>
      </trkpt>
      <trkpt lat="43.34623" lon="5.76288">
        <ele>468.8</ele>
        <time>2015-03-02T12:17:36Z</time>
      </trkpt>
      <trkpt lat="43.34622" lon="5.76288">
        <ele>469.3</ele>
        <time>2015-03-02T12:17:52Z</time>
      </trkpt>
      <trkpt lat="43.34622" lon="5.76288">
        <ele>469.3</ele>
        <time>2015-03-02T12:18:11Z</time>
      </trkpt>
      <trkpt lat="43.34622" lon="5.76287">
        <ele>469.3</ele>
        <time>2015-03-02T12:18:27Z</time>
      </trkpt>
      <trkpt lat="43.34623" lon="5.76287">
        <ele>470.2</ele>
        <time>2015-03-02T12:18:48Z</time>
      </trkpt>
      <trkpt lat="43.34623" lon="5.76287">
        <ele>470.7</ele>
        <time>2015-03-02T12:19:07Z</time>
      </trkpt>
      <trkpt lat="43.34623" lon="5.76287">
        <ele>470.7</ele>
        <time>2015-03-02T12:19:24Z</time>
      </trkpt>
      <trkpt lat="43.34623" lon="5.76289">
        <ele>470.7</ele>
        <time>2015-03-02T12:19:43Z</time>
      </trkpt>
      <trkpt lat="43.34623" lon="5.76289">
        <ele>471.2</ele>
        <time>2015-03-02T12:20:02Z</time>
      </trkpt>
      <trkpt lat="43.34623" lon="5.76289">
        <ele>470.2</ele>
        <time>2015-03-02T12:20:20Z</time>
      </trkpt>
      <trkpt lat="43.34624" lon="5.76289">
        <ele>470.7</ele>
        <time>2015-03-02T12:20:36Z</time>
      </trkpt>
      <trkpt lat="43.34624" lon="5.76288">
        <ele>470.7</ele>
        <time>2015-03-02T12:20:53Z</time>
      </trkpt>
      <trkpt lat="43.34625" lon="5.76288">
        <ele>470.7</ele>
        <time>2015-03-02T12:21:12Z</time>
      </trkpt>
      <trkpt lat="43.34625" lon="5.76288">
        <ele>471.2</ele>
        <time>2015-03-02T12:21:29Z</time>
      </trkpt>
      <trkpt lat="43.34624" lon="5.76289">
        <ele>471.2</ele>
        <time>2015-03-02T12:21:48Z</time>
      </trkpt>
      <trkpt lat="43.34623" lon="5.76289">
        <ele>470.7</ele>
        <time>2015-03-02T12:22:08Z</time>
      </trkpt>
      <trkpt lat="43.34623" lon="5.76289">
        <ele>470.2</ele>
        <time>2015-03-02T12:22:25Z</time>
      </trkpt>
      <trkpt lat="43.34623" lon="5.76288">
        <ele>471.7</ele>
        <time>2015-03-02T12:22:43Z</time>
      </trkpt>
      <trkpt lat="43.34622" lon="5.76288">
        <ele>471.2</ele>
        <time>2015-03-02T12:23:03Z</time>
      </trkpt>
      <trkpt lat="43.34622" lon="5.76288">
        <ele>471.2</ele>
        <time>2015-03-02T12:23:19Z</time>
      </trkpt>
      <trkpt lat="43.34622" lon="5.76288">
        <ele>471.2</ele>
        <time>2015-03-02T12:23:36Z</time>
      </trkpt>
      <trkpt lat="43.34622" lon="5.76288">
        <ele>471.2</ele>
        <time>2015-03-02T12:23:54Z</time>
      </trkpt>
      <trkpt lat="43.34622" lon="5.76288">
        <ele>471.2</ele>
        <time>2015-03-02T12:24:10Z</time>
      </trkpt>
      <trkpt lat="43.34622" lon="5.76288">
        <ele>471.2</ele>
        <time>2015-03-02T12:24:24Z</time>
      </trkpt>
      <trkpt lat="43.34622" lon="5.76287">
        <ele>471.2</ele>
        <time>2015-03-02T12:24:40Z</time>
      </trkpt>
      <trkpt lat="43.34621" lon="5.76287">
        <ele>471.7</ele>
        <time>2015-03-02T12:24:57Z</time>
      </trkpt>
      <trkpt lat="43.34621" lon="5.76286">
        <ele>471.7</ele>
        <time>2015-03-02T12:25:14Z</time>
      </trkpt>
      <trkpt lat="43.34622" lon="5.76286">
        <ele>471.7</ele>
        <time>2015-03-02T12:25:30Z</time>
      </trkpt>
      <trkpt lat="43.34623" lon="5.76286">
        <ele>472.1</ele>
        <time>2015-03-02T12:25:46Z</time>
      </trkpt>
      <trkpt lat="43.34623" lon="5.76287">
        <ele>471.7</ele>
        <time>2015-03-02T12:26:02Z</time>
      </trkpt>
      <trkpt lat="43.34622" lon="5.76287">
        <ele>472.6</ele>
        <time>2015-03-02T12:26:18Z</time>
      </trkpt>
      <trkpt lat="43.34622" lon="5.76287">
        <ele>472.6</ele>
        <time>2015-03-02T12:26:35Z</time>
      </trkpt>
      <trkpt lat="43.34622" lon="5.76287">
        <ele>471.7</ele>
        <time>2015-03-02T12:26:53Z</time>
      </trkpt>
      <trkpt lat="43.34623" lon="5.76287">
        <ele>471.7</ele>
        <time>2015-03-02T12:27:10Z</time>
      </trkpt>
      <trkpt lat="43.34623" lon="5.76288">
        <ele>471.7</ele>
        <time>2015-03-02T12:27:29Z</time>
      </trkpt>
      <trkpt lat="43.34623" lon="5.76288">
        <ele>471.7</ele>
        <time>2015-03-02T12:27:48Z</time>
      </trkpt>
      <trkpt lat="43.34622" lon="5.76287">
        <ele>472.1</ele>
        <time>2015-03-02T12:28:03Z</time>
      </trkpt>
      <trkpt lat="43.34622" lon="5.76287">
        <ele>472.1</ele>
        <time>2015-03-02T12:28:18Z</time>
      </trkpt>
      <trkpt lat="43.34622" lon="5.76286">
        <ele>472.1</ele>
        <time>2015-03-02T12:28:38Z</time>
      </trkpt>
      <trkpt lat="43.34623" lon="5.76287">
        <ele>472.1</ele>
        <time>2015-03-02T12:28:59Z</time>
      </trkpt>
      <trkpt lat="43.34623" lon="5.76287">
        <ele>472.6</ele>
        <time>2015-03-02T12:29:18Z</time>
      </trkpt>
      <trkpt lat="43.34623" lon="5.76289">
        <ele>472.1</ele>
        <time>2015-03-02T12:29:34Z</time>
      </trkpt>
      <trkpt lat="43.34623" lon="5.76288">
        <ele>472.6</ele>
        <time>2015-03-02T12:29:52Z</time>
      </trkpt>
      <trkpt lat="43.34623" lon="5.76288">
        <ele>473.1</ele>
        <time>2015-03-02T12:30:09Z</time>
      </trkpt>
      <trkpt lat="43.34623" lon="5.76289">
        <ele>473.1</ele>
        <time>2015-03-02T12:30:24Z</time>
      </trkpt>
      <trkpt lat="43.34623" lon="5.76289">
        <ele>474.1</ele>
        <time>2015-03-02T12:30:44Z</time>
      </trkpt>
      <trkpt lat="43.34623" lon="5.7629">
        <ele>473.1</ele>
        <time>2015-03-02T12:31:01Z</time>
      </trkpt>
      <trkpt lat="43.34623" lon="5.7629">
        <ele>473.1</ele>
        <time>2015-03-02T12:31:19Z</time>
      </trkpt>
      <trkpt lat="43.34623" lon="5.76289">
        <ele>473.6</ele>
        <time>2015-03-02T12:31:37Z</time>
      </trkpt>
      <trkpt lat="43.34623" lon="5.76289">
        <ele>473.6</ele>
        <time>2015-03-02T12:31:54Z</time>
      </trkpt>
      <trkpt lat="43.34623" lon="5.76289">
        <ele>473.1</ele>
        <time>2015-03-02T12:32:13Z</time>
      </trkpt>
      <trkpt lat="43.34623" lon="5.76289">
        <ele>473.1</ele>
        <time>2015-03-02T12:32:30Z</time>
      </trkpt>
      <trkpt lat="43.34623" lon="5.76289">
        <ele>472.6</ele>
        <time>2015-03-02T12:32:46Z</time>
      </trkpt>
      <trkpt lat="43.34623" lon="5.76289">
        <ele>472.6</ele>
        <time>2015-03-02T12:33:04Z</time>
      </trkpt>
      <trkpt lat="43.34623" lon="5.76289">
        <ele>474.1</ele>
        <time>2015-03-02T12:33:22Z</time>
      </trkpt>
      <trkpt lat="43.34623" lon="5.76289">
        <ele>474.1</ele>
        <time>2015-03-02T12:33:33Z</time>
      </trkpt>
      <trkpt lat="43.34623" lon="5.76288">
        <ele>474.1</ele>
        <time>2015-03-02T12:33:46Z</time>
      </trkpt>
      <trkpt lat="43.34623" lon="5.76288">
        <ele>474.5</ele>
        <time>2015-03-02T12:33:53Z</time>
      </trkpt>
      <trkpt lat="43.34623" lon="5.76287">
        <ele>475</ele>
        <time>2015-03-02T12:34:04Z</time>
      </trkpt>
      <trkpt lat="43.34622" lon="5.76287">
        <ele>475</ele>
        <time>2015-03-02T12:34:15Z</time>
      </trkpt>
      <trkpt lat="43.3462" lon="5.76285">
        <ele>474.5</ele>
        <time>2015-03-02T12:34:26Z</time>
      </trkpt>
      <trkpt lat="43.34619" lon="5.76282">
        <ele>474.5</ele>
        <time>2015-03-02T12:34:33Z</time>
      </trkpt>
      <trkpt lat="43.3462" lon="5.76281">
        <ele>475</ele>
        <time>2015-03-02T12:34:45Z</time>
      </trkpt>
      <trkpt lat="43.34621" lon="5.7628">
        <ele>474.5</ele>
        <time>2015-03-02T12:34:58Z</time>
      </trkpt>
      <trkpt lat="43.34621" lon="5.76283">
        <ele>474.1</ele>
        <time>2015-03-02T12:35:16Z</time>
      </trkpt>
      <trkpt lat="43.3462" lon="5.76283">
        <ele>474.1</ele>
        <time>2015-03-02T12:35:30Z</time>
      </trkpt>
      <trkpt lat="43.3462" lon="5.76284">
        <ele>474.5</ele>
        <time>2015-03-02T12:35:42Z</time>
      </trkpt>
      <trkpt lat="43.3462" lon="5.76284">
        <ele>474.5</ele>
        <time>2015-03-02T12:35:57Z</time>
      </trkpt>
      <trkpt lat="43.3462" lon="5.76281">
        <ele>473.6</ele>
        <time>2015-03-02T12:36:05Z</time>
      </trkpt>
      <trkpt lat="43.34614" lon="5.76277">
        <ele>474.1</ele>
        <time>2015-03-02T12:36:14Z</time>
      </trkpt>
      <trkpt lat="43.34612" lon="5.76278">
        <ele>474.1</ele>
        <time>2015-03-02T12:36:23Z</time>
      </trkpt>
      <trkpt lat="43.34613" lon="5.76277">
        <ele>474.1</ele>
        <time>2015-03-02T12:36:30Z</time>
      </trkpt>
      <trkpt lat="43.34615" lon="5.76276">
        <ele>473.6</ele>
        <time>2015-03-02T12:36:39Z</time>
      </trkpt>
      <trkpt lat="43.34615" lon="5.76277">
        <ele>474.1</ele>
        <time>2015-03-02T12:36:55Z</time>
      </trkpt>
      <trkpt lat="43.34615" lon="5.76276">
        <ele>473.6</ele>
        <time>2015-03-02T12:37:06Z</time>
      </trkpt>
      <trkpt lat="43.34621" lon="5.76278">
        <ele>474.1</ele>
        <time>2015-03-02T12:37:14Z</time>
      </trkpt>
      <trkpt lat="43.34621" lon="5.76283">
        <ele>474.5</ele>
        <time>2015-03-02T12:37:25Z</time>
      </trkpt>
      <trkpt lat="43.34621" lon="5.76284">
        <ele>474.5</ele>
        <time>2015-03-02T12:37:39Z</time>
      </trkpt>
      <trkpt lat="43.34621" lon="5.76284">
        <ele>475</ele>
        <time>2015-03-02T12:37:54Z</time>
      </trkpt>
      <trkpt lat="43.34621" lon="5.76284">
        <ele>475</ele>
        <time>2015-03-02T12:38:05Z</time>
      </trkpt>
      <trkpt lat="43.34621" lon="5.76284">
        <ele>474.5</ele>
        <time>2015-03-02T12:38:20Z</time>
      </trkpt>
      <trkpt lat="43.34621" lon="5.76284">
        <ele>475</ele>
        <time>2015-03-02T12:38:32Z</time>
      </trkpt>
      <trkpt lat="43.34621" lon="5.76284">
        <ele>474.1</ele>
        <time>2015-03-02T12:38:43Z</time>
      </trkpt>
      <trkpt lat="43.34621" lon="5.76284">
        <ele>474.1</ele>
        <time>2015-03-02T12:38:59Z</time>
      </trkpt>
      <trkpt lat="43.3462" lon="5.76285">
        <ele>473.1</ele>
        <time>2015-03-02T12:39:15Z</time>
      </trkpt>
      <trkpt lat="43.3462" lon="5.76285">
        <ele>473.6</ele>
        <time>2015-03-02T12:39:28Z</time>
      </trkpt>
      <trkpt lat="43.3462" lon="5.76284">
        <ele>473.6</ele>
        <time>2015-03-02T12:39:44Z</time>
      </trkpt>
      <trkpt lat="43.34621" lon="5.76285">
        <ele>472.6</ele>
        <time>2015-03-02T12:39:57Z</time>
      </trkpt>
      <trkpt lat="43.34621" lon="5.76285">
        <ele>473.6</ele>
        <time>2015-03-02T12:40:08Z</time>
      </trkpt>
      <trkpt lat="43.34621" lon="5.76285">
        <ele>474.5</ele>
        <time>2015-03-02T12:40:19Z</time>
      </trkpt>
      <trkpt lat="43.3462" lon="5.76284">
        <ele>475</ele>
        <time>2015-03-02T12:40:31Z</time>
      </trkpt>
      <trkpt lat="43.3462" lon="5.76284">
        <ele>475.5</ele>
        <time>2015-03-02T12:40:48Z</time>
      </trkpt>
      <trkpt lat="43.3462" lon="5.76285">
        <ele>475.5</ele>
        <time>2015-03-02T12:41:02Z</time>
      </trkpt>
      <trkpt lat="43.3462" lon="5.76285">
        <ele>475.5</ele>
        <time>2015-03-02T12:41:16Z</time>
      </trkpt>
      <trkpt lat="43.34619" lon="5.76284">
        <ele>476</ele>
        <time>2015-03-02T12:41:30Z</time>
      </trkpt>
      <trkpt lat="43.34618" lon="5.76285">
        <ele>476</ele>
        <time>2015-03-02T12:41:43Z</time>
      </trkpt>
      <trkpt lat="43.34617" lon="5.76283">
        <ele>475.5</ele>
        <time>2015-03-02T12:41:57Z</time>
      </trkpt>
      <trkpt lat="43.34616" lon="5.76281">
        <ele>474.1</ele>
        <time>2015-03-02T12:42:12Z</time>
      </trkpt>
      <trkpt lat="43.34616" lon="5.76281">
        <ele>475</ele>
        <time>2015-03-02T12:42:26Z</time>
      </trkpt>
      <trkpt lat="43.34614" lon="5.76279">
        <ele>475</ele>
        <time>2015-03-02T12:42:41Z</time>
      </trkpt>
      <trkpt lat="43.34615" lon="5.76279">
        <ele>475.5</ele>
        <time>2015-03-02T12:42:51Z</time>
      </trkpt>
      <trkpt lat="43.34617" lon="5.76281">
        <ele>474.5</ele>
        <time>2015-03-02T12:43:04Z</time>
      </trkpt>
      <trkpt lat="43.34618" lon="5.76282">
        <ele>475</ele>
        <time>2015-03-02T12:43:15Z</time>
      </trkpt>
      <trkpt lat="43.34618" lon="5.76283">
        <ele>475</ele>
        <time>2015-03-02T12:43:30Z</time>
      </trkpt>
      <trkpt lat="43.34617" lon="5.76283">
        <ele>475</ele>
        <time>2015-03-02T12:43:38Z</time>
      </trkpt>
      <trkpt lat="43.34617" lon="5.76283">
        <ele>474.5</ele>
        <time>2015-03-02T12:43:53Z</time>
      </trkpt>
      <trkpt lat="43.34617" lon="5.76283">
        <ele>475</ele>
        <time>2015-03-02T12:44:07Z</time>
      </trkpt>
      <trkpt lat="43.34617" lon="5.76283">
        <ele>475</ele>
        <time>2015-03-02T12:44:21Z</time>
      </trkpt>
      <trkpt lat="43.34618" lon="5.76283">
        <ele>474.5</ele>
        <time>2015-03-02T12:44:33Z</time>
      </trkpt>
      <trkpt lat="43.34616" lon="5.76276">
        <ele>475.5</ele>
        <time>2015-03-02T12:44:44Z</time>
      </trkpt>
      <trkpt lat="43.34618" lon="5.76278">
        <ele>475</ele>
        <time>2015-03-02T12:44:57Z</time>
      </trkpt>
      <trkpt lat="43.34617" lon="5.76278">
        <ele>474.5</ele>
        <time>2015-03-02T12:45:12Z</time>
      </trkpt>
      <trkpt lat="43.34615" lon="5.76278">
        <ele>474.5</ele>
        <time>2015-03-02T12:45:26Z</time>
      </trkpt>
      <trkpt lat="43.34618" lon="5.76281">
        <ele>475</ele>
        <time>2015-03-02T12:45:35Z</time>
      </trkpt>
      <trkpt lat="43.34618" lon="5.76282">
        <ele>475.5</ele>
        <time>2015-03-02T12:45:46Z</time>
      </trkpt>
      <trkpt lat="43.34617" lon="5.76281">
        <ele>475.5</ele>
        <time>2015-03-02T12:45:59Z</time>
      </trkpt>
      <trkpt lat="43.34617" lon="5.7628">
        <ele>474.5</ele>
        <time>2015-03-02T12:46:13Z</time>
      </trkpt>
      <trkpt lat="43.34617" lon="5.76281">
        <ele>473.6</ele>
        <time>2015-03-02T12:46:24Z</time>
      </trkpt>
      <trkpt lat="43.34617" lon="5.76281">
        <ele>474.5</ele>
        <time>2015-03-02T12:46:36Z</time>
      </trkpt>
      <trkpt lat="43.34617" lon="5.76281">
        <ele>474.5</ele>
        <time>2015-03-02T12:46:47Z</time>
      </trkpt>
      <trkpt lat="43.34617" lon="5.76281">
        <ele>474.1</ele>
        <time>2015-03-02T12:46:58Z</time>
      </trkpt>
      <trkpt lat="43.34617" lon="5.7628">
        <ele>473.6</ele>
        <time>2015-03-02T12:47:13Z</time>
      </trkpt>
      <trkpt lat="43.34616" lon="5.7628">
        <ele>474.1</ele>
        <time>2015-03-02T12:47:28Z</time>
      </trkpt>
      <trkpt lat="43.34617" lon="5.76281">
        <ele>474.1</ele>
        <time>2015-03-02T12:47:38Z</time>
      </trkpt>
      <trkpt lat="43.34618" lon="5.76281">
        <ele>473.6</ele>
        <time>2015-03-02T12:47:51Z</time>
      </trkpt>
      <trkpt lat="43.34617" lon="5.76282">
        <ele>474.1</ele>
        <time>2015-03-02T12:48:04Z</time>
      </trkpt>
      <trkpt lat="43.34617" lon="5.76282">
        <ele>474.1</ele>
        <time>2015-03-02T12:48:15Z</time>
      </trkpt>
      <trkpt lat="43.34617" lon="5.76281">
        <ele>474.5</ele>
        <time>2015-03-02T12:48:26Z</time>
      </trkpt>
      <trkpt lat="43.34617" lon="5.76282">
        <ele>476</ele>
        <time>2015-03-02T12:48:38Z</time>
      </trkpt>
      <trkpt lat="43.34617" lon="5.76282">
        <ele>474.5</ele>
        <time>2015-03-02T12:48:51Z</time>
      </trkpt>
      <trkpt lat="43.34617" lon="5.76282">
        <ele>474.1</ele>
        <time>2015-03-02T12:48:57Z</time>
      </trkpt>
      <trkpt lat="43.34617" lon="5.76282">
        <ele>477</ele>
        <time>2015-03-02T12:48:59Z</time>
      </trkpt>
      <trkpt lat="43.34617" lon="5.76282">
        <ele>474.1</ele>
        <time>2015-03-02T12:49:08Z</time>
      </trkpt>
      <trkpt lat="43.34616" lon="5.76282">
        <ele>474.5</ele>
        <time>2015-03-02T12:49:15Z</time>
      </trkpt>
      <trkpt lat="43.34617" lon="5.76284">
        <ele>474.5</ele>
        <time>2015-03-02T12:49:25Z</time>
      </trkpt>
      <trkpt lat="43.34618" lon="5.76286">
        <ele>474.5</ele>
        <time>2015-03-02T12:49:37Z</time>
      </trkpt>
      <trkpt lat="43.34618" lon="5.76286">
        <ele>474.5</ele>
        <time>2015-03-02T12:49:45Z</time>
      </trkpt>
      <trkpt lat="43.34618" lon="5.76286">
        <ele>475</ele>
        <time>2015-03-02T12:49:56Z</time>
      </trkpt>
      <trkpt lat="43.34618" lon="5.76287">
        <ele>475</ele>
        <time>2015-03-02T12:50:11Z</time>
      </trkpt>
      <trkpt lat="43.34618" lon="5.76287">
        <ele>475.5</ele>
        <time>2015-03-02T12:50:22Z</time>
      </trkpt>
      <trkpt lat="43.34619" lon="5.76287">
        <ele>475</ele>
        <time>2015-03-02T12:50:36Z</time>
      </trkpt>
      <trkpt lat="43.34618" lon="5.76287">
        <ele>476</ele>
        <time>2015-03-02T12:50:46Z</time>
      </trkpt>
      <trkpt lat="43.34618" lon="5.76287">
        <ele>476</ele>
        <time>2015-03-02T12:51:01Z</time>
      </trkpt>
      <trkpt lat="43.34618" lon="5.76287">
        <ele>476</ele>
        <time>2015-03-02T12:51:14Z</time>
      </trkpt>
      <trkpt lat="43.34618" lon="5.76288">
        <ele>475</ele>
        <time>2015-03-02T12:51:27Z</time>
      </trkpt>
      <trkpt lat="43.34618" lon="5.76288">
        <ele>474.5</ele>
        <time>2015-03-02T12:51:40Z</time>
      </trkpt>
      <trkpt lat="43.34618" lon="5.76288">
        <ele>473.1</ele>
        <time>2015-03-02T12:51:52Z</time>
      </trkpt>
      <trkpt lat="43.34618" lon="5.76289">
        <ele>474.1</ele>
        <time>2015-03-02T12:52:00Z</time>
      </trkpt>
      <trkpt lat="43.34617" lon="5.76289">
        <ele>474.1</ele>
        <time>2015-03-02T12:52:11Z</time>
      </trkpt>
      <trkpt lat="43.34617" lon="5.7629">
        <ele>474.5</ele>
        <time>2015-03-02T12:52:23Z</time>
      </trkpt>
      <trkpt lat="43.34617" lon="5.76289">
        <ele>474.1</ele>
        <time>2015-03-02T12:52:38Z</time>
      </trkpt>
      <trkpt lat="43.34617" lon="5.76289">
        <ele>474.1</ele>
        <time>2015-03-02T12:52:49Z</time>
      </trkpt>
      <trkpt lat="43.34617" lon="5.76289">
        <ele>474.5</ele>
        <time>2015-03-02T12:52:59Z</time>
      </trkpt>
      <trkpt lat="43.34617" lon="5.76288">
        <ele>475</ele>
        <time>2015-03-02T12:53:13Z</time>
      </trkpt>
      <trkpt lat="43.34617" lon="5.76286">
        <ele>474.5</ele>
        <time>2015-03-02T12:53:23Z</time>
      </trkpt>
      <trkpt lat="43.34617" lon="5.76286">
        <ele>474.5</ele>
        <time>2015-03-02T12:53:36Z</time>
      </trkpt>
      <trkpt lat="43.34617" lon="5.76284">
        <ele>475</ele>
        <time>2015-03-02T12:53:47Z</time>
      </trkpt>
      <trkpt lat="43.34617" lon="5.76283">
        <ele>475</ele>
        <time>2015-03-02T12:54:00Z</time>
      </trkpt>
      <trkpt lat="43.34618" lon="5.76284">
        <ele>475</ele>
        <time>2015-03-02T12:54:12Z</time>
      </trkpt>
      <trkpt lat="43.34619" lon="5.76277">
        <ele>474.1</ele>
        <time>2015-03-02T12:54:21Z</time>
      </trkpt>
      <trkpt lat="43.34621" lon="5.76275">
        <ele>473.6</ele>
        <time>2015-03-02T12:54:29Z</time>
      </trkpt>
      <trkpt lat="43.34626" lon="5.76272">
        <ele>472.6</ele>
        <time>2015-03-02T12:54:35Z</time>
      </trkpt>
      <trkpt lat="43.34632" lon="5.76274">
        <ele>472.6</ele>
        <time>2015-03-02T12:54:43Z</time>
      </trkpt>
      <trkpt lat="43.34638" lon="5.76276">
        <ele>472.1</ele>
        <time>2015-03-02T12:54:51Z</time>
      </trkpt>
      <trkpt lat="43.34643" lon="5.76278">
        <ele>471.2</ele>
        <time>2015-03-02T12:54:57Z</time>
      </trkpt>
      <trkpt lat="43.34649" lon="5.76283">
        <ele>471.7</ele>
        <time>2015-03-02T12:55:05Z</time>
      </trkpt>
      <trkpt lat="43.34655" lon="5.76289">
        <ele>471.7</ele>
        <time>2015-03-02T12:55:13Z</time>
      </trkpt>
      <trkpt lat="43.34661" lon="5.76297">
        <ele>471.2</ele>
        <time>2015-03-02T12:55:22Z</time>
      </trkpt>
      <trkpt lat="43.34666" lon="5.76307">
        <ele>470.2</ele>
        <time>2015-03-02T12:55:30Z</time>
      </trkpt>
      <trkpt lat="43.34672" lon="5.76317">
        <ele>469.7</ele>
        <time>2015-03-02T12:55:38Z</time>
      </trkpt>
      <trkpt lat="43.34676" lon="5.76325">
        <ele>468.8</ele>
        <time>2015-03-02T12:55:47Z</time>
      </trkpt>
      <trkpt lat="43.34682" lon="5.76333">
        <ele>467.8</ele>
        <time>2015-03-02T12:55:55Z</time>
      </trkpt>
      <trkpt lat="43.34687" lon="5.76339">
        <ele>467.3</ele>
        <time>2015-03-02T12:56:03Z</time>
      </trkpt>
      <trkpt lat="43.34689" lon="5.76341">
        <ele>467.3</ele>
        <time>2015-03-02T12:56:05Z</time>
      </trkpt>
      <trkpt lat="43.34695" lon="5.76348">
        <ele>466.9</ele>
        <time>2015-03-02T12:56:13Z</time>
      </trkpt>
      <trkpt lat="43.34698" lon="5.76354">
        <ele>466.4</ele>
        <time>2015-03-02T12:56:21Z</time>
      </trkpt>
      <trkpt lat="43.347" lon="5.76358">
        <ele>465.4</ele>
        <time>2015-03-02T12:56:30Z</time>
      </trkpt>
      <trkpt lat="43.34701" lon="5.7636">
        <ele>464.5</ele>
        <time>2015-03-02T12:56:38Z</time>
      </trkpt>
      <trkpt lat="43.347" lon="5.76366">
        <ele>465.4</ele>
        <time>2015-03-02T12:56:46Z</time>
      </trkpt>
      <trkpt lat="43.34699" lon="5.76372">
        <ele>463.5</ele>
        <time>2015-03-02T12:56:54Z</time>
      </trkpt>
      <trkpt lat="43.347" lon="5.76375">
        <ele>464</ele>
        <time>2015-03-02T12:57:01Z</time>
      </trkpt>
      <trkpt lat="43.34701" lon="5.76382">
        <ele>463</ele>
        <time>2015-03-02T12:57:08Z</time>
      </trkpt>
      <trkpt lat="43.34703" lon="5.76383">
        <ele>462.5</ele>
        <time>2015-03-02T12:57:10Z</time>
      </trkpt>
      <trkpt lat="43.34707" lon="5.76387">
        <ele>462</ele>
        <time>2015-03-02T12:57:14Z</time>
      </trkpt>
      <trkpt lat="43.34722" lon="5.76388">
        <ele>461.6</ele>
        <time>2015-03-02T12:57:21Z</time>
      </trkpt>
      <trkpt lat="43.34725" lon="5.76388">
        <ele>461.6</ele>
        <time>2015-03-02T12:57:22Z</time>
      </trkpt>
      <trkpt lat="43.34736" lon="5.76391">
        <ele>461.1</ele>
        <time>2015-03-02T12:57:30Z</time>
      </trkpt>
      <trkpt lat="43.34741" lon="5.76396">
        <ele>460.1</ele>
        <time>2015-03-02T12:57:40Z</time>
      </trkpt>
      <trkpt lat="43.34744" lon="5.76402">
        <ele>459.2</ele>
        <time>2015-03-02T12:57:48Z</time>
      </trkpt>
      <trkpt lat="43.34746" lon="5.76407">
        <ele>459.2</ele>
        <time>2015-03-02T12:57:58Z</time>
      </trkpt>
      <trkpt lat="43.34758" lon="5.76413">
        <ele>459.2</ele>
        <time>2015-03-02T12:58:07Z</time>
      </trkpt>
      <trkpt lat="43.34764" lon="5.7642">
        <ele>459.6</ele>
        <time>2015-03-02T12:58:17Z</time>
      </trkpt>
      <trkpt lat="43.34773" lon="5.76425">
        <ele>459.6</ele>
        <time>2015-03-02T12:58:29Z</time>
      </trkpt>
      <trkpt lat="43.34775" lon="5.76429">
        <ele>460.1</ele>
        <time>2015-03-02T12:58:38Z</time>
      </trkpt>
      <trkpt lat="43.34791" lon="5.76433">
        <ele>459.6</ele>
        <time>2015-03-02T12:58:48Z</time>
      </trkpt>
      <trkpt lat="43.34805" lon="5.76432">
        <ele>459.2</ele>
        <time>2015-03-02T12:58:58Z</time>
      </trkpt>
      <trkpt lat="43.34812" lon="5.76433">
        <ele>458.7</ele>
        <time>2015-03-02T12:59:06Z</time>
      </trkpt>
      <trkpt lat="43.3482" lon="5.76433">
        <ele>457.7</ele>
        <time>2015-03-02T12:59:15Z</time>
      </trkpt>
      <trkpt lat="43.34822" lon="5.76434">
        <ele>457.2</ele>
        <time>2015-03-02T12:59:24Z</time>
      </trkpt>
      <trkpt lat="43.34824" lon="5.76432">
        <ele>457.2</ele>
        <time>2015-03-02T12:59:33Z</time>
      </trkpt>
      <trkpt lat="43.34826" lon="5.76429">
        <ele>456.3</ele>
        <time>2015-03-02T12:59:41Z</time>
      </trkpt>
      <trkpt lat="43.3483" lon="5.76429">
        <ele>455.3</ele>
        <time>2015-03-02T12:59:49Z</time>
      </trkpt>
      <trkpt lat="43.34833" lon="5.76428">
        <ele>455.8</ele>
        <time>2015-03-02T12:59:59Z</time>
      </trkpt>
      <trkpt lat="43.34835" lon="5.76427">
        <ele>454.8</ele>
        <time>2015-03-02T13:00:11Z</time>
      </trkpt>
      <trkpt lat="43.34836" lon="5.76428">
        <ele>454.4</ele>
        <time>2015-03-02T13:00:22Z</time>
      </trkpt>
      <trkpt lat="43.34836" lon="5.76428">
        <ele>453.9</ele>
        <time>2015-03-02T13:00:33Z</time>
      </trkpt>
      <trkpt lat="43.34838" lon="5.76429">
        <ele>453.9</ele>
        <time>2015-03-02T13:00:40Z</time>
      </trkpt>
      <trkpt lat="43.34839" lon="5.76429">
        <ele>453.4</ele>
        <time>2015-03-02T13:00:48Z</time>
      </trkpt>
      <trkpt lat="43.34841" lon="5.76428">
        <ele>452.9</ele>
        <time>2015-03-02T13:00:56Z</time>
      </trkpt>
      <trkpt lat="43.34844" lon="5.76427">
        <ele>452.4</ele>
        <time>2015-03-02T13:01:05Z</time>
      </trkpt>
      <trkpt lat="43.34853" lon="5.76427">
        <ele>452.4</ele>
        <time>2015-03-02T13:01:14Z</time>
      </trkpt>
      <trkpt lat="43.3488" lon="5.76428">
        <ele>452.4</ele>
        <time>2015-03-02T13:01:24Z</time>
      </trkpt>
      <trkpt lat="43.34896" lon="5.76432">
        <ele>452.9</ele>
        <time>2015-03-02T13:01:33Z</time>
      </trkpt>
      <trkpt lat="43.3491" lon="5.76438">
        <ele>453.9</ele>
        <time>2015-03-02T13:01:44Z</time>
      </trkpt>
      <trkpt lat="43.34916" lon="5.76442">
        <ele>454.4</ele>
        <time>2015-03-02T13:01:54Z</time>
      </trkpt>
      <trkpt lat="43.34926" lon="5.76446">
        <ele>454.4</ele>
        <time>2015-03-02T13:02:03Z</time>
      </trkpt>
      <trkpt lat="43.34932" lon="5.76448">
        <ele>455.3</ele>
        <time>2015-03-02T13:02:12Z</time>
      </trkpt>
      <trkpt lat="43.3494" lon="5.76452">
        <ele>455.8</ele>
        <time>2015-03-02T13:02:20Z</time>
      </trkpt>
      <trkpt lat="43.34947" lon="5.76454">
        <ele>454.8</ele>
        <time>2015-03-02T13:02:30Z</time>
      </trkpt>
      <trkpt lat="43.3495" lon="5.76456">
        <ele>454.4</ele>
        <time>2015-03-02T13:02:38Z</time>
      </trkpt>
      <trkpt lat="43.34952" lon="5.76457">
        <ele>452.9</ele>
        <time>2015-03-02T13:02:49Z</time>
      </trkpt>
      <trkpt lat="43.34952" lon="5.76458">
        <ele>452.4</ele>
        <time>2015-03-02T13:02:57Z</time>
      </trkpt>
      <trkpt lat="43.34957" lon="5.7646">
        <ele>452.4</ele>
        <time>2015-03-02T13:03:05Z</time>
      </trkpt>
      <trkpt lat="43.34961" lon="5.76461">
        <ele>452.4</ele>
        <time>2015-03-02T13:03:12Z</time>
      </trkpt>
      <trkpt lat="43.34965" lon="5.7646">
        <ele>452.4</ele>
        <time>2015-03-02T13:03:22Z</time>
      </trkpt>
      <trkpt lat="43.34966" lon="5.7646">
        <ele>452.4</ele>
        <time>2015-03-02T13:03:36Z</time>
      </trkpt>
      <trkpt lat="43.34967" lon="5.7646">
        <ele>452.4</ele>
        <time>2015-03-02T13:03:47Z</time>
      </trkpt>
      <trkpt lat="43.34968" lon="5.7646">
        <ele>452</ele>
        <time>2015-03-02T13:03:58Z</time>
      </trkpt>
      <trkpt lat="43.34968" lon="5.7646">
        <ele>452.4</ele>
        <time>2015-03-02T13:04:13Z</time>
      </trkpt>
      <trkpt lat="43.34969" lon="5.7646">
        <ele>452.4</ele>
        <time>2015-03-02T13:04:24Z</time>
      </trkpt>
      <trkpt lat="43.34973" lon="5.7646">
        <ele>452.4</ele>
        <time>2015-03-02T13:04:32Z</time>
      </trkpt>
      <trkpt lat="43.34978" lon="5.76462">
        <ele>453.9</ele>
        <time>2015-03-02T13:04:35Z</time>
      </trkpt>
      <trkpt lat="43.34989" lon="5.76465">
        <ele>452.4</ele>
        <time>2015-03-02T13:04:44Z</time>
      </trkpt>
      <trkpt lat="43.34996" lon="5.76471">
        <ele>452.9</ele>
        <time>2015-03-02T13:04:52Z</time>
      </trkpt>
      <trkpt lat="43.34998" lon="5.76473">
        <ele>454.4</ele>
        <time>2015-03-02T13:05:01Z</time>
      </trkpt>
      <trkpt lat="43.35" lon="5.76474">
        <ele>454.8</ele>
        <time>2015-03-02T13:05:08Z</time>
      </trkpt>
      <trkpt lat="43.35008" lon="5.76478">
        <ele>454.8</ele>
        <time>2015-03-02T13:05:17Z</time>
      </trkpt>
      <trkpt lat="43.35013" lon="5.76479">
        <ele>455.3</ele>
        <time>2015-03-02T13:05:26Z</time>
      </trkpt>
      <trkpt lat="43.35019" lon="5.76478">
        <ele>455.3</ele>
        <time>2015-03-02T13:05:33Z</time>
      </trkpt>
      <trkpt lat="43.3502" lon="5.76478">
        <ele>456.3</ele>
        <time>2015-03-02T13:05:43Z</time>
      </trkpt>
      <trkpt lat="43.35024" lon="5.76477">
        <ele>457.2</ele>
        <time>2015-03-02T13:05:51Z</time>
      </trkpt>
      <trkpt lat="43.35025" lon="5.76473">
        <ele>457.7</ele>
        <time>2015-03-02T13:06:00Z</time>
      </trkpt>
      <trkpt lat="43.35027" lon="5.76474">
        <ele>458.2</ele>
        <time>2015-03-02T13:06:08Z</time>
      </trkpt>
      <trkpt lat="43.35032" lon="5.76479">
        <ele>459.2</ele>
        <time>2015-03-02T13:06:17Z</time>
      </trkpt>
      <trkpt lat="43.35037" lon="5.76481">
        <ele>459.6</ele>
        <time>2015-03-02T13:06:24Z</time>
      </trkpt>
      <trkpt lat="43.35055" lon="5.76487">
        <ele>460.1</ele>
        <time>2015-03-02T13:06:34Z</time>
      </trkpt>
      <trkpt lat="43.3506" lon="5.76494">
        <ele>461.1</ele>
        <time>2015-03-02T13:06:44Z</time>
      </trkpt>
      <trkpt lat="43.35062" lon="5.76499">
        <ele>462</ele>
        <time>2015-03-02T13:06:52Z</time>
      </trkpt>
      <trkpt lat="43.35065" lon="5.76505">
        <ele>462.5</ele>
        <time>2015-03-02T13:06:59Z</time>
      </trkpt>
      <trkpt lat="43.3507" lon="5.76514">
        <ele>461.6</ele>
        <time>2015-03-02T13:07:08Z</time>
      </trkpt>
      <trkpt lat="43.35076" lon="5.76522">
        <ele>461.1</ele>
        <time>2015-03-02T13:07:18Z</time>
      </trkpt>
      <trkpt lat="43.3508" lon="5.76532">
        <ele>461.6</ele>
        <time>2015-03-02T13:07:27Z</time>
      </trkpt>
      <trkpt lat="43.3508" lon="5.76539">
        <ele>462</ele>
        <time>2015-03-02T13:07:34Z</time>
      </trkpt>
      <trkpt lat="43.3508" lon="5.76543">
        <ele>462</ele>
        <time>2015-03-02T13:07:41Z</time>
      </trkpt>
      <trkpt lat="43.35081" lon="5.76553">
        <ele>462.5</ele>
        <time>2015-03-02T13:07:51Z</time>
      </trkpt>
      <trkpt lat="43.35081" lon="5.76562">
        <ele>463</ele>
        <time>2015-03-02T13:08:00Z</time>
      </trkpt>
      <trkpt lat="43.35083" lon="5.76571">
        <ele>464</ele>
        <time>2015-03-02T13:08:10Z</time>
      </trkpt>
      <trkpt lat="43.35086" lon="5.76583">
        <ele>464.9</ele>
        <time>2015-03-02T13:08:19Z</time>
      </trkpt>
      <trkpt lat="43.3509" lon="5.76592">
        <ele>465.9</ele>
        <time>2015-03-02T13:08:26Z</time>
      </trkpt>
      <trkpt lat="43.3509" lon="5.7659">
        <ele>465.4</ele>
        <time>2015-03-02T13:08:36Z</time>
      </trkpt>
      <trkpt lat="43.3509" lon="5.7659">
        <ele>465.4</ele>
        <time>2015-03-02T13:08:49Z</time>
      </trkpt>
      <trkpt lat="43.35089" lon="5.76599">
        <ele>466.4</ele>
        <time>2015-03-02T13:09:01Z</time>
      </trkpt>
      <trkpt lat="43.35093" lon="5.76609">
        <ele>465.9</ele>
        <time>2015-03-02T13:09:10Z</time>
      </trkpt>
      <trkpt lat="43.35095" lon="5.76612">
        <ele>466.4</ele>
        <time>2015-03-02T13:09:16Z</time>
      </trkpt>
      <trkpt lat="43.351" lon="5.76614">
        <ele>466.4</ele>
        <time>2015-03-02T13:09:24Z</time>
      </trkpt>
      <trkpt lat="43.35103" lon="5.76616">
        <ele>465.9</ele>
        <time>2015-03-02T13:09:32Z</time>
      </trkpt>
      <trkpt lat="43.35105" lon="5.76613">
        <ele>464.9</ele>
        <time>2015-03-02T13:09:39Z</time>
      </trkpt>
      <trkpt lat="43.35109" lon="5.76612">
        <ele>464.9</ele>
        <time>2015-03-02T13:09:46Z</time>
      </trkpt>
      <trkpt lat="43.35113" lon="5.7661">
        <ele>464.9</ele>
        <time>2015-03-02T13:09:54Z</time>
      </trkpt>
      <trkpt lat="43.35128" lon="5.76604">
        <ele>465.4</ele>
        <time>2015-03-02T13:10:03Z</time>
      </trkpt>
      <trkpt lat="43.35135" lon="5.76601">
        <ele>464.9</ele>
        <time>2015-03-02T13:10:12Z</time>
      </trkpt>
      <trkpt lat="43.35139" lon="5.76602">
        <ele>465.4</ele>
        <time>2015-03-02T13:10:22Z</time>
      </trkpt>
      <trkpt lat="43.35146" lon="5.76603">
        <ele>467.8</ele>
        <time>2015-03-02T13:10:30Z</time>
      </trkpt>
      <trkpt lat="43.35152" lon="5.76602">
        <ele>467.8</ele>
        <time>2015-03-02T13:10:38Z</time>
      </trkpt>
      <trkpt lat="43.35156" lon="5.76602">
        <ele>469.3</ele>
        <time>2015-03-02T13:10:46Z</time>
      </trkpt>
      <trkpt lat="43.35161" lon="5.76607">
        <ele>470.2</ele>
        <time>2015-03-02T13:10:54Z</time>
      </trkpt>
      <trkpt lat="43.35162" lon="5.76616">
        <ele>470.7</ele>
        <time>2015-03-02T13:11:01Z</time>
      </trkpt>
      <trkpt lat="43.35163" lon="5.76625">
        <ele>471.2</ele>
        <time>2015-03-02T13:11:09Z</time>
      </trkpt>
      <trkpt lat="43.35163" lon="5.76626">
        <ele>471.2</ele>
        <time>2015-03-02T13:11:10Z</time>
      </trkpt>
      <trkpt lat="43.35163" lon="5.76638">
        <ele>471.7</ele>
        <time>2015-03-02T13:11:20Z</time>
      </trkpt>
      <trkpt lat="43.35164" lon="5.7665">
        <ele>472.6</ele>
        <time>2015-03-02T13:11:28Z</time>
      </trkpt>
      <trkpt lat="43.35164" lon="5.76662">
        <ele>473.6</ele>
        <time>2015-03-02T13:11:36Z</time>
      </trkpt>
      <trkpt lat="43.35167" lon="5.76672">
        <ele>475</ele>
        <time>2015-03-02T13:11:44Z</time>
      </trkpt>
      <trkpt lat="43.3517" lon="5.76681">
        <ele>475.5</ele>
        <time>2015-03-02T13:11:51Z</time>
      </trkpt>
      <trkpt lat="43.35172" lon="5.76689">
        <ele>475.5</ele>
        <time>2015-03-02T13:11:58Z</time>
      </trkpt>
      <trkpt lat="43.35177" lon="5.76701">
        <ele>475.5</ele>
        <time>2015-03-02T13:12:08Z</time>
      </trkpt>
      <trkpt lat="43.35181" lon="5.76706">
        <ele>475.5</ele>
        <time>2015-03-02T13:12:17Z</time>
      </trkpt>
      <trkpt lat="43.35184" lon="5.76713">
        <ele>476</ele>
        <time>2015-03-02T13:12:24Z</time>
      </trkpt>
      <trkpt lat="43.35187" lon="5.76725">
        <ele>476</ele>
        <time>2015-03-02T13:12:33Z</time>
      </trkpt>
      <trkpt lat="43.35189" lon="5.76734">
        <ele>476</ele>
        <time>2015-03-02T13:12:39Z</time>
      </trkpt>
      <trkpt lat="43.35192" lon="5.76743">
        <ele>476.5</ele>
        <time>2015-03-02T13:12:46Z</time>
      </trkpt>
      <trkpt lat="43.35195" lon="5.76749">
        <ele>476.5</ele>
        <time>2015-03-02T13:12:54Z</time>
      </trkpt>
      <trkpt lat="43.35196" lon="5.7675">
        <ele>476.5</ele>
        <time>2015-03-02T13:12:55Z</time>
      </trkpt>
      <trkpt lat="43.35198" lon="5.76755">
        <ele>477</ele>
        <time>2015-03-02T13:12:58Z</time>
      </trkpt>
      <trkpt lat="43.35203" lon="5.76767">
        <ele>475.5</ele>
        <time>2015-03-02T13:13:07Z</time>
      </trkpt>
      <trkpt lat="43.35205" lon="5.76777">
        <ele>475.5</ele>
        <time>2015-03-02T13:13:15Z</time>
      </trkpt>
      <trkpt lat="43.35208" lon="5.76785">
        <ele>474.5</ele>
        <time>2015-03-02T13:13:22Z</time>
      </trkpt>
      <trkpt lat="43.35212" lon="5.76792">
        <ele>474.1</ele>
        <time>2015-03-02T13:13:30Z</time>
      </trkpt>
      <trkpt lat="43.35217" lon="5.76804">
        <ele>473.1</ele>
        <time>2015-03-02T13:13:41Z</time>
      </trkpt>
      <trkpt lat="43.35219" lon="5.76813">
        <ele>472.1</ele>
        <time>2015-03-02T13:13:49Z</time>
      </trkpt>
      <trkpt lat="43.35222" lon="5.76819">
        <ele>472.1</ele>
        <time>2015-03-02T13:13:56Z</time>
      </trkpt>
      <trkpt lat="43.35223" lon="5.76821">
        <ele>471.7</ele>
        <time>2015-03-02T13:13:59Z</time>
      </trkpt>
      <trkpt lat="43.35226" lon="5.76829">
        <ele>470.7</ele>
        <time>2015-03-02T13:14:05Z</time>
      </trkpt>
      <trkpt lat="43.3523" lon="5.76829">
        <ele>470.2</ele>
        <time>2015-03-02T13:14:11Z</time>
      </trkpt>
      <trkpt lat="43.35231" lon="5.76837">
        <ele>469.7</ele>
        <time>2015-03-02T13:14:15Z</time>
      </trkpt>
      <trkpt lat="43.35236" lon="5.76836">
        <ele>468.8</ele>
        <time>2015-03-02T13:14:21Z</time>
      </trkpt>
      <trkpt lat="43.35241" lon="5.76843">
        <ele>468.3</ele>
        <time>2015-03-02T13:14:27Z</time>
      </trkpt>
      <trkpt lat="43.35243" lon="5.76844">
        <ele>468.3</ele>
        <time>2015-03-02T13:14:32Z</time>
      </trkpt>
      <trkpt lat="43.35246" lon="5.76844">
        <ele>467.3</ele>
        <time>2015-03-02T13:14:38Z</time>
      </trkpt>
      <trkpt lat="43.35249" lon="5.76845">
        <ele>466.9</ele>
        <time>2015-03-02T13:14:44Z</time>
      </trkpt>
      <trkpt lat="43.3525" lon="5.76851">
        <ele>467.3</ele>
        <time>2015-03-02T13:14:48Z</time>
      </trkpt>
      <trkpt lat="43.35252" lon="5.76867">
        <ele>465.4</ele>
        <time>2015-03-02T13:14:57Z</time>
      </trkpt>
      <trkpt lat="43.35253" lon="5.76873">
        <ele>464.5</ele>
        <time>2015-03-02T13:15:05Z</time>
      </trkpt>
      <trkpt lat="43.35255" lon="5.76882">
        <ele>464</ele>
        <time>2015-03-02T13:15:11Z</time>
      </trkpt>
      <trkpt lat="43.35257" lon="5.76892">
        <ele>463.5</ele>
        <time>2015-03-02T13:15:17Z</time>
      </trkpt>
      <trkpt lat="43.35257" lon="5.76895">
        <ele>463</ele>
        <time>2015-03-02T13:15:19Z</time>
      </trkpt>
      <trkpt lat="43.35261" lon="5.76905">
        <ele>462.5</ele>
        <time>2015-03-02T13:15:26Z</time>
      </trkpt>
      <trkpt lat="43.35264" lon="5.76916">
        <ele>462</ele>
        <time>2015-03-02T13:15:31Z</time>
      </trkpt>
      <trkpt lat="43.35266" lon="5.76927">
        <ele>461.6</ele>
        <time>2015-03-02T13:15:38Z</time>
      </trkpt>
      <trkpt lat="43.35269" lon="5.76933">
        <ele>460.6</ele>
        <time>2015-03-02T13:15:44Z</time>
      </trkpt>
      <trkpt lat="43.35272" lon="5.76939">
        <ele>460.1</ele>
        <time>2015-03-02T13:15:50Z</time>
      </trkpt>
      <trkpt lat="43.35276" lon="5.76955">
        <ele>459.6</ele>
        <time>2015-03-02T13:15:56Z</time>
      </trkpt>
      <trkpt lat="43.35282" lon="5.7697">
        <ele>459.2</ele>
        <time>2015-03-02T13:16:03Z</time>
      </trkpt>
      <trkpt lat="43.35285" lon="5.76974">
        <ele>458.2</ele>
        <time>2015-03-02T13:16:09Z</time>
      </trkpt>
      <trkpt lat="43.35289" lon="5.76984">
        <ele>457.7</ele>
        <time>2015-03-02T13:16:16Z</time>
      </trkpt>
      <trkpt lat="43.35295" lon="5.76997">
        <ele>457.2</ele>
        <time>2015-03-02T13:16:24Z</time>
      </trkpt>
      <trkpt lat="43.35302" lon="5.77003">
        <ele>456.8</ele>
        <time>2015-03-02T13:16:31Z</time>
      </trkpt>
      <trkpt lat="43.35306" lon="5.77009">
        <ele>456.3</ele>
        <time>2015-03-02T13:16:38Z</time>
      </trkpt>
      <trkpt lat="43.35307" lon="5.77014">
        <ele>455.8</ele>
        <time>2015-03-02T13:16:43Z</time>
      </trkpt>
      <trkpt lat="43.35307" lon="5.7702">
        <ele>455.3</ele>
        <time>2015-03-02T13:16:49Z</time>
      </trkpt>
      <trkpt lat="43.35305" lon="5.77025">
        <ele>454.8</ele>
        <time>2015-03-02T13:16:55Z</time>
      </trkpt>
      <trkpt lat="43.35299" lon="5.77044">
        <ele>453.4</ele>
        <time>2015-03-02T13:17:04Z</time>
      </trkpt>
      <trkpt lat="43.35298" lon="5.7705">
        <ele>453.4</ele>
        <time>2015-03-02T13:17:12Z</time>
      </trkpt>
      <trkpt lat="43.35298" lon="5.77059">
        <ele>453.4</ele>
        <time>2015-03-02T13:17:17Z</time>
      </trkpt>
      <trkpt lat="43.35299" lon="5.77061">
        <ele>452.9</ele>
        <time>2015-03-02T13:17:21Z</time>
      </trkpt>
      <trkpt lat="43.35301" lon="5.77067">
        <ele>452.4</ele>
        <time>2015-03-02T13:17:26Z</time>
      </trkpt>
      <trkpt lat="43.35303" lon="5.77078">
        <ele>452</ele>
        <time>2015-03-02T13:17:30Z</time>
      </trkpt>
      <trkpt lat="43.35297" lon="5.77089">
        <ele>450.5</ele>
        <time>2015-03-02T13:17:39Z</time>
      </trkpt>
      <trkpt lat="43.35291" lon="5.77088">
        <ele>449.5</ele>
        <time>2015-03-02T13:17:48Z</time>
      </trkpt>
      <trkpt lat="43.35282" lon="5.77086">
        <ele>448.6</ele>
        <time>2015-03-02T13:17:57Z</time>
      </trkpt>
      <trkpt lat="43.35277" lon="5.77085">
        <ele>447.6</ele>
        <time>2015-03-02T13:18:01Z</time>
      </trkpt>
      <trkpt lat="43.35269" lon="5.77085">
        <ele>447.1</ele>
        <time>2015-03-02T13:18:10Z</time>
      </trkpt>
      <trkpt lat="43.35261" lon="5.77087">
        <ele>447.1</ele>
        <time>2015-03-02T13:18:18Z</time>
      </trkpt>
      <trkpt lat="43.35255" lon="5.77088">
        <ele>446.7</ele>
        <time>2015-03-02T13:18:25Z</time>
      </trkpt>
      <trkpt lat="43.35242" lon="5.77087">
        <ele>446.7</ele>
        <time>2015-03-02T13:18:32Z</time>
      </trkpt>
      <trkpt lat="43.35228" lon="5.7709">
        <ele>446.7</ele>
        <time>2015-03-02T13:18:40Z</time>
      </trkpt>
      <trkpt lat="43.35217" lon="5.77091">
        <ele>446.7</ele>
        <time>2015-03-02T13:18:48Z</time>
      </trkpt>
      <trkpt lat="43.35211" lon="5.77097">
        <ele>447.1</ele>
        <time>2015-03-02T13:18:56Z</time>
      </trkpt>
      <trkpt lat="43.35205" lon="5.77114">
        <ele>447.1</ele>
        <time>2015-03-02T13:19:06Z</time>
      </trkpt>
      <trkpt lat="43.35204" lon="5.77128">
        <ele>447.1</ele>
        <time>2015-03-02T13:19:13Z</time>
      </trkpt>
      <trkpt lat="43.35203" lon="5.77139">
        <ele>447.1</ele>
        <time>2015-03-02T13:19:20Z</time>
      </trkpt>
      <trkpt lat="43.35201" lon="5.77153">
        <ele>447.1</ele>
        <time>2015-03-02T13:19:29Z</time>
      </trkpt>
      <trkpt lat="43.352" lon="5.77165">
        <ele>446.7</ele>
        <time>2015-03-02T13:19:36Z</time>
      </trkpt>
      <trkpt lat="43.352" lon="5.77178">
        <ele>446.2</ele>
        <time>2015-03-02T13:19:44Z</time>
      </trkpt>
      <trkpt lat="43.35202" lon="5.77185">
        <ele>445.7</ele>
        <time>2015-03-02T13:19:47Z</time>
      </trkpt>
      <trkpt lat="43.35205" lon="5.77198">
        <ele>445.7</ele>
        <time>2015-03-02T13:19:55Z</time>
      </trkpt>
      <trkpt lat="43.35206" lon="5.77204">
        <ele>445.7</ele>
        <time>2015-03-02T13:19:59Z</time>
      </trkpt>
      <trkpt lat="43.35209" lon="5.77219">
        <ele>445.7</ele>
        <time>2015-03-02T13:20:07Z</time>
      </trkpt>
      <trkpt lat="43.35212" lon="5.77232">
        <ele>446.2</ele>
        <time>2015-03-02T13:20:15Z</time>
      </trkpt>
      <trkpt lat="43.35214" lon="5.77244">
        <ele>445.7</ele>
        <time>2015-03-02T13:20:22Z</time>
      </trkpt>
      <trkpt lat="43.35216" lon="5.77252">
        <ele>445.2</ele>
        <time>2015-03-02T13:20:30Z</time>
      </trkpt>
      <trkpt lat="43.35216" lon="5.77261">
        <ele>444.3</ele>
        <time>2015-03-02T13:20:37Z</time>
      </trkpt>
      <trkpt lat="43.35216" lon="5.77268">
        <ele>444.3</ele>
        <time>2015-03-02T13:20:42Z</time>
      </trkpt>
      <trkpt lat="43.35217" lon="5.77281">
        <ele>443.8</ele>
        <time>2015-03-02T13:20:50Z</time>
      </trkpt>
      <trkpt lat="43.35218" lon="5.77288">
        <ele>443.8</ele>
        <time>2015-03-02T13:20:57Z</time>
      </trkpt>
      <trkpt lat="43.35217" lon="5.77298">
        <ele>443.8</ele>
        <time>2015-03-02T13:21:04Z</time>
      </trkpt>
      <trkpt lat="43.35218" lon="5.77311">
        <ele>443.3</ele>
        <time>2015-03-02T13:21:13Z</time>
      </trkpt>
      <trkpt lat="43.35218" lon="5.77317">
        <ele>442.8</ele>
        <time>2015-03-02T13:21:20Z</time>
      </trkpt>
      <trkpt lat="43.35216" lon="5.77329">
        <ele>442.8</ele>
        <time>2015-03-02T13:21:28Z</time>
      </trkpt>
      <trkpt lat="43.35218" lon="5.77334">
        <ele>442.3</ele>
        <time>2015-03-02T13:21:35Z</time>
      </trkpt>
      <trkpt lat="43.35218" lon="5.77345">
        <ele>441.9</ele>
        <time>2015-03-02T13:21:43Z</time>
      </trkpt>
      <trkpt lat="43.35217" lon="5.77361">
        <ele>441.4</ele>
        <time>2015-03-02T13:21:50Z</time>
      </trkpt>
      <trkpt lat="43.35214" lon="5.77375">
        <ele>440.9</ele>
        <time>2015-03-02T13:21:58Z</time>
      </trkpt>
      <trkpt lat="43.35211" lon="5.7739">
        <ele>440.4</ele>
        <time>2015-03-02T13:22:07Z</time>
      </trkpt>
      <trkpt lat="43.3521" lon="5.77399">
        <ele>439.9</ele>
        <time>2015-03-02T13:22:15Z</time>
      </trkpt>
      <trkpt lat="43.35206" lon="5.77408">
        <ele>439.9</ele>
        <time>2015-03-02T13:22:21Z</time>
      </trkpt>
      <trkpt lat="43.35205" lon="5.77425">
        <ele>439.5</ele>
        <time>2015-03-02T13:22:30Z</time>
      </trkpt>
      <trkpt lat="43.35205" lon="5.77438">
        <ele>439.9</ele>
        <time>2015-03-02T13:22:37Z</time>
      </trkpt>
      <trkpt lat="43.35202" lon="5.77451">
        <ele>439.9</ele>
        <time>2015-03-02T13:22:46Z</time>
      </trkpt>
      <trkpt lat="43.35201" lon="5.77459">
        <ele>439.9</ele>
        <time>2015-03-02T13:22:52Z</time>
      </trkpt>
      <trkpt lat="43.35202" lon="5.7747">
        <ele>439.5</ele>
        <time>2015-03-02T13:22:59Z</time>
      </trkpt>
      <trkpt lat="43.35202" lon="5.77478">
        <ele>439</ele>
        <time>2015-03-02T13:23:06Z</time>
      </trkpt>
      <trkpt lat="43.35203" lon="5.7749">
        <ele>439</ele>
        <time>2015-03-02T13:23:13Z</time>
      </trkpt>
      <trkpt lat="43.35203" lon="5.77509">
        <ele>438.5</ele>
        <time>2015-03-02T13:23:21Z</time>
      </trkpt>
      <trkpt lat="43.35204" lon="5.77524">
        <ele>439</ele>
        <time>2015-03-02T13:23:28Z</time>
      </trkpt>
      <trkpt lat="43.35206" lon="5.77532">
        <ele>439</ele>
        <time>2015-03-02T13:23:36Z</time>
      </trkpt>
      <trkpt lat="43.35209" lon="5.77538">
        <ele>439</ele>
        <time>2015-03-02T13:23:44Z</time>
      </trkpt>
      <trkpt lat="43.35211" lon="5.77542">
        <ele>438.5</ele>
        <time>2015-03-02T13:23:51Z</time>
      </trkpt>
      <trkpt lat="43.35213" lon="5.77551">
        <ele>438</ele>
        <time>2015-03-02T13:23:58Z</time>
      </trkpt>
      <trkpt lat="43.35213" lon="5.77555">
        <ele>437.5</ele>
        <time>2015-03-02T13:24:06Z</time>
      </trkpt>
      <trkpt lat="43.3522" lon="5.77564">
        <ele>436.1</ele>
        <time>2015-03-02T13:24:14Z</time>
      </trkpt>
      <trkpt lat="43.35229" lon="5.77576">
        <ele>435.6</ele>
        <time>2015-03-02T13:24:22Z</time>
      </trkpt>
      <trkpt lat="43.35235" lon="5.77584">
        <ele>434.6</ele>
        <time>2015-03-02T13:24:30Z</time>
      </trkpt>
      <trkpt lat="43.35243" lon="5.7759">
        <ele>433.7</ele>
        <time>2015-03-02T13:24:38Z</time>
      </trkpt>
      <trkpt lat="43.35251" lon="5.77596">
        <ele>432.2</ele>
        <time>2015-03-02T13:24:46Z</time>
      </trkpt>
      <trkpt lat="43.35257" lon="5.776">
        <ele>431.3</ele>
        <time>2015-03-02T13:24:54Z</time>
      </trkpt>
      <trkpt lat="43.35262" lon="5.77605">
        <ele>430.3</ele>
        <time>2015-03-02T13:25:02Z</time>
      </trkpt>
      <trkpt lat="43.35268" lon="5.77612">
        <ele>429.4</ele>
        <time>2015-03-02T13:25:11Z</time>
      </trkpt>
      <trkpt lat="43.35278" lon="5.77619">
        <ele>428.4</ele>
        <time>2015-03-02T13:25:19Z</time>
      </trkpt>
      <trkpt lat="43.35287" lon="5.77623">
        <ele>427.4</ele>
        <time>2015-03-02T13:25:26Z</time>
      </trkpt>
      <trkpt lat="43.35292" lon="5.77628">
        <ele>426.5</ele>
        <time>2015-03-02T13:25:35Z</time>
      </trkpt>
      <trkpt lat="43.353" lon="5.77634">
        <ele>425.5</ele>
        <time>2015-03-02T13:25:43Z</time>
      </trkpt>
      <trkpt lat="43.35303" lon="5.77636">
        <ele>424.6</ele>
        <time>2015-03-02T13:25:49Z</time>
      </trkpt>
      <trkpt lat="43.3531" lon="5.77642">
        <ele>425</ele>
        <time>2015-03-02T13:25:57Z</time>
      </trkpt>
      <trkpt lat="43.35313" lon="5.77644">
        <ele>424.6</ele>
        <time>2015-03-02T13:25:59Z</time>
      </trkpt>
      <trkpt lat="43.3532" lon="5.7765">
        <ele>423.6</ele>
        <time>2015-03-02T13:26:08Z</time>
      </trkpt>
      <trkpt lat="43.35329" lon="5.77655">
        <ele>423.1</ele>
        <time>2015-03-02T13:26:16Z</time>
      </trkpt>
      <trkpt lat="43.35337" lon="5.7766">
        <ele>422.6</ele>
        <time>2015-03-02T13:26:23Z</time>
      </trkpt>
      <trkpt lat="43.35338" lon="5.77662">
        <ele>422.6</ele>
        <time>2015-03-02T13:26:25Z</time>
      </trkpt>
      <trkpt lat="43.35345" lon="5.77667">
        <ele>422.2</ele>
        <time>2015-03-02T13:26:33Z</time>
      </trkpt>
      <trkpt lat="43.35347" lon="5.77666">
        <ele>417.8</ele>
        <time>2015-03-02T13:26:36Z</time>
      </trkpt>
      <trkpt lat="43.35347" lon="5.77666">
        <ele>429.4</ele>
        <time>2015-03-02T13:26:37Z</time>
      </trkpt>
      <trkpt lat="43.35346" lon="5.77666">
        <ele>422.6</ele>
        <time>2015-03-02T13:26:38Z</time>
      </trkpt>
      <trkpt lat="43.35347" lon="5.77666">
        <ele>422.6</ele>
        <time>2015-03-02T13:26:50Z</time>
      </trkpt>
      <trkpt lat="43.35347" lon="5.77666">
        <ele>422.2</ele>
        <time>2015-03-02T13:27:04Z</time>
      </trkpt>
      <trkpt lat="43.35351" lon="5.77668">
        <ele>422.2</ele>
        <time>2015-03-02T13:27:12Z</time>
      </trkpt>
      <trkpt lat="43.35359" lon="5.77673">
        <ele>421.7</ele>
        <time>2015-03-02T13:27:20Z</time>
      </trkpt>
      <trkpt lat="43.3537" lon="5.77678">
        <ele>421.2</ele>
        <time>2015-03-02T13:27:30Z</time>
      </trkpt>
      <trkpt lat="43.35378" lon="5.77679">
        <ele>420.2</ele>
        <time>2015-03-02T13:27:38Z</time>
      </trkpt>
      <trkpt lat="43.3539" lon="5.77681">
        <ele>419.8</ele>
        <time>2015-03-02T13:27:47Z</time>
      </trkpt>
      <trkpt lat="43.35397" lon="5.77681">
        <ele>420.2</ele>
        <time>2015-03-02T13:27:53Z</time>
      </trkpt>
      <trkpt lat="43.35406" lon="5.77682">
        <ele>419.8</ele>
        <time>2015-03-02T13:28:01Z</time>
      </trkpt>
      <trkpt lat="43.35417" lon="5.77683">
        <ele>419.3</ele>
        <time>2015-03-02T13:28:11Z</time>
      </trkpt>
      <trkpt lat="43.35426" lon="5.77684">
        <ele>418.8</ele>
        <time>2015-03-02T13:28:19Z</time>
      </trkpt>
      <trkpt lat="43.35432" lon="5.77685">
        <ele>418.8</ele>
        <time>2015-03-02T13:28:27Z</time>
      </trkpt>
      <trkpt lat="43.35441" lon="5.77688">
        <ele>418.8</ele>
        <time>2015-03-02T13:28:36Z</time>
      </trkpt>
      <trkpt lat="43.35453" lon="5.77692">
        <ele>418.3</ele>
        <time>2015-03-02T13:28:45Z</time>
      </trkpt>
      <trkpt lat="43.3546" lon="5.77695">
        <ele>417.8</ele>
        <time>2015-03-02T13:28:52Z</time>
      </trkpt>
      <trkpt lat="43.35466" lon="5.777">
        <ele>417.4</ele>
        <time>2015-03-02T13:28:58Z</time>
      </trkpt>
      <trkpt lat="43.35473" lon="5.77709">
        <ele>415.9</ele>
        <time>2015-03-02T13:29:07Z</time>
      </trkpt>
      <trkpt lat="43.35481" lon="5.77719">
        <ele>415.9</ele>
        <time>2015-03-02T13:29:17Z</time>
      </trkpt>
      <trkpt lat="43.35489" lon="5.77728">
        <ele>415.4</ele>
        <time>2015-03-02T13:29:25Z</time>
      </trkpt>
      <trkpt lat="43.35491" lon="5.77733">
        <ele>415.9</ele>
        <time>2015-03-02T13:29:29Z</time>
      </trkpt>
      <trkpt lat="43.35495" lon="5.77732">
        <ele>416.4</ele>
        <time>2015-03-02T13:29:34Z</time>
      </trkpt>
      <trkpt lat="43.355" lon="5.77728">
        <ele>416.9</ele>
        <time>2015-03-02T13:29:39Z</time>
      </trkpt>
      <trkpt lat="43.35508" lon="5.77726">
        <ele>416.9</ele>
        <time>2015-03-02T13:29:46Z</time>
      </trkpt>
      <trkpt lat="43.35512" lon="5.77722">
        <ele>417.8</ele>
        <time>2015-03-02T13:29:53Z</time>
      </trkpt>
      <trkpt lat="43.35516" lon="5.77717">
        <ele>417.8</ele>
        <time>2015-03-02T13:30:00Z</time>
      </trkpt>
      <trkpt lat="43.35522" lon="5.77712">
        <ele>418.3</ele>
        <time>2015-03-02T13:30:08Z</time>
      </trkpt>
      <trkpt lat="43.35529" lon="5.77714">
        <ele>419.3</ele>
        <time>2015-03-02T13:30:17Z</time>
      </trkpt>
      <trkpt lat="43.35533" lon="5.77715">
        <ele>418.8</ele>
        <time>2015-03-02T13:30:25Z</time>
      </trkpt>
      <trkpt lat="43.35533" lon="5.77715">
        <ele>417.8</ele>
        <time>2015-03-02T13:30:33Z</time>
      </trkpt>
      <trkpt lat="43.35533" lon="5.77715">
        <ele>415.4</ele>
        <time>2015-03-02T13:30:45Z</time>
      </trkpt>
      <trkpt lat="43.35533" lon="5.77715">
        <ele>418.3</ele>
        <time>2015-03-02T13:30:46Z</time>
      </trkpt>
      <trkpt lat="43.35535" lon="5.77717">
        <ele>412.1</ele>
        <time>2015-03-02T13:30:53Z</time>
      </trkpt>
      <trkpt lat="43.35537" lon="5.77716">
        <ele>417.4</ele>
        <time>2015-03-02T13:30:55Z</time>
      </trkpt>
      <trkpt lat="43.35545" lon="5.77719">
        <ele>416.9</ele>
        <time>2015-03-02T13:31:02Z</time>
      </trkpt>
      <trkpt lat="43.35546" lon="5.77719">
        <ele>416.9</ele>
        <time>2015-03-02T13:31:05Z</time>
      </trkpt>
      <trkpt lat="43.3555" lon="5.77723">
        <ele>416.4</ele>
        <time>2015-03-02T13:31:08Z</time>
      </trkpt>
      <trkpt lat="43.35557" lon="5.77723">
        <ele>417.4</ele>
        <time>2015-03-02T13:31:15Z</time>
      </trkpt>
      <trkpt lat="43.35558" lon="5.77723">
        <ele>416.9</ele>
        <time>2015-03-02T13:31:18Z</time>
      </trkpt>
      <trkpt lat="43.35565" lon="5.77725">
        <ele>416.4</ele>
        <time>2015-03-02T13:31:24Z</time>
      </trkpt>
      <trkpt lat="43.35566" lon="5.77729">
        <ele>416.4</ele>
        <time>2015-03-02T13:31:28Z</time>
      </trkpt>
      <trkpt lat="43.35575" lon="5.77732">
        <ele>416.4</ele>
        <time>2015-03-02T13:31:35Z</time>
      </trkpt>
      <trkpt lat="43.35578" lon="5.77733">
        <ele>416.4</ele>
        <time>2015-03-02T13:31:42Z</time>
      </trkpt>
      <trkpt lat="43.35578" lon="5.77735">
        <ele>416.4</ele>
        <time>2015-03-02T13:31:51Z</time>
      </trkpt>
      <trkpt lat="43.3558" lon="5.77737">
        <ele>416.9</ele>
        <time>2015-03-02T13:31:57Z</time>
      </trkpt>
      <trkpt lat="43.35584" lon="5.7774">
        <ele>417.4</ele>
        <time>2015-03-02T13:32:01Z</time>
      </trkpt>
      <trkpt lat="43.35592" lon="5.77742">
        <ele>418.3</ele>
        <time>2015-03-02T13:32:09Z</time>
      </trkpt>
      <trkpt lat="43.35598" lon="5.77745">
        <ele>419.3</ele>
        <time>2015-03-02T13:32:18Z</time>
      </trkpt>
      <trkpt lat="43.35607" lon="5.77753">
        <ele>419.8</ele>
        <time>2015-03-02T13:32:27Z</time>
      </trkpt>
      <trkpt lat="43.35613" lon="5.77755">
        <ele>420.2</ele>
        <time>2015-03-02T13:32:35Z</time>
      </trkpt>
      <trkpt lat="43.35621" lon="5.77759">
        <ele>420.2</ele>
        <time>2015-03-02T13:32:43Z</time>
      </trkpt>
      <trkpt lat="43.35625" lon="5.77761">
        <ele>420.2</ele>
        <time>2015-03-02T13:32:46Z</time>
      </trkpt>
      <trkpt lat="43.35633" lon="5.77766">
        <ele>420.7</ele>
        <time>2015-03-02T13:32:53Z</time>
      </trkpt>
      <trkpt lat="43.35638" lon="5.77766">
        <ele>421.2</ele>
        <time>2015-03-02T13:32:58Z</time>
      </trkpt>
      <trkpt lat="43.35643" lon="5.7777">
        <ele>421.7</ele>
        <time>2015-03-02T13:33:07Z</time>
      </trkpt>
      <trkpt lat="43.35649" lon="5.77773">
        <ele>421.2</ele>
        <time>2015-03-02T13:33:17Z</time>
      </trkpt>
      <trkpt lat="43.35656" lon="5.77775">
        <ele>421.2</ele>
        <time>2015-03-02T13:33:24Z</time>
      </trkpt>
      <trkpt lat="43.35658" lon="5.77775">
        <ele>421.2</ele>
        <time>2015-03-02T13:33:27Z</time>
      </trkpt>
      <trkpt lat="43.35662" lon="5.77777">
        <ele>421.2</ele>
        <time>2015-03-02T13:33:31Z</time>
      </trkpt>
      <trkpt lat="43.3567" lon="5.77778">
        <ele>420.7</ele>
        <time>2015-03-02T13:33:39Z</time>
      </trkpt>
      <trkpt lat="43.35675" lon="5.77772">
        <ele>420.7</ele>
        <time>2015-03-02T13:33:47Z</time>
      </trkpt>
      <trkpt lat="43.35679" lon="5.77769">
        <ele>420.2</ele>
        <time>2015-03-02T13:33:56Z</time>
      </trkpt>
      <trkpt lat="43.35691" lon="5.77757">
        <ele>420.7</ele>
        <time>2015-03-02T13:34:06Z</time>
      </trkpt>
      <trkpt lat="43.35696" lon="5.77751">
        <ele>420.7</ele>
        <time>2015-03-02T13:34:10Z</time>
      </trkpt>
      <trkpt lat="43.35698" lon="5.77748">
        <ele>421.2</ele>
        <time>2015-03-02T13:34:12Z</time>
      </trkpt>
      <trkpt lat="43.35698" lon="5.77738">
        <ele>421.7</ele>
        <time>2015-03-02T13:34:17Z</time>
      </trkpt>
      <trkpt lat="43.35697" lon="5.77727">
        <ele>422.6</ele>
        <time>2015-03-02T13:34:24Z</time>
      </trkpt>
      <trkpt lat="43.35697" lon="5.77719">
        <ele>423.6</ele>
        <time>2015-03-02T13:34:32Z</time>
      </trkpt>
      <trkpt lat="43.35699" lon="5.77716">
        <ele>423.6</ele>
        <time>2015-03-02T13:34:38Z</time>
      </trkpt>
      <trkpt lat="43.35701" lon="5.77712">
        <ele>424.6</ele>
        <time>2015-03-02T13:34:46Z</time>
      </trkpt>
      <trkpt lat="43.35708" lon="5.7771">
        <ele>425</ele>
        <time>2015-03-02T13:34:54Z</time>
      </trkpt>
      <trkpt lat="43.35712" lon="5.77705">
        <ele>425.5</ele>
        <time>2015-03-02T13:35:02Z</time>
      </trkpt>
      <trkpt lat="43.35717" lon="5.777">
        <ele>426.5</ele>
        <time>2015-03-02T13:35:12Z</time>
      </trkpt>
      <trkpt lat="43.35722" lon="5.77691">
        <ele>428.4</ele>
        <time>2015-03-02T13:35:22Z</time>
      </trkpt>
      <trkpt lat="43.35732" lon="5.77691">
        <ele>427.9</ele>
        <time>2015-03-02T13:35:29Z</time>
      </trkpt>
      <trkpt lat="43.3574" lon="5.77697">
        <ele>427.4</ele>
        <time>2015-03-02T13:35:39Z</time>
      </trkpt>
      <trkpt lat="43.35742" lon="5.777">
        <ele>426.5</ele>
        <time>2015-03-02T13:35:47Z</time>
      </trkpt>
      <trkpt lat="43.3575" lon="5.77702">
        <ele>426</ele>
        <time>2015-03-02T13:35:53Z</time>
      </trkpt>
      <trkpt lat="43.35756" lon="5.77705">
        <ele>425.5</ele>
        <time>2015-03-02T13:35:59Z</time>
      </trkpt>
      <trkpt lat="43.35763" lon="5.77707">
        <ele>425.5</ele>
        <time>2015-03-02T13:36:07Z</time>
      </trkpt>
      <trkpt lat="43.35771" lon="5.77711">
        <ele>425</ele>
        <time>2015-03-02T13:36:15Z</time>
      </trkpt>
      <trkpt lat="43.35775" lon="5.77711">
        <ele>424.6</ele>
        <time>2015-03-02T13:36:22Z</time>
      </trkpt>
      <trkpt lat="43.35778" lon="5.77712">
        <ele>424.6</ele>
        <time>2015-03-02T13:36:26Z</time>
      </trkpt>
      <trkpt lat="43.35785" lon="5.77712">
        <ele>424.6</ele>
        <time>2015-03-02T13:36:33Z</time>
      </trkpt>
      <trkpt lat="43.3579" lon="5.77712">
        <ele>424.6</ele>
        <time>2015-03-02T13:36:39Z</time>
      </trkpt>
      <trkpt lat="43.35799" lon="5.77715">
        <ele>424.1</ele>
        <time>2015-03-02T13:36:47Z</time>
      </trkpt>
      <trkpt lat="43.35812" lon="5.77716">
        <ele>424.1</ele>
        <time>2015-03-02T13:36:57Z</time>
      </trkpt>
      <trkpt lat="43.35823" lon="5.77715">
        <ele>424.6</ele>
        <time>2015-03-02T13:37:02Z</time>
      </trkpt>
      <trkpt lat="43.3584" lon="5.7772">
        <ele>424.6</ele>
        <time>2015-03-02T13:37:12Z</time>
      </trkpt>
      <trkpt lat="43.3585" lon="5.77722">
        <ele>424.6</ele>
        <time>2015-03-02T13:37:21Z</time>
      </trkpt>
      <trkpt lat="43.35858" lon="5.77723">
        <ele>424.6</ele>
        <time>2015-03-02T13:37:28Z</time>
      </trkpt>
      <trkpt lat="43.35868" lon="5.77726">
        <ele>424.1</ele>
        <time>2015-03-02T13:37:37Z</time>
      </trkpt>
      <trkpt lat="43.35877" lon="5.77733">
        <ele>425</ele>
        <time>2015-03-02T13:37:47Z</time>
      </trkpt>
      <trkpt lat="43.3588" lon="5.77733">
        <ele>425.5</ele>
        <time>2015-03-02T13:37:49Z</time>
      </trkpt>
      <trkpt lat="43.35889" lon="5.77731">
        <ele>425.5</ele>
        <time>2015-03-02T13:37:59Z</time>
      </trkpt>
      <trkpt lat="43.35898" lon="5.77734">
        <ele>426.5</ele>
        <time>2015-03-02T13:38:09Z</time>
      </trkpt>
      <trkpt lat="43.35904" lon="5.77734">
        <ele>427</ele>
        <time>2015-03-02T13:38:18Z</time>
      </trkpt>
      <trkpt lat="43.3591" lon="5.77737">
        <ele>427.4</ele>
        <time>2015-03-02T13:38:27Z</time>
      </trkpt>
      <trkpt lat="43.35919" lon="5.77739">
        <ele>427.9</ele>
        <time>2015-03-02T13:38:35Z</time>
      </trkpt>
      <trkpt lat="43.35927" lon="5.7774">
        <ele>428.4</ele>
        <time>2015-03-02T13:38:42Z</time>
      </trkpt>
      <trkpt lat="43.35931" lon="5.77741">
        <ele>428.4</ele>
        <time>2015-03-02T13:38:45Z</time>
      </trkpt>
      <trkpt lat="43.35938" lon="5.77747">
        <ele>428.4</ele>
        <time>2015-03-02T13:38:54Z</time>
      </trkpt>
      <trkpt lat="43.3594" lon="5.7775">
        <ele>428.4</ele>
        <time>2015-03-02T13:39:03Z</time>
      </trkpt>
      <trkpt lat="43.35943" lon="5.77757">
        <ele>428.9</ele>
        <time>2015-03-02T13:39:12Z</time>
      </trkpt>
      <trkpt lat="43.35947" lon="5.77763">
        <ele>428.9</ele>
        <time>2015-03-02T13:39:19Z</time>
      </trkpt>
      <trkpt lat="43.3595" lon="5.77769">
        <ele>428.9</ele>
        <time>2015-03-02T13:39:23Z</time>
      </trkpt>
      <trkpt lat="43.35956" lon="5.77776">
        <ele>429.4</ele>
        <time>2015-03-02T13:39:30Z</time>
      </trkpt>
      <trkpt lat="43.35966" lon="5.77785">
        <ele>429.9</ele>
        <time>2015-03-02T13:39:38Z</time>
      </trkpt>
      <trkpt lat="43.35973" lon="5.77789">
        <ele>429.9</ele>
        <time>2015-03-02T13:39:45Z</time>
      </trkpt>
      <trkpt lat="43.35977" lon="5.77796">
        <ele>429.4</ele>
        <time>2015-03-02T13:39:51Z</time>
      </trkpt>
      <trkpt lat="43.35981" lon="5.77801">
        <ele>429.4</ele>
        <time>2015-03-02T13:39:58Z</time>
      </trkpt>
      <trkpt lat="43.35988" lon="5.77807">
        <ele>429.4</ele>
        <time>2015-03-02T13:40:06Z</time>
      </trkpt>
      <trkpt lat="43.35991" lon="5.77812">
        <ele>429.4</ele>
        <time>2015-03-02T13:40:13Z</time>
      </trkpt>
      <trkpt lat="43.35993" lon="5.77815">
        <ele>429.4</ele>
        <time>2015-03-02T13:40:19Z</time>
      </trkpt>
      <trkpt lat="43.35995" lon="5.77821">
        <ele>430.3</ele>
        <time>2015-03-02T13:40:25Z</time>
      </trkpt>
      <trkpt lat="43.36005" lon="5.77824">
        <ele>430.8</ele>
        <time>2015-03-02T13:40:33Z</time>
      </trkpt>
      <trkpt lat="43.36005" lon="5.77826">
        <ele>434.2</ele>
        <time>2015-03-02T13:40:39Z</time>
      </trkpt>
      <trkpt lat="43.36005" lon="5.77826">
        <ele>429.9</ele>
        <time>2015-03-02T13:40:40Z</time>
      </trkpt>
      <trkpt lat="43.36005" lon="5.77826">
        <ele>431.8</ele>
        <time>2015-03-02T13:40:46Z</time>
      </trkpt>
      <trkpt lat="43.36006" lon="5.77826">
        <ele>431.3</ele>
        <time>2015-03-02T13:41:03Z</time>
      </trkpt>
      <trkpt lat="43.36006" lon="5.77826">
        <ele>435.1</ele>
        <time>2015-03-02T13:41:05Z</time>
      </trkpt>
      <trkpt lat="43.36006" lon="5.77826">
        <ele>430.3</ele>
        <time>2015-03-02T13:41:06Z</time>
      </trkpt>
      <trkpt lat="43.36006" lon="5.77826">
        <ele>432.2</ele>
        <time>2015-03-02T13:41:17Z</time>
      </trkpt>
      <trkpt lat="43.36009" lon="5.77828">
        <ele>432.7</ele>
        <time>2015-03-02T13:41:24Z</time>
      </trkpt>
      <trkpt lat="43.36015" lon="5.77836">
        <ele>432.7</ele>
        <time>2015-03-02T13:41:32Z</time>
      </trkpt>
      <trkpt lat="43.36021" lon="5.77839">
        <ele>433.2</ele>
        <time>2015-03-02T13:41:41Z</time>
      </trkpt>
      <trkpt lat="43.36024" lon="5.77841">
        <ele>433.7</ele>
        <time>2015-03-02T13:41:52Z</time>
      </trkpt>
      <trkpt lat="43.36036" lon="5.77851">
        <ele>435.1</ele>
        <time>2015-03-02T13:42:03Z</time>
      </trkpt>
      <trkpt lat="43.36041" lon="5.77855">
        <ele>436.1</ele>
        <time>2015-03-02T13:42:10Z</time>
      </trkpt>
      <trkpt lat="43.36047" lon="5.77858">
        <ele>437.1</ele>
        <time>2015-03-02T13:42:17Z</time>
      </trkpt>
      <trkpt lat="43.36049" lon="5.77862">
        <ele>438</ele>
        <time>2015-03-02T13:42:25Z</time>
      </trkpt>
      <trkpt lat="43.36054" lon="5.77869">
        <ele>439.5</ele>
        <time>2015-03-02T13:42:34Z</time>
      </trkpt>
      <trkpt lat="43.36059" lon="5.77878">
        <ele>439.9</ele>
        <time>2015-03-02T13:42:43Z</time>
      </trkpt>
      <trkpt lat="43.36061" lon="5.77886">
        <ele>440.4</ele>
        <time>2015-03-02T13:42:51Z</time>
      </trkpt>
      <trkpt lat="43.36063" lon="5.77891">
        <ele>440.4</ele>
        <time>2015-03-02T13:42:57Z</time>
      </trkpt>
      <trkpt lat="43.36067" lon="5.77899">
        <ele>440.9</ele>
        <time>2015-03-02T13:43:05Z</time>
      </trkpt>
      <trkpt lat="43.36075" lon="5.77906">
        <ele>441.9</ele>
        <time>2015-03-02T13:43:14Z</time>
      </trkpt>
      <trkpt lat="43.3608" lon="5.77908">
        <ele>443.3</ele>
        <time>2015-03-02T13:43:23Z</time>
      </trkpt>
      <trkpt lat="43.36085" lon="5.77908">
        <ele>443.8</ele>
        <time>2015-03-02T13:43:31Z</time>
      </trkpt>
      <trkpt lat="43.36088" lon="5.77907">
        <ele>445.2</ele>
        <time>2015-03-02T13:43:39Z</time>
      </trkpt>
      <trkpt lat="43.36093" lon="5.77908">
        <ele>446.2</ele>
        <time>2015-03-02T13:43:48Z</time>
      </trkpt>
      <trkpt lat="43.36097" lon="5.77909">
        <ele>446.7</ele>
        <time>2015-03-02T13:43:52Z</time>
      </trkpt>
      <trkpt lat="43.36104" lon="5.77907">
        <ele>447.1</ele>
        <time>2015-03-02T13:44:00Z</time>
      </trkpt>
      <trkpt lat="43.36112" lon="5.77903">
        <ele>448.1</ele>
        <time>2015-03-02T13:44:07Z</time>
      </trkpt>
      <trkpt lat="43.3612" lon="5.77898">
        <ele>448.6</ele>
        <time>2015-03-02T13:44:15Z</time>
      </trkpt>
      <trkpt lat="43.36128" lon="5.77894">
        <ele>449.1</ele>
        <time>2015-03-02T13:44:22Z</time>
      </trkpt>
      <trkpt lat="43.36132" lon="5.77892">
        <ele>449.5</ele>
        <time>2015-03-02T13:44:29Z</time>
      </trkpt>
      <trkpt lat="43.36137" lon="5.77888">
        <ele>449.5</ele>
        <time>2015-03-02T13:44:36Z</time>
      </trkpt>
      <trkpt lat="43.36141" lon="5.77887">
        <ele>449.5</ele>
        <time>2015-03-02T13:44:45Z</time>
      </trkpt>
      <trkpt lat="43.36141" lon="5.77886">
        <ele>449.1</ele>
        <time>2015-03-02T13:45:02Z</time>
      </trkpt>
      <trkpt lat="43.3614" lon="5.77886">
        <ele>449.5</ele>
        <time>2015-03-02T13:45:08Z</time>
      </trkpt>
      <trkpt lat="43.36141" lon="5.77886">
        <ele>449.1</ele>
        <time>2015-03-02T13:45:16Z</time>
      </trkpt>
      <trkpt lat="43.36141" lon="5.77887">
        <ele>449.1</ele>
        <time>2015-03-02T13:45:29Z</time>
      </trkpt>
      <trkpt lat="43.36141" lon="5.77888">
        <ele>449.1</ele>
        <time>2015-03-02T13:45:39Z</time>
      </trkpt>
      <trkpt lat="43.36143" lon="5.77886">
        <ele>448.6</ele>
        <time>2015-03-02T13:45:47Z</time>
      </trkpt>
      <trkpt lat="43.36147" lon="5.7788">
        <ele>448.1</ele>
        <time>2015-03-02T13:45:56Z</time>
      </trkpt>
      <trkpt lat="43.36154" lon="5.77876">
        <ele>447.6</ele>
        <time>2015-03-02T13:46:02Z</time>
      </trkpt>
      <trkpt lat="43.36161" lon="5.77873">
        <ele>448.1</ele>
        <time>2015-03-02T13:46:10Z</time>
      </trkpt>
      <trkpt lat="43.36172" lon="5.7787">
        <ele>448.1</ele>
        <time>2015-03-02T13:46:18Z</time>
      </trkpt>
      <trkpt lat="43.36181" lon="5.77869">
        <ele>447.1</ele>
        <time>2015-03-02T13:46:27Z</time>
      </trkpt>
      <trkpt lat="43.36191" lon="5.77864">
        <ele>446.7</ele>
        <time>2015-03-02T13:46:36Z</time>
      </trkpt>
      <trkpt lat="43.362" lon="5.77865">
        <ele>448.6</ele>
        <time>2015-03-02T13:46:46Z</time>
      </trkpt>
      <trkpt lat="43.36208" lon="5.77864">
        <ele>449.1</ele>
        <time>2015-03-02T13:46:57Z</time>
      </trkpt>
      <trkpt lat="43.36217" lon="5.77857">
        <ele>449.5</ele>
        <time>2015-03-02T13:47:08Z</time>
      </trkpt>
      <trkpt lat="43.36228" lon="5.77851">
        <ele>449.1</ele>
        <time>2015-03-02T13:47:17Z</time>
      </trkpt>
      <trkpt lat="43.36237" lon="5.77849">
        <ele>449.1</ele>
        <time>2015-03-02T13:47:27Z</time>
      </trkpt>
      <trkpt lat="43.36248" lon="5.77846">
        <ele>448.6</ele>
        <time>2015-03-02T13:47:37Z</time>
      </trkpt>
      <trkpt lat="43.36256" lon="5.77844">
        <ele>448.6</ele>
        <time>2015-03-02T13:47:46Z</time>
      </trkpt>
      <trkpt lat="43.36263" lon="5.77844">
        <ele>447.6</ele>
        <time>2015-03-02T13:47:54Z</time>
      </trkpt>
      <trkpt lat="43.36266" lon="5.77844">
        <ele>447.6</ele>
        <time>2015-03-02T13:47:57Z</time>
      </trkpt>
      <trkpt lat="43.36277" lon="5.77842">
        <ele>447.1</ele>
        <time>2015-03-02T13:48:04Z</time>
      </trkpt>
      <trkpt lat="43.36278" lon="5.77842">
        <ele>447.1</ele>
        <time>2015-03-02T13:48:05Z</time>
      </trkpt>
      <trkpt lat="43.3628" lon="5.77842">
        <ele>446.7</ele>
        <time>2015-03-02T13:48:07Z</time>
      </trkpt>
      <trkpt lat="43.36285" lon="5.77844">
        <ele>446.7</ele>
        <time>2015-03-02T13:48:11Z</time>
      </trkpt>
      <trkpt lat="43.36296" lon="5.77845">
        <ele>446.2</ele>
        <time>2015-03-02T13:48:19Z</time>
      </trkpt>
      <trkpt lat="43.36303" lon="5.77845">
        <ele>445.7</ele>
        <time>2015-03-02T13:48:27Z</time>
      </trkpt>
      <trkpt lat="43.36314" lon="5.77846">
        <ele>445.2</ele>
        <time>2015-03-02T13:48:36Z</time>
      </trkpt>
      <trkpt lat="43.36321" lon="5.77849">
        <ele>444.8</ele>
        <time>2015-03-02T13:48:44Z</time>
      </trkpt>
      <trkpt lat="43.36329" lon="5.7785">
        <ele>445.2</ele>
        <time>2015-03-02T13:48:53Z</time>
      </trkpt>
      <trkpt lat="43.36335" lon="5.77856">
        <ele>445.7</ele>
        <time>2015-03-02T13:49:00Z</time>
      </trkpt>
      <trkpt lat="43.36342" lon="5.77859">
        <ele>445.7</ele>
        <time>2015-03-02T13:49:08Z</time>
      </trkpt>
      <trkpt lat="43.3635" lon="5.77862">
        <ele>445.2</ele>
        <time>2015-03-02T13:49:19Z</time>
      </trkpt>
      <trkpt lat="43.3636" lon="5.77867">
        <ele>444.3</ele>
        <time>2015-03-02T13:49:28Z</time>
      </trkpt>
      <trkpt lat="43.3637" lon="5.77871">
        <ele>443.3</ele>
        <time>2015-03-02T13:49:37Z</time>
      </trkpt>
      <trkpt lat="43.36381" lon="5.77881">
        <ele>443.3</ele>
        <time>2015-03-02T13:49:47Z</time>
      </trkpt>
      <trkpt lat="43.36385" lon="5.77885">
        <ele>443.3</ele>
        <time>2015-03-02T13:49:54Z</time>
      </trkpt>
      <trkpt lat="43.36394" lon="5.77892">
        <ele>443.3</ele>
        <time>2015-03-02T13:50:03Z</time>
      </trkpt>
      <trkpt lat="43.364" lon="5.77895">
        <ele>443.3</ele>
        <time>2015-03-02T13:50:12Z</time>
      </trkpt>
      <trkpt lat="43.36412" lon="5.77909">
        <ele>443.8</ele>
        <time>2015-03-02T13:50:22Z</time>
      </trkpt>
      <trkpt lat="43.36423" lon="5.77918">
        <ele>443.3</ele>
        <time>2015-03-02T13:50:32Z</time>
      </trkpt>
      <trkpt lat="43.3643" lon="5.77925">
        <ele>442.8</ele>
        <time>2015-03-02T13:50:39Z</time>
      </trkpt>
      <trkpt lat="43.36439" lon="5.77935">
        <ele>441.9</ele>
        <time>2015-03-02T13:50:48Z</time>
      </trkpt>
      <trkpt lat="43.36444" lon="5.77936">
        <ele>440.9</ele>
        <time>2015-03-02T13:50:57Z</time>
      </trkpt>
      <trkpt lat="43.36448" lon="5.77941">
        <ele>440.4</ele>
        <time>2015-03-02T13:51:05Z</time>
      </trkpt>
      <trkpt lat="43.36457" lon="5.77951">
        <ele>439</ele>
        <time>2015-03-02T13:51:14Z</time>
      </trkpt>
      <trkpt lat="43.36465" lon="5.77954">
        <ele>438</ele>
        <time>2015-03-02T13:51:22Z</time>
      </trkpt>
      <trkpt lat="43.36474" lon="5.7795">
        <ele>437.1</ele>
        <time>2015-03-02T13:51:27Z</time>
      </trkpt>
      <trkpt lat="43.36478" lon="5.77955">
        <ele>437.1</ele>
        <time>2015-03-02T13:51:30Z</time>
      </trkpt>
      <trkpt lat="43.36487" lon="5.77968">
        <ele>436.6</ele>
        <time>2015-03-02T13:51:37Z</time>
      </trkpt>
      <trkpt lat="43.3649" lon="5.77972">
        <ele>436.1</ele>
        <time>2015-03-02T13:51:40Z</time>
      </trkpt>
      <trkpt lat="43.36496" lon="5.77982">
        <ele>434.6</ele>
        <time>2015-03-02T13:51:48Z</time>
      </trkpt>
      <trkpt lat="43.36505" lon="5.77992">
        <ele>433.7</ele>
        <time>2015-03-02T13:51:58Z</time>
      </trkpt>
      <trkpt lat="43.36509" lon="5.77999">
        <ele>432.2</ele>
        <time>2015-03-02T13:52:05Z</time>
      </trkpt>
      <trkpt lat="43.36516" lon="5.78005">
        <ele>430.8</ele>
        <time>2015-03-02T13:52:13Z</time>
      </trkpt>
      <trkpt lat="43.3652" lon="5.78008">
        <ele>430.8</ele>
        <time>2015-03-02T13:52:17Z</time>
      </trkpt>
      <trkpt lat="43.36525" lon="5.78014">
        <ele>430.3</ele>
        <time>2015-03-02T13:52:23Z</time>
      </trkpt>
      <trkpt lat="43.36531" lon="5.78023">
        <ele>428.4</ele>
        <time>2015-03-02T13:52:31Z</time>
      </trkpt>
      <trkpt lat="43.36536" lon="5.78029">
        <ele>427.9</ele>
        <time>2015-03-02T13:52:37Z</time>
      </trkpt>
      <trkpt lat="43.36539" lon="5.78033">
        <ele>427.4</ele>
        <time>2015-03-02T13:52:41Z</time>
      </trkpt>
      <trkpt lat="43.36549" lon="5.78042">
        <ele>426</ele>
        <time>2015-03-02T13:52:51Z</time>
      </trkpt>
      <trkpt lat="43.3655" lon="5.78042">
        <ele>426</ele>
        <time>2015-03-02T13:52:52Z</time>
      </trkpt>
      <trkpt lat="43.36553" lon="5.78045">
        <ele>425.5</ele>
        <time>2015-03-02T13:52:55Z</time>
      </trkpt>
      <trkpt lat="43.36561" lon="5.7805">
        <ele>425.5</ele>
        <time>2015-03-02T13:53:03Z</time>
      </trkpt>
      <trkpt lat="43.36567" lon="5.78054">
        <ele>424.6</ele>
        <time>2015-03-02T13:53:10Z</time>
      </trkpt>
      <trkpt lat="43.36575" lon="5.78057">
        <ele>424.1</ele>
        <time>2015-03-02T13:53:18Z</time>
      </trkpt>
      <trkpt lat="43.36583" lon="5.7806">
        <ele>423.6</ele>
        <time>2015-03-02T13:53:26Z</time>
      </trkpt>
      <trkpt lat="43.36584" lon="5.78061">
        <ele>423.6</ele>
        <time>2015-03-02T13:53:27Z</time>
      </trkpt>
      <trkpt lat="43.36593" lon="5.78063">
        <ele>423.6</ele>
        <time>2015-03-02T13:53:36Z</time>
      </trkpt>
      <trkpt lat="43.36601" lon="5.78065">
        <ele>424.1</ele>
        <time>2015-03-02T13:53:44Z</time>
      </trkpt>
      <trkpt lat="43.36605" lon="5.78064">
        <ele>424.1</ele>
        <time>2015-03-02T13:53:48Z</time>
      </trkpt>
      <trkpt lat="43.36611" lon="5.78064">
        <ele>424.1</ele>
        <time>2015-03-02T13:53:56Z</time>
      </trkpt>
      <trkpt lat="43.3662" lon="5.78065">
        <ele>423.6</ele>
        <time>2015-03-02T13:54:04Z</time>
      </trkpt>
      <trkpt lat="43.36627" lon="5.78066">
        <ele>423.6</ele>
        <time>2015-03-02T13:54:10Z</time>
      </trkpt>
      <trkpt lat="43.36635" lon="5.78066">
        <ele>423.1</ele>
        <time>2015-03-02T13:54:17Z</time>
      </trkpt>
      <trkpt lat="43.36644" lon="5.78067">
        <ele>422.6</ele>
        <time>2015-03-02T13:54:26Z</time>
      </trkpt>
      <trkpt lat="43.36645" lon="5.78067">
        <ele>422.6</ele>
        <time>2015-03-02T13:54:27Z</time>
      </trkpt>
      <trkpt lat="43.36653" lon="5.78069">
        <ele>421.7</ele>
        <time>2015-03-02T13:54:35Z</time>
      </trkpt>
      <trkpt lat="43.36654" lon="5.78069">
        <ele>421.2</ele>
        <time>2015-03-02T13:54:39Z</time>
      </trkpt>
      <trkpt lat="43.36663" lon="5.78071">
        <ele>420.7</ele>
        <time>2015-03-02T13:54:46Z</time>
      </trkpt>
      <trkpt lat="43.36671" lon="5.78075">
        <ele>420.2</ele>
        <time>2015-03-02T13:54:54Z</time>
      </trkpt>
      <trkpt lat="43.36673" lon="5.78077">
        <ele>420.2</ele>
        <time>2015-03-02T13:54:56Z</time>
      </trkpt>
      <trkpt lat="43.36684" lon="5.78082">
        <ele>419.8</ele>
        <time>2015-03-02T13:55:05Z</time>
      </trkpt>
      <trkpt lat="43.36693" lon="5.78086">
        <ele>419.3</ele>
        <time>2015-03-02T13:55:12Z</time>
      </trkpt>
      <trkpt lat="43.36695" lon="5.78088">
        <ele>419.3</ele>
        <time>2015-03-02T13:55:14Z</time>
      </trkpt>
      <trkpt lat="43.36699" lon="5.78091">
        <ele>418.8</ele>
        <time>2015-03-02T13:55:18Z</time>
      </trkpt>
      <trkpt lat="43.36705" lon="5.78094">
        <ele>418.8</ele>
        <time>2015-03-02T13:55:23Z</time>
      </trkpt>
      <trkpt lat="43.36715" lon="5.78097">
        <ele>418.3</ele>
        <time>2015-03-02T13:55:31Z</time>
      </trkpt>
      <trkpt lat="43.36725" lon="5.781">
        <ele>418.3</ele>
        <time>2015-03-02T13:55:40Z</time>
      </trkpt>
      <trkpt lat="43.36732" lon="5.78101">
        <ele>418.3</ele>
        <time>2015-03-02T13:55:47Z</time>
      </trkpt>
      <trkpt lat="43.36739" lon="5.78103">
        <ele>418.3</ele>
        <time>2015-03-02T13:55:55Z</time>
      </trkpt>
      <trkpt lat="43.36741" lon="5.78102">
        <ele>418.3</ele>
        <time>2015-03-02T13:55:59Z</time>
      </trkpt>
      <trkpt lat="43.36748" lon="5.78102">
        <ele>418.3</ele>
        <time>2015-03-02T13:56:05Z</time>
      </trkpt>
      <trkpt lat="43.36758" lon="5.78102">
        <ele>418.3</ele>
        <time>2015-03-02T13:56:14Z</time>
      </trkpt>
      <trkpt lat="43.36766" lon="5.78103">
        <ele>417.8</ele>
        <time>2015-03-02T13:56:21Z</time>
      </trkpt>
      <trkpt lat="43.36772" lon="5.78103">
        <ele>417.8</ele>
        <time>2015-03-02T13:56:27Z</time>
      </trkpt>
      <trkpt lat="43.36776" lon="5.78105">
        <ele>417.8</ele>
        <time>2015-03-02T13:56:32Z</time>
      </trkpt>
      <trkpt lat="43.36787" lon="5.78107">
        <ele>417.4</ele>
        <time>2015-03-02T13:56:40Z</time>
      </trkpt>
      <trkpt lat="43.36792" lon="5.78108">
        <ele>417.4</ele>
        <time>2015-03-02T13:56:45Z</time>
      </trkpt>
      <trkpt lat="43.36798" lon="5.78107">
        <ele>417.4</ele>
        <time>2015-03-02T13:56:50Z</time>
      </trkpt>
      <trkpt lat="43.36801" lon="5.78106">
        <ele>417.4</ele>
        <time>2015-03-02T13:56:53Z</time>
      </trkpt>
      <trkpt lat="43.36808" lon="5.78105">
        <ele>417.4</ele>
        <time>2015-03-02T13:57:01Z</time>
      </trkpt>
      <trkpt lat="43.36809" lon="5.78104">
        <ele>416.9</ele>
        <time>2015-03-02T13:57:02Z</time>
      </trkpt>
      <trkpt lat="43.36812" lon="5.78103">
        <ele>416.9</ele>
        <time>2015-03-02T13:57:04Z</time>
      </trkpt>
      <trkpt lat="43.3682" lon="5.78099">
        <ele>416.4</ele>
        <time>2015-03-02T13:57:11Z</time>
      </trkpt>
      <trkpt lat="43.36824" lon="5.78098">
        <ele>416.4</ele>
        <time>2015-03-02T13:57:14Z</time>
      </trkpt>
      <trkpt lat="43.36831" lon="5.78092">
        <ele>415.9</ele>
        <time>2015-03-02T13:57:21Z</time>
      </trkpt>
      <trkpt lat="43.36834" lon="5.78089">
        <ele>415.9</ele>
        <time>2015-03-02T13:57:25Z</time>
      </trkpt>
      <trkpt lat="43.36836" lon="5.78088">
        <ele>415.9</ele>
        <time>2015-03-02T13:57:27Z</time>
      </trkpt>
      <trkpt lat="43.36842" lon="5.78084">
        <ele>415.9</ele>
        <time>2015-03-02T13:57:33Z</time>
      </trkpt>
      <trkpt lat="43.36843" lon="5.78083">
        <ele>415.9</ele>
        <time>2015-03-02T13:57:34Z</time>
      </trkpt>
      <trkpt lat="43.36846" lon="5.7808">
        <ele>415.9</ele>
        <time>2015-03-02T13:57:38Z</time>
      </trkpt>
      <trkpt lat="43.36849" lon="5.78078">
        <ele>415.9</ele>
        <time>2015-03-02T13:57:41Z</time>
      </trkpt>
      <trkpt lat="43.36855" lon="5.78073">
        <ele>415.9</ele>
        <time>2015-03-02T13:57:50Z</time>
      </trkpt>
      <trkpt lat="43.36857" lon="5.78072">
        <ele>415.4</ele>
        <time>2015-03-02T13:58:00Z</time>
      </trkpt>
      <trkpt lat="43.36861" lon="5.78068">
        <ele>415.4</ele>
        <time>2015-03-02T13:58:08Z</time>
      </trkpt>
      <trkpt lat="43.36862" lon="5.78066">
        <ele>415.4</ele>
        <time>2015-03-02T13:58:17Z</time>
      </trkpt>
      <trkpt lat="43.36863" lon="5.78065">
        <ele>415.4</ele>
        <time>2015-03-02T13:58:26Z</time>
      </trkpt>
      <trkpt lat="43.36863" lon="5.78065">
        <ele>415.9</ele>
        <time>2015-03-02T13:58:41Z</time>
      </trkpt>
      <trkpt lat="43.36863" lon="5.78064">
        <ele>415.9</ele>
        <time>2015-03-02T13:58:59Z</time>
      </trkpt>
      <trkpt lat="43.36863" lon="5.78064">
        <ele>415.9</ele>
        <time>2015-03-02T13:59:11Z</time>
      </trkpt>
      <trkpt lat="43.36863" lon="5.78065">
        <ele>415.4</ele>
        <time>2015-03-02T13:59:28Z</time>
      </trkpt>
      <trkpt lat="43.36865" lon="5.78066">
        <ele>414</ele>
        <time>2015-03-02T13:59:31Z</time>
      </trkpt>
      <trkpt lat="43.36865" lon="5.78068">
        <ele>415.4</ele>
        <time>2015-03-02T13:59:33Z</time>
      </trkpt>
      <trkpt lat="43.36867" lon="5.78071">
        <ele>415</ele>
        <time>2015-03-02T13:59:43Z</time>
      </trkpt>
      <trkpt lat="43.36867" lon="5.78071">
        <ele>415.4</ele>
        <time>2015-03-02T13:59:56Z</time>
      </trkpt>
      <trkpt lat="43.36867" lon="5.7807">
        <ele>420.2</ele>
        <time>2015-03-02T14:00:06Z</time>
      </trkpt>
      <trkpt lat="43.36867" lon="5.7807">
        <ele>415.9</ele>
        <time>2015-03-02T14:00:07Z</time>
      </trkpt>
      <trkpt lat="43.36868" lon="5.78071">
        <ele>414.5</ele>
        <time>2015-03-02T14:00:16Z</time>
      </trkpt>
      <trkpt lat="43.36869" lon="5.78071">
        <ele>415</ele>
        <time>2015-03-02T14:00:18Z</time>
      </trkpt>
      <trkpt lat="43.36873" lon="5.78075">
        <ele>414.5</ele>
        <time>2015-03-02T14:00:26Z</time>
      </trkpt>
      <trkpt lat="43.36875" lon="5.78077">
        <ele>414</ele>
        <time>2015-03-02T14:00:28Z</time>
      </trkpt>
      <trkpt lat="43.36879" lon="5.7808">
        <ele>418.8</ele>
        <time>2015-03-02T14:00:32Z</time>
      </trkpt>
      <trkpt lat="43.3688" lon="5.78081">
        <ele>413.5</ele>
        <time>2015-03-02T14:00:33Z</time>
      </trkpt>
      <trkpt lat="43.36885" lon="5.78086">
        <ele>414</ele>
        <time>2015-03-02T14:00:40Z</time>
      </trkpt>
      <trkpt lat="43.36889" lon="5.78088">
        <ele>412.5</ele>
        <time>2015-03-02T14:00:45Z</time>
      </trkpt>
      <trkpt lat="43.3691" lon="5.78103">
        <ele>411.6</ele>
        <time>2015-03-02T14:01:06Z</time>
      </trkpt>
      <trkpt lat="43.3691" lon="5.78104">
        <ele>411.6</ele>
        <time>2015-03-02T14:01:07Z</time>
      </trkpt>
      <trkpt lat="43.36915" lon="5.78104">
        <ele>411.1</ele>
        <time>2015-03-02T14:01:13Z</time>
      </trkpt>
      <trkpt lat="43.36921" lon="5.78105">
        <ele>410.6</ele>
        <time>2015-03-02T14:01:19Z</time>
      </trkpt>
      <trkpt lat="43.36928" lon="5.78108">
        <ele>410.1</ele>
        <time>2015-03-02T14:01:28Z</time>
      </trkpt>
    </trkseg>
  </trk>
</gpx>